[[{"header":{"parameterUnit":"m.s-1","parameterCategory":1,"la1":31.0,"la2":29.5877,"lo1":-88.7671,"lo2":-86.6584,"dy":0.0162,"dx":0.0185,"nx":115,"ny":88,"refTime":"2023-09-24T00:00:00:Z","depth":0,"parameterNumber":2,"parameterNumberName":"U-component_of_WINDS"},"data":[0.0,0.0,0.0,0.0,0.0,0.0,0.0,0.0,0.0,0.0,0.0,0.0,0.0,0.0,0.0,0.0,0.0,0.0,0.0,0.0,0.0,0.0,0.0,0.0,0.0,0.0,0.0,0.0,0.0,0.0,0.0,0.0,0.0,0.0,0.0,0.0,0.0,0.0,0.0,0.0,0.0,0.0,0.0,0.0,0.0,0.0,0.0,0.0,0.0,0.0,0.0,0.0,0.0,0.0,0.0,0.0,0.0,0.0,0.0,0.0,0.0,0.0,0.0,0.0,0.0,0.0,0.0,0.0,0.0,0.0,0.0,0.0,0.0,0.0,0.0,0.0,0.0,0.0,0.0,0.0,0.0,0.0,0.0,0.0,0.0,0.0,0.0,0.0,0.0,0.0,0.0,0.0,0.0,0.0,0.0,0.0,0.0,0.0,0.0,0.0,0.0,0.0,0.0,0.0,0.0,0.0,0.0,0.0,0.0,0.0,0.0,0.0,0.0,0.0,0.0,0.0,0.0,0.0,0.0,0.0,0.0,0.0,0.0,0.0,0.0,0.0,0.0,0.0,0.0,0.0,0.0,0.0,0.0,0.0,0.0,0.0,0.0,0.0,0.0,0.0,0.0,0.0,0.0,0.0,0.0,0.0,0.0,0.0,0.0,0.0,0.0,0.0,0.0,0.0,0.0,0.0,0.0,0.0,0.0,0.0,0.0,0.0,0.0,0.0,0.0,0.0,0.0,0.0,0.0,0.0,0.0,0.0,0.0,0.0,0.0,0.0,0.0,0.0,0.0,0.0,0.0,0.0,0.0,0.0,0.0,0.0,0.0,0.0,0.0,0.0,0.0,0.0,0.0,0.0,0.0,0.0,0.0,0.0,0.0,0.0,0.0,0.0,0.0,0.0,0.0,0.0,0.0,0.0,0.0,0.0,0.0,0.0,0.0,0.0,0.0,0.0,0.0,0.0,0.0,0.0,0.0,0.0,0.0,0.0,0.0,0.0,0.0,0.0,0.0,0.0,0.0,0.0,0.0,0.0,0.0,0.0,0.0,0.0,0.0,0.0,0.0,0.0,0.0,0.0,0.0,0.0,0.0,0.0,0.0,0.0,0.0,0.0,0.0,0.0,0.0,0.0,0.0,0.0,0.0,0.0,0.0,0.0,0.0,0.0,0.0,0.0,0.0,0.0,0.0,0.0,0.0,0.0,0.0,0.0,0.0,0.0,0.0,0.0,0.0,0.0,0.0,0.0,0.0,0.0,0.0,0.0,0.0,0.0,0.0,0.0,0.0,0.0,0.0,0.0,0.0,0.0,0.0,0.0,0.0,0.0,0.0,0.0,0.0,0.0,0.0,0.0,0.0,0.0,0.0,0.0,0.0,0.0,0.0,0.0,0.0,0.0,0.0,0.0,0.0,0.0,0.0,0.0,0.0,0.0,0.0,0.0,0.0,0.0,0.0,0.0,0.0,0.0,0.0,0.0,0.0,0.0,0.0,0.0,0.0,0.0,0.0,0.0,0.0,0.0,0.0,0.0,0.0,0.0,0.0,0.0,0.0,0.0,0.0,0.0,0.0,0.0,0.0,0.0,0.0,0.0,0.0,0.0,0.0,0.0,0.0,0.0,0.0,0.0,0.0,0.0,0.0,0.0,0.0,0.0,0.0,0.0,0.0,0.0,0.0,0.0,0.0,0.0,0.0,0.0,0.0,0.0,0.0,0.0,0.0,0.0,0.0,0.0,0.0,0.0,0.0,0.0,0.0,0.0,0.0,0.0,0.0,0.0,0.0,0.0,0.0,0.0,0.0,0.0,0.0,0.0,0.0,0.0,0.0,0.0,0.0,0.0,0.0,0.0,0.0,0.0,0.0,0.0,0.0,0.0,0.0,0.0,0.0,0.0,0.0,0.0,0.0,0.0,0.0,0.0,0.0,0.0,0.0,0.0,0.0,0.0,0.0,0.0,0.0,0.0,0.0,0.0,0.0,0.0,0.0,0.0,0.0,0.0,0.0,0.0,0.0,0.0,0.0,0.0,0.0,0.0,0.0,0.0,0.0,0.0,0.0,0.0,0.0,0.0,0.0,0.0,0.0,0.0,0.0,0.0,0.0,0.0,0.0,0.0,0.0,0.0,0.0,0.0,0.0,0.0,0.0,0.0,0.0,0.0,0.0,0.0,0.0,0.0,0.0,0.0,0.0,0.0,0.0,0.0,0.0,0.0,0.0,0.0,0.0,0.0,0.0,0.0,0.0,0.0,0.0,0.0,0.0,0.0,0.0,0.0,0.0,0.0,0.0,0.0,0.0,0.0,0.0,0.0,0.0,0.0,0.0,0.0,0.0,0.0,0.0,0.0,0.0,0.0,0.0,0.0,0.0,0.0,0.0,0.0,0.0,0.0,0.0,0.0,0.0,0.0,0.0,0.0,0.0,0.0,0.0,0.0,0.0,0.0,0.0,0.0,0.0,0.0,0.0,0.0,0.0,0.0,0.0,0.0,0.0,0.0,0.0,0.0,0.0,0.0,0.0,0.0,0.0,0.0,0.0,0.0,0.0,0.0,0.0,0.0,0.0,0.0,0.0,0.0,0.0,0.0,0.0,0.0,0.0,0.0,0.0,0.0,0.0,0.0,0.0,0.0,0.0,0.0,0.0,0.0,0.0,0.0,0.0,0.0,0.0,0.0,0.0,0.0,0.0,0.0,0.0,0.0,0.0,0.0,0.0,0.0,0.0,0.0,0.0,0.0,0.0,0.0,0.0,0.0,0.0,0.0,0.0,0.0,0.0,0.0,0.0,0.0,0.0,0.0,0.0,0.0,0.0,0.0,0.0,0.0,0.0,0.0,0.0,0.0,0.0,0.0,0.0,0.0,0.0,0.0,0.0,0.0,0.0,0.0,0.0,0.0,0.0,0.0,0.0,0.0,0.0,0.0,0.0,0.0,0.0,0.0,0.0,0.0,0.0,0.0,0.0,0.0,0.0,0.0,0.0,0.0,0.0,0.0,0.0,0.0,0.0,0.0,0.0,0.0,0.0,0.0,0.0,0.0,0.0,0.0,0.0,0.0,0.0,0.0,0.0,0.0,0.0,0.0,0.0,0.0,0.0,0.0,0.0,0.0,0.0,0.0,0.0,0.0,0.0,0.0,0.0,0.0,0.0,0.0,0.0,0.0,0.0,0.0,0.0,0.0,0.0,0.0,0.0,0.0,0.0,0.0,0.0,0.0,0.0,0.0,0.0,0.0,0.0,0.0,0.0,0.0,0.0,0.0,0.0,0.0,0.0,0.0,0.0,0.0,0.0,0.0,0.0,0.0,0.0,0.0,0.0,0.0,0.0,0.0,0.0,0.0,0.0,0.0,0.0,0.0,0.0,0.0,0.0,0.0,0.0,0.0,0.0,0.0,0.0,0.0,0.0,0.0,0.0,0.0,0.0,0.0,0.0,0.0,0.0,0.0,0.0,0.0,0.0,0.0,0.0,0.0,0.0,0.0,0.0,0.0,0.0,0.0,0.0,0.0,0.0,0.0,0.0,0.0,0.0,0.0,0.0,0.0,0.0,0.0,0.0,0.0,0.0,0.0,0.0,0.0,0.0,0.0,0.0,0.0,0.0,0.0,0.0,0.0,0.0,0.0,0.0,0.0,0.0,0.0,0.0,0.0,0.0,0.0,0.0,0.0,0.0,0.0,0.0,0.0,0.0,0.0,0.0,0.0,0.0,0.0,0.0,0.0,0.0,0.0,0.0,0.0,0.0,0.0,0.0,0.0,0.0,0.0,0.0,0.0,0.0,0.0,0.0,0.0,0.0,0.0,0.0,0.0,0.0,0.0,0.0,0.0,0.0,0.0,0.0,0.0,0.0,0.0,0.0,0.0,0.0,0.0,0.0,0.0,0.0,0.0,0.0,0.0,0.0,0.0,0.0,0.0,0.0,0.0,0.0,0.0,0.0,0.0,0.0,0.0,0.0,0.0,0.0,0.0,0.0,0.0,0.0,0.0,0.0,0.0,0.0,0.0,0.0,0.0,0.0,0.0,0.0,0.0,0.0,0.0,0.0,0.0,0.0,0.0,0.0,0.0,0.0,0.0,0.0,0.0,0.0,0.0,0.0,0.0,0.0,0.0,0.0,0.0,0.0,0.0,0.0,0.0,0.0,0.0,0.0,0.0,0.0,0.0,0.0,0.0,0.0,0.0,0.0,0.0,0.0,0.0,0.0,0.0,0.0,0.0,0.0,0.0,0.0,0.0,0.0,0.0,0.0,0.0,0.0,0.0,0.0,0.0,0.0,0.0,-1.8476,0.0,0.0,0.0,0.0,0.0,0.0,0.0,0.0,0.0,0.0,0.0,0.0,0.0,0.0,0.0,0.0,0.0,0.0,0.0,0.0,0.0,0.0,0.0,0.0,0.0,0.0,0.0,0.0,0.0,0.0,0.0,0.0,0.0,0.0,0.0,0.0,0.0,0.0,0.0,0.0,0.0,0.0,0.0,0.0,0.0,0.0,0.0,0.0,0.0,0.0,0.0,0.0,0.0,0.0,0.0,0.0,0.0,0.0,0.0,0.0,0.0,0.0,0.0,0.0,0.0,0.0,0.0,0.0,0.0,0.0,0.0,0.0,0.0,0.0,0.0,0.0,0.0,0.0,0.0,0.0,0.0,0.0,0.0,0.0,0.0,0.0,0.0,0.0,0.0,0.0,0.0,0.0,0.0,0.0,0.0,0.0,0.0,0.0,0.0,0.0,0.0,0.0,0.0,0.0,0.0,0.0,0.0,0.0,0.0,0.0,-1.9696,-1.9393,-2.0243,-2.0121,-1.8839,0.0,0.0,0.0,0.0,0.0,0.0,0.0,0.0,0.0,0.0,0.0,0.0,0.0,0.0,0.0,0.0,0.0,0.0,0.0,0.0,0.0,0.0,0.0,0.0,0.0,0.0,0.0,0.0,0.0,0.0,0.0,0.0,0.0,0.0,0.0,0.0,0.0,0.0,0.0,0.0,0.0,0.0,0.0,0.0,0.0,0.0,0.0,0.0,0.0,0.0,0.0,0.0,0.0,0.0,0.0,0.0,0.0,0.0,0.0,0.0,0.0,0.0,0.0,0.0,0.0,0.0,0.0,0.0,0.0,0.0,0.0,0.0,0.0,0.0,0.0,0.0,0.0,0.0,0.0,0.0,0.0,0.0,0.0,0.0,0.0,0.0,0.0,0.0,0.0,0.0,0.0,0.0,0.0,0.0,0.0,0.0,0.0,0.0,0.0,0.0,0.0,0.0,0.0,0.0,0.0,0.0,0.0,0.0,0.0,0.0,0.0,0.0,-2.0956,-2.0811,-1.9761,0.0,0.0,0.0,0.0,0.0,0.0,0.0,0.0,0.0,0.0,0.0,0.0,0.0,0.0,0.0,0.0,0.0,0.0,0.0,0.0,0.0,0.0,0.0,0.0,0.0,0.0,0.0,0.0,0.0,0.0,0.0,0.0,0.0,0.0,0.0,0.0,0.0,0.0,0.0,0.0,0.0,0.0,0.0,0.0,0.0,0.0,0.0,0.0,0.0,0.0,0.0,0.0,0.0,0.0,0.0,0.0,0.0,0.0,0.0,0.0,0.0,0.0,0.0,0.0,0.0,0.0,0.0,0.0,0.0,0.0,0.0,0.0,0.0,0.0,0.0,0.0,0.0,0.0,0.0,0.0,0.0,0.0,0.0,0.0,0.0,0.0,0.0,0.0,0.0,0.0,0.0,0.0,0.0,0.0,0.0,0.0,0.0,0.0,0.0,0.0,0.0,0.0,0.0,0.0,0.0,0.0,0.0,0.0,0.0,0.0,-2.082,-2.2253,-2.2248,0.0,-2.1545,0.0,0.0,0.0,0.0,0.0,0.0,0.0,0.0,0.0,0.0,0.0,0.0,0.0,0.0,0.0,0.0,0.0,0.0,0.0,0.0,0.0,0.0,0.0,0.0,0.0,0.0,0.0,0.0,0.0,0.0,0.0,0.0,0.0,0.0,0.0,0.0,0.0,0.0,0.0,0.0,0.0,0.0,0.0,0.0,0.0,0.0,0.0,0.0,0.0,0.0,0.0,0.0,0.0,0.0,0.0,0.0,0.0,0.0,0.0,0.0,0.0,0.0,0.0,0.0,0.0,0.0,0.0,0.0,0.0,0.0,0.0,0.0,0.0,0.0,0.0,0.0,0.0,0.0,0.0,0.0,0.0,0.0,0.0,0.0,0.0,0.0,0.0,0.0,0.0,0.0,0.0,0.0,0.0,0.0,0.0,0.0,0.0,0.0,0.0,0.0,0.0,0.0,0.0,0.0,0.0,0.0,0.0,0.0,0.0,0.0,-2.1939,-2.3228,-2.2942,-2.2348,0.0,0.0,0.0,0.0,0.0,0.0,0.0,0.0,0.0,0.0,0.0,0.0,0.0,0.0,0.0,0.0,0.0,0.0,0.0,0.0,0.0,0.0,0.0,0.0,0.0,0.0,0.0,0.0,0.0,0.0,0.0,0.0,0.0,0.0,0.0,0.0,0.0,0.0,0.0,0.0,0.0,0.0,0.0,0.0,0.0,0.0,0.0,0.0,0.0,0.0,0.0,0.0,0.0,0.0,0.0,0.0,0.0,0.0,0.0,0.0,0.0,0.0,0.0,0.0,0.0,0.0,0.0,0.0,0.0,0.0,0.0,0.0,0.0,0.0,0.0,0.0,0.0,0.0,0.0,0.0,0.0,0.0,0.0,0.0,0.0,0.0,0.0,0.0,0.0,0.0,0.0,0.0,0.0,0.0,0.0,0.0,0.0,0.0,0.0,0.0,0.0,0.0,0.0,0.0,0.0,0.0,0.0,0.0,0.0,0.0,-2.2833,-2.3659,-2.4829,-2.4062,-2.2903,-2.1612,0.0,0.0,0.0,0.0,0.0,0.0,0.0,0.0,0.0,0.0,0.0,0.0,0.0,0.0,0.0,0.0,0.0,0.0,0.0,0.0,0.0,0.0,0.0,0.0,0.0,0.0,0.0,0.0,0.0,0.0,0.0,0.0,0.0,0.0,0.0,0.0,0.0,0.0,0.0,0.0,0.0,0.0,0.0,0.0,0.0,0.0,0.0,0.0,0.0,0.0,0.0,0.0,0.0,0.0,0.0,0.0,0.0,0.0,0.0,0.0,0.0,0.0,0.0,0.0,0.0,0.0,0.0,0.0,0.0,0.0,0.0,0.0,0.0,0.0,0.0,0.0,0.0,0.0,0.0,0.0,0.0,0.0,0.0,0.0,0.0,0.0,0.0,0.0,0.0,0.0,0.0,0.0,0.0,0.0,0.0,0.0,0.0,0.0,0.0,0.0,0.0,0.0,0.0,0.0,0.0,0.0,0.0,0.0,-2.6571,-2.571,-2.6055,-2.7917,-2.583,-2.4034,0.0,0.0,0.0,0.0,0.0,0.0,0.0,0.0,0.0,0.0,0.0,0.0,0.0,0.0,0.0,0.0,0.0,0.0,0.0,0.0,0.0,0.0,0.0,0.0,0.0,0.0,0.0,0.0,0.0,0.0,0.0,0.0,0.0,0.0,0.0,0.0,0.0,0.0,0.0,0.0,0.0,0.0,0.0,0.0,0.0,0.0,0.0,0.0,0.0,0.0,0.0,0.0,0.0,0.0,0.0,0.0,0.0,0.0,0.0,0.0,0.0,0.0,0.0,0.0,0.0,0.0,0.0,0.0,0.0,0.0,0.0,0.0,0.0,0.0,0.0,0.0,0.0,0.0,0.0,0.0,0.0,0.0,0.0,0.0,0.0,0.0,0.0,0.0,0.0,0.0,0.0,0.0,0.0,0.0,0.0,0.0,0.0,0.0,0.0,0.0,0.0,0.0,0.0,0.0,0.0,0.0,0.0,0.0,0.0,-2.3317,-2.4425,-2.6068,-2.806,-2.636,-2.5039,0.0,0.0,0.0,0.0,0.0,0.0,0.0,0.0,0.0,0.0,0.0,0.0,0.0,0.0,0.0,0.0,0.0,0.0,0.0,0.0,0.0,0.0,0.0,0.0,0.0,0.0,0.0,0.0,0.0,0.0,0.0,0.0,0.0,0.0,0.0,0.0,0.0,0.0,0.0,0.0,0.0,0.0,0.0,0.0,0.0,0.0,0.0,0.0,0.0,0.0,0.0,0.0,0.0,0.0,0.0,0.0,0.0,0.0,0.0,0.0,0.0,0.0,0.0,0.0,0.0,0.0,0.0,0.0,0.0,0.0,0.0,0.0,0.0,0.0,0.0,0.0,0.0,0.0,0.0,0.0,0.0,0.0,0.0,0.0,0.0,0.0,0.0,0.0,0.0,0.0,0.0,0.0,0.0,0.0,0.0,0.0,0.0,0.0,0.0,0.0,0.0,0.0,0.0,0.0,0.0,0.0,0.0,0.0,0.0,-2.3605,0.0,-2.763,-2.87,-2.7362,-2.5903,0.0,0.0,0.0,0.0,0.0,0.0,0.0,0.0,0.0,0.0,0.0,0.0,0.0,0.0,0.0,0.0,0.0,0.0,0.0,0.0,0.0,0.0,0.0,0.0,0.0,0.0,0.0,0.0,0.0,0.0,0.0,0.0,0.0,0.0,0.0,0.0,0.0,0.0,0.0,0.0,0.0,0.0,0.0,0.0,0.0,0.0,0.0,0.0,0.0,0.0,0.0,0.0,0.0,0.0,0.0,0.0,0.0,0.0,0.0,0.0,0.0,0.0,0.0,0.0,0.0,0.0,0.0,0.0,0.0,0.0,0.0,0.0,0.0,0.0,0.0,0.0,0.0,0.0,0.0,0.0,0.0,0.0,0.0,0.0,0.0,0.0,0.0,0.0,0.0,0.0,0.0,0.0,0.0,0.0,0.0,0.0,0.0,0.0,0.0,0.0,0.0,0.0,0.0,0.0,0.0,0.0,0.0,0.0,-2.3673,-2.835,-3.0321,-3.0815,-3.0129,-2.8877,-2.657,0.0,0.0,0.0,0.0,0.0,0.0,0.0,0.0,0.0,0.0,0.0,0.0,0.0,0.0,0.0,0.0,0.0,0.0,0.0,0.0,0.0,0.0,0.0,0.0,0.0,0.0,0.0,0.0,0.0,0.0,0.0,0.0,0.0,0.0,0.0,0.0,0.0,0.0,0.0,0.0,0.0,0.0,0.0,0.0,0.0,0.0,0.0,0.0,0.0,0.0,0.0,0.0,0.0,0.0,0.0,0.0,0.0,0.0,0.0,0.0,0.0,0.0,0.0,0.0,0.0,0.0,0.0,0.0,0.0,0.0,0.0,0.0,0.0,0.0,0.0,0.0,0.0,0.0,0.0,0.0,0.0,0.0,0.0,0.0,0.0,0.0,0.0,0.0,0.0,0.0,0.0,0.0,0.0,0.0,0.0,0.0,0.0,0.0,0.0,0.0,0.0,0.0,0.0,0.0,0.0,0.0,0.0,0.0,0.0,-2.6211,-2.7969,-2.9662,-3.1081,-2.8647,-2.7229,0.0,0.0,0.0,0.0,0.0,0.0,0.0,0.0,0.0,0.0,0.0,0.0,0.0,0.0,0.0,0.0,0.0,0.0,0.0,0.0,0.0,0.0,0.0,0.0,0.0,0.0,0.0,0.0,0.0,0.0,0.0,0.0,0.0,0.0,0.0,0.0,0.0,0.0,0.0,0.0,0.0,0.0,0.0,0.0,0.0,0.0,0.0,0.0,0.0,0.0,0.0,0.0,0.0,0.0,0.0,0.0,0.0,0.0,0.0,0.0,0.0,0.0,0.0,0.0,0.0,0.0,0.0,0.0,0.0,0.0,0.0,0.0,0.0,0.0,0.0,0.0,0.0,0.0,0.0,0.0,0.0,0.0,0.0,0.0,0.0,0.0,0.0,0.0,0.0,0.0,0.0,0.0,0.0,0.0,0.0,0.0,0.0,0.0,0.0,0.0,0.0,0.0,0.0,0.0,0.0,0.0,0.0,0.0,0.0,-2.7497,-2.9028,-3.04,-3.1471,-2.9,-2.7779,-2.7915,0.0,0.0,0.0,0.0,0.0,0.0,0.0,0.0,0.0,0.0,0.0,0.0,0.0,0.0,0.0,0.0,0.0,0.0,0.0,0.0,0.0,0.0,0.0,0.0,0.0,0.0,0.0,0.0,0.0,0.0,0.0,0.0,0.0,0.0,0.0,0.0,0.0,0.0,0.0,0.0,0.0,0.0,0.0,0.0,0.0,0.0,0.0,0.0,0.0,0.0,0.0,0.0,0.0,0.0,0.0,0.0,0.0,0.0,0.0,0.0,0.0,0.0,0.0,0.0,0.0,0.0,0.0,0.0,0.0,0.0,0.0,0.0,0.0,0.0,0.0,0.0,0.0,0.0,0.0,0.0,0.0,0.0,0.0,0.0,0.0,0.0,0.0,0.0,0.0,0.0,0.0,0.0,0.0,0.0,0.0,0.0,0.0,0.0,0.0,0.0,0.0,0.0,0.0,0.0,0.0,0.0,0.0,0.0,-3.1349,-3.2879,-3.2869,-3.1374,-3.0013,-2.8302,0.0,0.0,0.0,0.0,0.0,0.0,0.0,0.0,0.0,0.0,0.0,0.0,0.0,0.0,0.0,0.0,0.0,0.0,0.0,0.0,0.0,0.0,0.0,0.0,0.0,0.0,0.0,0.0,0.0,0.0,0.0,0.0,0.0,0.0,0.0,0.0,0.0,0.0,0.0,0.0,0.0,0.0,0.0,0.0,0.0,0.0,0.0,0.0,0.0,0.0,0.0,0.0,0.0,0.0,0.0,0.0,0.0,0.0,0.0,0.0,0.0,0.0,0.0,0.0,0.0,0.0,0.0,0.0,0.0,0.0,0.0,0.0,0.0,0.0,0.0,0.0,0.0,0.0,0.0,0.0,0.0,0.0,0.0,0.0,0.0,0.0,0.0,0.0,0.0,0.0,0.0,0.0,0.0,0.0,0.0,0.0,0.0,0.0,0.0,0.0,0.0,0.0,0.0,0.0,0.0,0.0,0.0,0.0,0.0,-3.2125,-3.3745,-3.4551,-3.4404,-3.1416,-2.9674,0.0,0.0,0.0,0.0,0.0,0.0,0.0,0.0,0.0,0.0,0.0,0.0,0.0,0.0,0.0,0.0,0.0,0.0,0.0,0.0,0.0,0.0,0.0,0.0,0.0,0.0,0.0,0.0,0.0,0.0,0.0,0.0,0.0,0.0,0.0,0.0,0.0,0.0,0.0,0.0,0.0,0.0,0.0,0.0,0.0,0.0,0.0,0.0,0.0,0.0,0.0,0.0,0.0,0.0,0.0,0.0,0.0,0.0,0.0,0.0,0.0,0.0,0.0,0.0,0.0,0.0,0.0,0.0,0.0,0.0,0.0,0.0,0.0,0.0,0.0,0.0,0.0,0.0,0.0,0.0,0.0,0.0,0.0,0.0,0.0,0.0,0.0,0.0,0.0,0.0,0.0,0.0,0.0,0.0,0.0,0.0,0.0,0.0,0.0,0.0,0.0,0.0,0.0,0.0,0.0,0.0,0.0,0.0,-3.0419,-3.3155,-3.4417,-3.5292,-3.5831,-3.2685,-3.0668,0.0,0.0,0.0,0.0,0.0,0.0,0.0,0.0,0.0,0.0,0.0,0.0,0.0,0.0,0.0,0.0,0.0,0.0,0.0,0.0,0.0,0.0,0.0,0.0,0.0,0.0,0.0,0.0,0.0,0.0,0.0,0.0,0.0,0.0,0.0,0.0,0.0,0.0,0.0,0.0,0.0,0.0,0.0,0.0,0.0,0.0,0.0,0.0,0.0,0.0,0.0,0.0,0.0,0.0,0.0,0.0,0.0,0.0,0.0,0.0,0.0,0.0,0.0,0.0,0.0,0.0,0.0,0.0,0.0,0.0,0.0,0.0,0.0,0.0,0.0,0.0,0.0,0.0,0.0,0.0,0.0,0.0,0.0,0.0,0.0,0.0,0.0,0.0,0.0,0.0,0.0,0.0,0.0,0.0,0.0,0.0,0.0,0.0,0.0,0.0,0.0,0.0,0.0,0.0,0.0,0.0,0.0,0.0,-3.0976,-3.4158,-3.4927,-3.5583,-3.6093,-3.381,-3.1512,0.0,0.0,0.0,0.0,0.0,0.0,0.0,0.0,0.0,0.0,0.0,0.0,0.0,0.0,0.0,0.0,0.0,0.0,0.0,0.0,0.0,0.0,0.0,0.0,0.0,0.0,0.0,0.0,0.0,0.0,0.0,0.0,0.0,0.0,0.0,0.0,0.0,0.0,0.0,0.0,0.0,0.0,0.0,0.0,0.0,0.0,0.0,0.0,0.0,0.0,0.0,0.0,0.0,0.0,0.0,0.0,0.0,0.0,0.0,0.0,0.0,0.0,0.0,0.0,0.0,0.0,0.0,0.0,0.0,0.0,0.0,0.0,0.0,0.0,0.0,0.0,0.0,0.0,0.0,0.0,0.0,0.0,0.0,0.0,0.0,0.0,0.0,0.0,0.0,0.0,0.0,0.0,0.0,0.0,0.0,0.0,0.0,0.0,0.0,0.0,0.0,0.0,0.0,0.0,0.0,0.0,0.0,0.0,-3.1868,-3.4427,-3.5409,-3.6202,-3.6806,-3.4205,-3.2206,0.0,0.0,0.0,0.0,0.0,0.0,0.0,0.0,0.0,0.0,0.0,0.0,0.0,0.0,0.0,0.0,0.0,0.0,0.0,0.0,0.0,0.0,0.0,0.0,0.0,0.0,0.0,0.0,0.0,0.0,0.0,0.0,0.0,0.0,0.0,0.0,0.0,0.0,0.0,0.0,0.0,0.0,0.0,0.0,0.0,0.0,0.0,0.0,-2.6937,0.0,0.0,0.0,0.0,0.0,0.0,0.0,0.0,0.0,0.0,0.0,0.0,0.0,0.0,0.0,0.0,0.0,0.0,0.0,0.0,0.0,0.0,0.0,0.0,0.0,0.0,0.0,0.0,0.0,0.0,0.0,0.0,0.0,0.0,0.0,0.0,0.0,0.0,0.0,0.0,0.0,0.0,0.0,0.0,0.0,0.0,0.0,0.0,0.0,0.0,0.0,0.0,0.0,0.0,0.0,0.0,0.0,0.0,0.0,-3.2145,-3.3935,-3.4789,-3.5377,-3.563,-3.429,-3.2784,0.0,0.0,0.0,0.0,0.0,0.0,0.0,0.0,0.0,0.0,0.0,0.0,0.0,0.0,0.0,0.0,0.0,0.0,0.0,0.0,0.0,0.0,0.0,0.0,0.0,0.0,0.0,0.0,0.0,0.0,0.0,0.0,0.0,0.0,0.0,0.0,0.0,0.0,0.0,0.0,0.0,0.0,0.0,0.0,0.0,0.0,0.0,0.0,0.0,0.0,0.0,0.0,0.0,0.0,0.0,0.0,0.0,0.0,0.0,0.0,0.0,0.0,0.0,0.0,0.0,0.0,0.0,0.0,0.0,0.0,0.0,0.0,0.0,0.0,0.0,0.0,0.0,0.0,0.0,0.0,0.0,0.0,0.0,0.0,0.0,0.0,0.0,0.0,0.0,0.0,0.0,0.0,0.0,0.0,0.0,0.0,0.0,0.0,0.0,0.0,0.0,0.0,0.0,0.0,0.0,0.0,0.0,-3.0732,-3.2075,-3.3234,-3.388,-3.4245,-3.4329,-3.4245,-3.3213,-3.1146,0.0,0.0,0.0,0.0,0.0,0.0,0.0,0.0,0.0,0.0,0.0,0.0,0.0,0.0,0.0,0.0,0.0,0.0,0.0,0.0,0.0,0.0,0.0,0.0,0.0,0.0,0.0,0.0,0.0,0.0,0.0,0.0,0.0,0.0,0.0,0.0,0.0,0.0,-2.5784,-2.7828,0.0,0.0,0.0,0.0,0.0,0.0,0.0,0.0,-2.924,0.0,0.0,0.0,0.0,0.0,0.0,0.0,0.0,0.0,0.0,0.0,0.0,0.0,0.0,0.0,0.0,0.0,0.0,0.0,0.0,0.0,0.0,0.0,0.0,0.0,0.0,0.0,0.0,0.0,0.0,0.0,0.0,0.0,0.0,0.0,0.0,0.0,0.0,0.0,0.0,0.0,0.0,0.0,0.0,0.0,0.0,0.0,0.0,0.0,0.0,0.0,0.0,0.0,0.0,0.0,0.0,-2.9452,-3.0809,-3.2089,-3.3262,-3.388,-3.4441,-3.5006,-3.4469,-3.3333,-3.1503,0.0,0.0,0.0,0.0,0.0,0.0,0.0,0.0,0.0,0.0,0.0,0.0,0.0,0.0,0.0,0.0,0.0,0.0,0.0,0.0,0.0,0.0,0.0,0.0,0.0,0.0,0.0,0.0,0.0,0.0,0.0,0.0,0.0,0.0,0.0,0.0,0.0,0.0,0.0,-3.1088,-3.1754,0.0,0.0,0.0,0.0,0.0,0.0,0.0,0.0,-2.9217,0.0,0.0,0.0,0.0,0.0,0.0,0.0,0.0,0.0,0.0,0.0,0.0,0.0,0.0,0.0,0.0,0.0,0.0,0.0,0.0,0.0,0.0,0.0,0.0,0.0,0.0,0.0,0.0,0.0,0.0,0.0,0.0,0.0,0.0,0.0,0.0,0.0,0.0,0.0,0.0,0.0,0.0,0.0,0.0,0.0,0.0,0.0,0.0,0.0,0.0,0.0,0.0,0.0,0.0,0.0,-2.9131,-3.0983,-3.2089,-3.2384,-3.296,-3.3269,-3.329,-3.296,-3.223,0.0,0.0,0.0,0.0,0.0,0.0,0.0,0.0,0.0,0.0,0.0,0.0,0.0,0.0,0.0,0.0,0.0,0.0,0.0,0.0,0.0,0.0,0.0,0.0,0.0,0.0,0.0,0.0,0.0,0.0,0.0,0.0,0.0,0.0,0.0,0.0,0.0,0.0,0.0,0.0,-3.203,-3.2695,-3.3258,0.0,0.0,0.0,0.0,0.0,0.0,-2.9607,-2.9366,0.0,0.0,0.0,0.0,0.0,0.0,0.0,0.0,0.0,0.0,0.0,0.0,0.0,0.0,0.0,0.0,0.0,0.0,0.0,0.0,0.0,0.0,0.0,0.0,0.0,0.0,0.0,0.0,0.0,0.0,0.0,0.0,0.0,0.0,0.0,0.0,0.0,0.0,0.0,0.0,0.0,0.0,0.0,0.0,0.0,0.0,0.0,0.0,0.0,0.0,0.0,0.0,0.0,0.0,0.0,-2.8396,-3.076,-3.1794,-3.1345,-3.1893,-3.1991,-3.1546,-3.1485,-3.119,0.0,0.0,0.0,0.0,0.0,0.0,0.0,0.0,0.0,0.0,0.0,0.0,0.0,0.0,0.0,0.0,0.0,0.0,0.0,0.0,0.0,0.0,0.0,0.0,0.0,0.0,0.0,0.0,0.0,0.0,0.0,0.0,0.0,0.0,0.0,0.0,0.0,0.0,0.0,0.0,0.0,-3.3671,-3.4383,-3.405,0.0,0.0,0.0,0.0,-3.0388,-3.0572,0.0,0.0,0.0,0.0,0.0,0.0,0.0,0.0,0.0,0.0,0.0,0.0,0.0,0.0,0.0,0.0,0.0,0.0,0.0,0.0,0.0,0.0,0.0,0.0,0.0,0.0,0.0,0.0,0.0,0.0,0.0,0.0,0.0,0.0,0.0,0.0,0.0,0.0,0.0,0.0,0.0,0.0,0.0,0.0,0.0,0.0,0.0,0.0,0.0,0.0,0.0,0.0,0.0,0.0,0.0,0.0,-2.7212,-2.9505,-3.068,-3.067,-3.126,-3.1569,-3.1485,-3.1485,-3.119,0.0,0.0,0.0,0.0,0.0,0.0,0.0,0.0,0.0,0.0,0.0,0.0,0.0,0.0,0.0,0.0,0.0,0.0,0.0,0.0,0.0,0.0,0.0,0.0,0.0,0.0,0.0,0.0,0.0,0.0,0.0,0.0,0.0,0.0,0.0,0.0,0.0,0.0,0.0,0.0,0.0,-3.5761,-3.374,-3.4486,-3.4705,0.0,0.0,-3.2982,-3.3419,-3.4234,0.0,0.0,0.0,0.0,0.0,0.0,0.0,0.0,0.0,0.0,0.0,0.0,0.0,0.0,0.0,0.0,0.0,0.0,0.0,0.0,0.0,0.0,0.0,0.0,0.0,0.0,0.0,0.0,0.0,0.0,0.0,0.0,0.0,0.0,0.0,0.0,0.0,0.0,0.0,0.0,0.0,0.0,0.0,0.0,0.0,0.0,0.0,0.0,0.0,0.0,0.0,0.0,0.0,0.0,0.0,-2.6735,-2.7196,-2.9166,-3.0136,-3.0006,-3.0614,-3.0783,-3.0431,-3.0431,-3.0291,0.0,0.0,0.0,0.0,0.0,0.0,0.0,0.0,0.0,0.0,0.0,0.0,0.0,0.0,0.0,0.0,0.0,0.0,0.0,0.0,0.0,0.0,0.0,0.0,0.0,0.0,0.0,0.0,0.0,0.0,0.0,0.0,0.0,0.0,0.0,0.0,0.0,0.0,0.0,0.0,0.0,0.0,-3.5428,-3.5485,0.0,0.0,0.0,-3.335,-3.3556,0.0,0.0,0.0,0.0,0.0,0.0,0.0,0.0,0.0,0.0,0.0,0.0,0.0,0.0,0.0,0.0,0.0,0.0,0.0,0.0,0.0,0.0,0.0,0.0,0.0,0.0,0.0,0.0,0.0,0.0,0.0,0.0,0.0,0.0,0.0,0.0,0.0,0.0,0.0,0.0,0.0,0.0,0.0,0.0,0.0,0.0,0.0,0.0,0.0,0.0,0.0,0.0,0.0,0.0,0.0,0.0,0.0,-2.7214,-2.8885,-2.9725,-2.9613,-3.0175,-3.0273,-2.9855,-2.9687,0.0,0.0,0.0,0.0,0.0,0.0,0.0,0.0,0.0,0.0,0.0,0.0,0.0,0.0,0.0,0.0,0.0,0.0,0.0,0.0,0.0,0.0,0.0,0.0,0.0,0.0,0.0,-2.1443,0.0,0.0,0.0,0.0,0.0,0.0,0.0,0.0,0.0,0.0,0.0,0.0,0.0,0.0,-3.5382,-3.6507,-3.6438,-3.6369,0.0,0.0,-3.3993,-3.3866,-3.428,-3.366,0.0,0.0,0.0,0.0,0.0,0.0,0.0,0.0,0.0,0.0,0.0,0.0,0.0,0.0,0.0,0.0,0.0,0.0,0.0,0.0,0.0,0.0,0.0,0.0,0.0,0.0,0.0,0.0,0.0,0.0,0.0,0.0,0.0,0.0,0.0,0.0,0.0,0.0,0.0,0.0,0.0,0.0,0.0,0.0,0.0,0.0,0.0,0.0,0.0,0.0,0.0,0.0,0.0,0.0,0.0,-2.6952,-2.8357,-2.9228,-2.9596,-3.0175,-3.0469,-3.0427,-2.9897,-2.9602,0.0,0.0,0.0,0.0,0.0,0.0,0.0,0.0,0.0,0.0,0.0,0.0,0.0,0.0,0.0,0.0,0.0,0.0,0.0,0.0,0.0,0.0,0.0,0.0,0.0,0.0,0.0,0.0,0.0,0.0,0.0,0.0,0.0,0.0,0.0,0.0,0.0,0.0,0.0,0.0,0.0,-3.5508,-3.56,-3.7196,-3.8206,0.0,0.0,-3.591,-3.5439,-3.6943,-3.6587,-3.1754,0.0,0.0,0.0,0.0,0.0,0.0,0.0,0.0,0.0,0.0,0.0,0.0,0.0,0.0,0.0,0.0,0.0,0.0,0.0,0.0,0.0,0.0,0.0,0.0,0.0,0.0,0.0,0.0,0.0,0.0,0.0,0.0,0.0,0.0,0.0,0.0,0.0,0.0,0.0,0.0,0.0,0.0,0.0,0.0,0.0,0.0,0.0,0.0,0.0,0.0,0.0,0.0,0.0,-2.5217,-2.5628,-2.6782,-2.7803,-2.8599,-2.9306,-2.9671,-2.9651,-2.9244,-2.8803,0.0,0.0,0.0,0.0,0.0,0.0,0.0,0.0,0.0,0.0,0.0,0.0,0.0,0.0,0.0,0.0,0.0,0.0,0.0,0.0,0.0,0.0,0.0,0.0,0.0,0.0,0.0,0.0,-2.28,-2.2524,-2.2398,0.0,0.0,0.0,0.0,0.0,0.0,0.0,0.0,0.0,0.0,-3.4819,-3.5375,-3.6461,0.0,0.0,-3.6668,-3.5674,-3.5346,-3.5352,-3.417,-3.086,-2.9722,0.0,0.0,0.0,0.0,0.0,0.0,0.0,0.0,0.0,0.0,0.0,0.0,0.0,0.0,0.0,0.0,0.0,0.0,0.0,0.0,0.0,0.0,0.0,0.0,0.0,0.0,0.0,0.0,0.0,0.0,0.0,0.0,0.0,0.0,0.0,0.0,0.0,0.0,0.0,0.0,0.0,0.0,0.0,0.0,0.0,0.0,0.0,0.0,0.0,0.0,0.0,0.0,-2.446,-2.5016,-2.5881,-2.6908,-2.795,-2.8731,-2.9125,-2.9144,-2.8924,-2.8392,0.0,0.0,0.0,0.0,0.0,0.0,0.0,0.0,0.0,0.0,0.0,0.0,0.0,0.0,0.0,0.0,0.0,0.0,0.0,0.0,0.0,0.0,0.0,0.0,0.0,0.0,0.0,0.0,-2.3591,-2.327,-2.2949,0.0,0.0,0.0,0.0,0.0,0.0,0.0,0.0,0.0,0.0,-3.4555,-3.5405,-3.5728,-3.602,-3.6429,-3.4992,-3.3781,-3.3388,-3.2955,-3.1871,-2.9316,0.0,0.0,0.0,0.0,0.0,0.0,0.0,0.0,0.0,0.0,0.0,0.0,0.0,0.0,0.0,0.0,0.0,0.0,0.0,0.0,0.0,0.0,0.0,0.0,0.0,0.0,0.0,0.0,0.0,0.0,-2.3373,0.0,0.0,0.0,0.0,0.0,0.0,0.0,0.0,0.0,0.0,0.0,0.0,0.0,0.0,0.0,0.0,0.0,0.0,0.0,0.0,0.0,0.0,-2.4597,-2.5448,-2.5952,-2.6802,-2.785,-2.8562,-2.8954,-2.9112,-2.9108,-2.8573,-2.7458,0.0,0.0,0.0,0.0,0.0,0.0,0.0,0.0,0.0,0.0,0.0,0.0,0.0,0.0,0.0,0.0,0.0,0.0,0.0,0.0,0.0,0.0,0.0,0.0,0.0,0.0,-2.4751,-2.398,-2.3419,0.0,0.0,0.0,0.0,0.0,0.0,0.0,0.0,0.0,0.0,-3.2856,-3.4946,-3.5363,-3.5096,-3.4516,-3.3623,-3.174,-3.0077,-2.9323,-3.0402,-3.0349,0.0,0.0,0.0,0.0,0.0,0.0,0.0,0.0,0.0,0.0,0.0,0.0,0.0,0.0,0.0,0.0,0.0,0.0,0.0,0.0,0.0,0.0,0.0,0.0,0.0,0.0,0.0,-2.6098,-2.5906,0.0,0.0,0.0,0.0,0.0,0.0,0.0,0.0,0.0,0.0,0.0,-2.5948,-2.64,0.0,0.0,0.0,0.0,0.0,0.0,0.0,0.0,0.0,0.0,0.0,0.0,-2.3991,-2.4637,-2.5118,-2.5796,-2.6599,-2.7052,-2.7296,-2.7261,-2.713,-2.6332,-2.4808,0.0,0.0,0.0,0.0,0.0,0.0,0.0,0.0,0.0,0.0,0.0,0.0,0.0,0.0,0.0,0.0,0.0,0.0,0.0,0.0,0.0,0.0,0.0,0.0,0.0,-2.4556,0.0,0.0,0.0,0.0,0.0,0.0,0.0,0.0,0.0,0.0,0.0,-2.9022,-3.0549,-3.2512,-3.3578,-3.2971,-3.3367,-3.3388,0.0,0.0,0.0,0.0,0.0,0.0,0.0,0.0,0.0,0.0,0.0,0.0,0.0,0.0,-2.7948,-2.6025,-2.4903,-2.4016,-2.3344,0.0,0.0,0.0,0.0,0.0,0.0,0.0,0.0,0.0,0.0,0.0,0.0,0.0,0.0,0.0,0.0,-2.6651,0.0,0.0,0.0,0.0,0.0,0.0,0.0,0.0,-2.5653,-2.6059,-2.5947,-2.6339,-2.6452,0.0,-2.5871,-2.506,0.0,0.0,0.0,0.0,0.0,0.0,0.0,0.0,-2.3648,-2.4189,-2.451,-2.5024,-2.5675,-2.5801,-2.5887,-2.605,-2.5745,-2.5038,-2.3954,-2.3627,-2.3439,0.0,0.0,0.0,0.0,0.0,0.0,0.0,0.0,0.0,0.0,0.0,0.0,0.0,0.0,0.0,0.0,0.0,0.0,0.0,0.0,0.0,0.0,0.0,-2.4431,0.0,0.0,0.0,0.0,0.0,0.0,0.0,0.0,0.0,-2.7265,-2.7998,-2.8873,-3.012,-3.1406,-3.1913,-3.1114,0.0,0.0,0.0,0.0,0.0,0.0,0.0,-2.799,-2.7011,-2.6385,-2.6063,-2.6367,-2.7335,-2.7807,-2.7151,0.0,0.0,-2.6525,-2.5646,-2.495,-2.4231,-2.3719,-2.3392,-2.3331,-2.3228,-2.3186,0.0,0.0,0.0,0.0,0.0,0.0,0.0,0.0,-2.9518,-2.9149,0.0,-2.7999,0.0,0.0,0.0,0.0,0.0,0.0,0.0,0.0,-2.493,-2.5218,-2.499,-2.4507,-2.4888,-2.5979,-2.5608,-2.5272,-2.4968,-2.359,0.0,0.0,0.0,0.0,0.0,0.0,-2.3671,-2.4175,-2.4246,-2.4515,-2.5161,-2.4757,-2.4843,-2.5507,-2.5048,-2.4766,-2.4731,-2.4249,-2.3755,-2.3216,-2.3696,0.0,0.0,0.0,0.0,0.0,0.0,0.0,0.0,0.0,0.0,0.0,0.0,0.0,0.0,0.0,0.0,0.0,0.0,0.0,0.0,-2.364,0.0,0.0,0.0,0.0,0.0,0.0,0.0,0.0,0.0,0.0,-2.6172,-2.7216,-2.8087,-2.8941,0.0,0.0,0.0,0.0,-2.7689,-2.7309,-2.6589,-2.6006,-2.5684,-2.681,-2.7113,-2.5314,0.0,0.0,-2.4924,-2.6571,-2.763,-2.6495,-2.723,-2.8232,-2.8756,-2.7718,-2.6842,-2.6746,-2.5591,-2.4864,-2.4778,-2.4393,-2.4133,-3.139,0.0,0.0,0.0,0.0,-3.0239,-3.0939,-3.2119,-3.0502,-2.9556,-2.8871,-2.6894,0.0,0.0,0.0,0.0,0.0,0.0,-2.3175,-2.3405,-2.3992,-2.4371,-2.4669,-2.4765,-2.4871,-2.4938,-2.4485,-2.436,-2.4421,-2.3369,-2.2835,-2.2856,0.0,0.0,0.0,0.0,-2.381,-2.4322,-2.4557,-2.4774,-2.4975,-2.4515,-2.4378,-2.4601,-2.4451,-2.4184,-2.3826,-2.3999,-2.3883,-2.3387,-2.3502,0.0,0.0,0.0,0.0,0.0,0.0,0.0,0.0,0.0,0.0,0.0,0.0,0.0,0.0,0.0,0.0,0.0,0.0,0.0,-2.2808,-2.2193,-2.2146,0.0,0.0,0.0,0.0,0.0,0.0,0.0,0.0,0.0,-2.5767,-2.7236,-2.8487,0.0,0.0,-2.9547,-2.8346,-2.814,-2.7898,-2.7313,0.0,0.0,0.0,-2.6304,-2.6167,-2.5942,-2.6496,-2.6714,-2.5987,-2.6455,-2.6665,-2.5782,-2.6137,-2.6466,-2.6128,-2.64,-2.6296,-2.5608,-2.5288,-2.5112,-2.4872,-2.4718,-2.4509,-3.3912,-3.3407,-3.1938,-3.1593,-3.203,-3.1949,-3.2274,-3.2835,-3.1179,-2.9891,-2.8901,-2.682,-2.5057,-2.3563,-2.2857,0.0,0.0,0.0,-2.2454,-2.2629,-2.2926,-2.3121,-2.3272,-2.3519,-2.3572,-2.3458,-2.3168,-2.3199,-2.3496,-2.2901,-2.2492,-2.2247,0.0,0.0,-2.2513,-2.308,-2.3527,-2.3842,-2.4179,-2.4403,-2.4365,-2.4265,-2.4097,-2.3902,-2.4097,-2.4051,-2.3728,-2.4028,-2.4062,-2.3728,-2.3705,-2.3705,0.0,0.0,0.0,0.0,0.0,0.0,0.0,0.0,0.0,0.0,0.0,-2.3001,-2.3001,0.0,0.0,0.0,-2.2074,-2.2265,-2.2372,-2.1812,0.0,0.0,0.0,0.0,0.0,0.0,0.0,-2.4401,-2.424,-2.43,-2.4941,-2.6225,-2.7318,-2.7955,-2.8018,-2.7685,-2.6874,0.0,-2.6823,-2.6433,-2.6709,-2.6811,-2.6617,-2.6356,-2.6057,-2.5922,-2.5747,-2.5639,-2.5367,-2.5336,-2.5146,-2.4675,-2.4667,-2.4629,-2.423,-2.462,-2.5046,-2.504,-2.5215,-2.5241,-2.4889,-2.4361,-2.3769,-3.5534,-3.5683,-3.2889,-3.2108,-3.2662,-3.3024,-3.2831,-3.221,-3.1259,-3.0004,-2.8634,-2.7214,-2.5858,-2.453,-2.3373,0.0,-2.2217,-2.2227,-2.2067,-2.1768,-2.1768,-2.1593,-2.1311,-2.1319,-2.147,-2.1768,-2.1768,-2.198,-2.2325,-2.2268,-2.1906,-2.1265,-2.233,-2.2871,-2.2836,-2.2852,-2.2927,-2.2975,-2.3346,-2.3567,-2.3593,-2.397,-2.3946,-2.3499,-2.3887,-2.408,-2.408,-2.4043,-2.4007,-2.4007,-2.4007,-2.4007,-2.4007,0.0,0.0,0.0,0.0,0.0,0.0,0.0,0.0,0.0,0.0,0.0,0.0,0.0,0.0,0.0,-2.1283,0.0,-2.2134,-2.205,0.0,0.0,0.0,-2.3325,-2.3456,-2.3044,-2.2869,-2.3355,0.0,0.0,-2.3792,0.0,-2.527,-2.6025,-2.5572,-2.5289,-2.5626,-2.5449,-2.518,-2.5296,-2.5804,-2.6204,-2.6162,-2.6285,-2.6078,-2.5258,-2.4291,-2.3718,-2.3735,-2.3692,-2.3468,-2.3143,-2.3057,-2.3006,-2.2894,-2.2656,-2.2963,-2.4416,-2.4923,-2.4984,-2.4425,-2.3335,-2.2245,-3.3018,-3.2781,-3.1692,-3.2209,-3.3573,-3.2544,-3.1901,-3.1241,-2.9289,-2.7926,-2.7031,-2.4891,-2.3166,-2.1819,-2.1547,-2.1149,-2.0817,-2.0817,-2.0734,-2.0694,-2.0694,-2.0646,-2.0557,-2.0557,-2.0597,-2.0657,-2.0694,-2.0995,-2.1606,-2.1313,-2.1179,-2.1224,-2.1194,-2.1243,-2.1415,-2.17,-2.209,-2.2553,-2.2927,-2.3298,-2.3593,-2.3677,-2.3841,-2.398,-2.3537,-2.3298,-2.3298,-2.2681,-2.2371,-2.236,-2.2371,-2.236,-2.236,-2.2362,0.0,0.0,0.0,0.0,0.0,0.0,0.0,0.0,0.0,-2.174,-2.1128,0.0,-2.1317,0.0,-2.0538,-2.0907,-2.1449,-2.1487,0.0,0.0,-2.2259,-2.2407,-2.2453,-2.2142,-2.2058,-2.2445,-2.2545,-2.2758,-2.3134,-2.3705,-2.4093,-2.4291,-2.5035,-2.5581,-2.567,-2.5608,-2.5466,-2.5161,-2.5281,-2.5346,-2.5107,-2.4737,-2.4395,-2.4125,-2.341,-2.2963,-2.3194,-2.3049,-2.2748,-2.2372,-2.2501,-2.2181,-2.0974,-2.1054,-2.1108,-2.0841,-2.1955,-2.2978,-2.2133,-2.1433,-2.0719,-3.1561,-3.1213,-3.0696,-3.0771,-3.1207,-3.1196,-3.0727,-2.9769,-2.8103,-2.6727,-2.5515,-2.3465,-2.1928,-2.0938,-2.0921,-2.0706,-2.03,-2.0292,-2.0292,-2.0292,-2.0292,-2.0292,-2.0292,-2.0292,-2.0292,-2.0283,-2.0121,-2.0267,-2.0598,-2.028,-2.0088,-2.0029,-1.9834,-1.9808,-2.0069,-2.0537,-2.1106,-2.1711,-2.1842,-2.2086,-2.2462,-2.2585,-2.282,-2.3239,-2.2633,-2.236,-2.2453,-2.1916,-2.1587,-2.1561,-2.169,-2.1794,-2.1783,-2.1593,-2.1374,0.0,0.0,0.0,0.0,0.0,0.0,0.0,0.0,0.0,0.0,0.0,-2.1053,-2.0714,-2.0805,-2.1192,-2.2031,-2.1888,-2.1808,-2.1969,-2.2009,-2.1935,-2.1595,-2.1564,-2.1608,-2.1808,-2.1882,-2.2132,-2.2726,-2.3057,-2.3358,-2.3639,-2.4355,-2.4832,-2.4778,-2.4787,-2.4708,-2.4525,-2.4494,-2.4395,-2.4068,-2.3539,-2.3177,-2.292,-2.2424,-2.2115,-2.2312,-2.2184,-2.1927,-2.161,-2.1719,-2.1582,-2.0535,-2.0095,-1.9818,-1.9499,-1.9679,-2.0164,-2.0183,-1.9588,-1.8795,-3.0197,-2.9744,-2.9228,-2.8289,-2.7325,-2.892,-2.8967,-2.7815,-2.6952,-2.5628,-2.3991,-2.2574,-2.1533,-2.0929,-2.0921,-2.0668,-2.03,-2.0292,-2.0292,-2.0292,-2.0292,-2.0292,-2.0292,-2.0292,-2.0275,-2.0206,-1.9853,-1.9674,-1.9614,-1.9281,-1.893,-1.8588,-1.8545,-1.8684,-1.9011,-1.9441,-2.0021,-2.0741,-2.0518,-2.0644,-2.1108,-2.1221,-2.1538,-2.198,-2.1448,-2.1241,-2.1434,-2.1145,-2.0911,-2.0802,-2.1216,-2.1423,-2.1413,-2.0847,-2.045,0.0,-2.0158,0.0,0.0,0.0,0.0,0.0,0.0,0.0,0.0,-2.0876,-2.0805,-2.1616,-2.15,-2.1768,-2.2906,-2.2566,-2.2183,-2.1878,-2.1936,-2.1722,-2.1054,-2.1182,-2.1345,-2.1336,-2.1345,-2.161,-2.2242,-2.2457,-2.2791,-2.3229,-2.3401,-2.3487,-2.3443,-2.3606,-2.3735,-2.3545,-2.3485,-2.3297,-2.298,-2.2603,-2.2354,-2.197,-2.1567,-2.1293,-2.1379,-2.1168,-2.0967,-2.0649,-2.0458,-2.0292,-2.0275,-1.9158,-1.852,-1.846,-1.7709,-1.7402,-1.82,-1.7845,-1.6938,-2.6656,-2.5996,-2.5478,-2.4966,-2.4508,-2.4836,-2.496,-2.4922,-2.4211,-2.3322,-2.2423,-2.177,-2.1285,-2.0938,-2.0921,-2.0715,-2.0292,-2.0292,-2.0292,-2.0292,-2.0292,-2.0292,-2.0292,-2.0292,-2.0129,-1.9811,-1.9725,-1.9546,-1.9281,-1.8879,-1.8656,-1.8579,-1.8288,-1.8432,-1.8962,0.0,0.0,0.0,-2.0051,-2.038,-2.1045,-2.0801,-2.1014,-2.1696,-2.0419,0.0,-1.9751,-1.9087,-1.8731,-1.8715,-1.9238,0.0,0.0,0.0,0.0,0.0,0.0,0.0,0.0,0.0,0.0,0.0,-2.0494,-2.0522,-2.0473,-2.0429,-2.0775,-2.1542,-2.1577,-2.1784,-2.2381,-2.2371,-2.2198,-2.1999,-2.1993,-2.1816,-2.1371,-2.1114,-2.0977,-2.0977,-2.0977,-2.1028,-2.1281,-2.1713,-2.2021,-2.1961,-2.2115,-2.2167,-2.191,-2.2886,-2.3297,-2.2544,-2.2372,-2.2192,-2.179,-2.1687,-2.1636,-2.1456,-2.0942,-2.0677,-2.0798,-1.9997,-1.9336,-1.9192,-1.8512,-1.7774,-1.7022,-1.6534,-1.6285,-1.5456,-1.5089,-1.5191,-1.6156,-1.6244,-1.582,-2.5111,0.0,-2.4084,-2.3734,0.0,-2.34,-2.3391,-2.3374,-2.2997,-2.2312,-2.1439,-2.1234,-2.0942,-2.0591,-2.0591,-2.0489,-2.0292,-2.0292,-2.0201,-1.9965,-1.9965,-1.9965,-1.992,-1.9509,-1.9379,-1.9381,-1.8785,-1.8425,-1.8269,-1.8087,-1.7986,-1.8027,-1.8004,-1.8152,-1.8482,-1.8152,-1.8313,-1.8966,-1.8966,-1.9145,-1.9577,-1.9503,-1.9771,-2.0316,0.0,0.0,0.0,0.0,0.0,0.0,0.0,0.0,0.0,0.0,0.0,-1.9424,-2.0158,-2.0376,-1.9871,-2.0165,-2.0377,-2.0386,-2.0519,-2.0536,-2.0613,-2.0642,-2.0962,-2.1538,-2.1507,-2.1558,-2.2014,-2.1938,-2.1772,-2.1521,-2.1448,-2.1285,-2.0917,-2.0703,-2.06,-2.0591,-2.0583,-2.066,-2.0865,-2.1182,-2.1439,-2.1422,-2.1576,-2.1567,-2.1311,-2.1944,-2.2295,-2.1799,-2.1704,-2.1576,-2.1242,-2.1148,-2.1062,-2.0857,-2.0117,-1.9699,-1.984,-1.8868,-1.8048,-1.8041,-1.7623,-1.7102,-1.664,-1.6177,-1.5609,-1.514,-1.4621,-1.4436,-1.4949,-1.5051,-1.4956,-2.4201,-2.3521,-2.3521,-2.334,-2.3014,-2.3014,-2.2758,-2.2397,0.0,0.0,0.0,-2.0712,-2.0499,-2.0155,-2.0065,-2.0019,-2.0011,-2.0019,-1.9837,-1.9463,-1.9463,-1.9463,-1.9446,-1.8635,-1.8495,-1.8814,-1.7814,-1.7249,-1.7185,-1.7244,-1.727,-1.731,-1.7568,-1.7736,-1.7825,-1.7917,-1.7991,-1.7991,-1.7991,-1.8034,-1.8085,-1.8227,-1.8509,-1.8941,-1.8479,-1.8338,-1.8454,-1.832,-1.8149,-1.7999,-1.8439,-1.8687,-1.8726,-1.9041,-1.923,-1.9388,-1.998,-2.0227,-1.992,-2.051,-2.073,-2.0422,-2.0516,-2.069,-2.0907,-2.0907,-2.1029,-2.1435,-2.1284,-2.1292,-2.1704,-2.1548,-2.1268,-2.0917,-2.0921,-2.0737,-2.0369,-2.0292,-2.0309,-2.0292,-2.0309,-2.0412,-2.072,-2.0895,-2.0942,-2.1156,-2.1251,-2.1182,-2.09,-2.1054,-2.1311,-2.1319,-2.1242,-2.1088,-2.0865,-2.0771,-2.0597,-2.0066,-1.9333,-1.8796,-1.8465,-1.7716,-1.7109,-1.7055,-1.6915,-1.668,-1.664,-1.5988,-1.5561,-1.5514,-1.4908,-1.4298,-1.4298,-1.4298,-1.4346,-2.3109,-2.2748,-2.2757,-2.2723,-2.2671,-2.268,-2.2276,-2.1576,-2.1567,-2.1311,-2.0857,-2.01,-1.9741,-1.9683,-1.9234,-1.9012,-1.9012,-1.9012,-1.8966,0.0,-1.892,-1.892,-1.8896,-1.8507,-1.8189,-1.7965,-1.7523,-1.713,-1.6826,-1.6795,-1.6779,-1.678,-1.6549,-1.6675,-1.7065,-1.7677,-1.7991,-1.7991,-1.7991,-1.8145,-1.8494,-1.8243,-1.8275,-1.8592,-1.8006,-1.7605,-1.767,-1.7652,-1.7605,-1.7592,-1.8113,-1.8591,-1.8874,-1.9059,-1.9426,-1.9904,-2.007,-2.0165,-2.0193,-2.0322,-2.0357,-2.0314,-2.0348,-2.0473,-2.0699,-2.0518,-2.0583,-2.0916,-2.095,-2.1067,-2.1401,-2.1379,-2.1225,-2.0925,-2.0912,-2.072,-2.0343,-2.0292,-2.0292,-2.0292,-2.0292,-2.03,-2.0412,-2.066,-2.0746,-2.0591,-2.078,-2.0823,-2.0523,-2.0412,-2.0591,-2.0814,-2.066,-2.0454,-2.0337,-2.0377,-1.9987,-1.9134,-1.8842,-1.8319,-1.7623,-1.6659,-1.6062,-1.6035,-1.5399,-1.4937,-1.4854,-1.4627,-1.4567,-1.4609,-1.4358,-1.4268,-1.425,-1.4244,-1.4268,-2.2757,-2.2611,-2.2603,-2.2392,-2.2072,-2.1619,-2.1081,-2.0579,-2.0373,-2.0282,-2.0134,-1.9445,-1.9188,-1.9142,-1.892,-1.8781,-1.8781,-1.8781,-1.8643,-1.8411,-1.8404,-1.8411,-1.8357,-1.7643,-1.7305,-1.7347,-1.663,-1.619,-1.5997,-1.606,-1.6137,-1.6106,-1.6016,-1.6162,-1.6605,-1.7102,-1.7493,-1.7732,-1.7897,-1.8076,-1.828,-1.8085,-1.8076,-1.828,-1.7937,-1.7783,-1.7775,-1.7783,-1.7775,-1.7783,-1.8017,-1.8238,-1.8411,-1.8724,-1.8993,-1.9264,-1.9488,-1.9635,-1.9667,-1.9881,-2.0078,-2.0266,-2.0292,-2.0329,-2.0473,-2.0382,-2.0369,-2.054,-2.0557,-2.0626,-2.078,-2.0805,-2.0737,-2.0583,-2.0557,-2.0489,-2.0335,-2.0292,-2.0292,-2.0292,-2.0292,-2.0292,-2.0292,-2.0446,-2.0514,-2.0335,-2.0472,-2.048,-2.0309,-2.0292,-2.0352,-2.0506,-2.0403,-2.0073,-1.9637,-1.9492,-1.9072,-1.8133,-1.7529,-1.7063,-1.6485,-1.5557,-1.4946,-1.4959,-1.4469,-1.4207,-1.425,-1.4298,-1.4244,-1.4105,-1.4087,-1.4045,-1.393,-1.387,-1.3876,-2.2249,-2.219,-2.2241,-2.1887,-2.1332,-2.0704,-2.0146,-1.9781,-1.9407,-1.9239,-1.9212,-1.8819,-1.8643,-1.8643,-1.8496,-1.8458,-1.845,-1.845,-1.8265,-1.7939,-1.7871,-1.7833,-1.7719,-1.6751,-1.6477,-1.6679,-1.5856,-1.5389,-1.5436,-1.5427,-1.538,-1.5291,-1.5592,-1.5838,-1.6027,-1.6618,-1.7077,-1.7454,-1.7806,-1.7991,-1.7991,-1.7991,-1.7991,-1.7991,-1.7991,-1.7991,-1.7991,-1.7991,-1.7991,-1.7991,-1.7991,-1.8034,-1.8128,-1.8434,-1.8622,-1.8725,-1.8999,-1.9179,-1.9196,-1.9444,-1.9735,-2.0009,-2.0121,-2.0172,-2.0163,-2.0172,-2.0206,-2.0275,-2.0309,-2.0309,-2.0326,-2.0317,-2.0292,-2.0292,-2.0292,-2.03,-2.0292,-2.0292,-2.0292,-2.0292,-2.0232,-2.018,-2.0257,-2.0215,-2.0198,-2.0275,-2.0292,-2.0246,-2.0056,-1.9957,-1.9911,-1.9729,-1.982,-1.9683,-1.8934,-1.8557,-1.8041,-1.7102,-1.6405,-1.5846,-1.5416,-1.4484,-1.4036,-1.4104,-1.3995,-1.39,-1.4069,-1.4099,-1.4014,-1.3857,-1.3815,-1.3755,-1.361,-1.3489,-1.3441,-2.107,-2.107,-2.107,-2.0828,-2.0506,-2.0392,-1.9995,-1.9384,-1.8876,-1.8494,-1.8241,-1.8179,-1.8179,-1.8087,-1.7707,-1.7473,-1.7512,-1.7466,-1.7412,-1.7328,-1.7125,-1.7038,-1.6941,-1.6257,-1.5957,-1.6007,-1.5584,-1.536,-1.5345,-1.5087,-1.4687,-1.4316,-1.5122,-1.5457,-1.5358,-1.6329,-1.7027,-1.7415,-1.7772,-1.7991,-1.7991,-1.7991,-1.7991,-1.7991,-1.7991,-1.7991,-1.7974,-1.7991,-1.7991,-1.7991,-1.7991,-1.8136,-1.8468,-1.8554,-1.8733,-1.905,-1.9127,-1.9179,-1.917,-1.9204,-1.9247,-1.9333,-1.9615,-1.9751,-1.9751,-1.9751,-1.9896,-2.0163,-2.0266,-2.0232,-2.0283,-2.0266,-2.0249,-2.024,-2.0257,-2.0292,-2.0257,-2.0292,-2.0292,-2.0292,-1.9958,-1.9862,-2.0112,-1.9966,-1.9924,-2.0138,-2.0056,-1.9785,-1.9141,-1.8867,-1.8593,-1.808,-1.8303,-1.8756,-1.8518,-1.7994,-1.7066,-1.6149,-1.588,-1.5295,-1.4518,-1.4074,-1.3863,-1.3725,-1.3598,-1.3586,-1.3616,-1.3586,-1.361,-1.3574,-1.3538,-1.3519,-1.3483,-1.327,-1.3181,-2.0925,-2.0925,-2.0925,-2.0515,-1.9911,-1.917,-1.8689,-1.8432,-1.8038,-1.7732,-1.7621,-1.7613,-1.7613,-1.7613,-1.7372,-1.7286,-1.7271,-1.7143,-1.681,-1.6465,-1.6538,-1.6393,-1.6029,-1.5959,-1.5913,-1.5819,-1.5352,-1.5097,-1.5046,-1.4816,-1.434,-1.3844,-1.4348,-1.4591,-1.4568,-1.5185,-1.5742,-1.611,-1.6702,-1.7114,-1.7389,-1.78,-1.7889,-1.7749,-1.788,-1.788,-1.7757,-1.788,-1.7937,-1.774,-1.7912,-1.7854,-1.7612,-1.8014,-1.8237,-1.8194,-1.8382,-1.8596,-1.8802,-1.8819,-1.893,-1.9153,-1.9316,-1.941,-1.941,-1.9401,-1.9478,-1.9598,-1.9632,-1.9676,-1.9702,-1.9829,-1.9966,-1.993,-1.9922,-1.9922,-1.9966,-1.9769,-1.9632,-1.9615,-1.9504,-1.9444,-1.9573,-1.9504,-1.947,-1.9519,-1.922,-1.8661,-1.8221,-1.7767,-1.7318,-1.6921,-1.6733,-1.6593,-1.6745,-1.6635,-1.5865,-1.4921,-1.4568,-1.4334,-1.3921,-1.3519,-1.3435,-1.3438,-1.3375,-1.3363,-1.3519,-1.3495,-1.3483,-1.3357,-1.3109,-1.3037,-1.3037,-1.2952,-1.2886,-2.0454,-2.0447,-2.0361,-1.9755,-1.8766,-1.7867,-1.7325,-1.7026,-1.6815,-1.6709,-1.6716,-1.6709,-1.6666,-1.6649,-1.7048,-1.7095,-1.6607,-1.6586,-1.6155,-1.5459,-1.5627,-1.5443,-1.5018,-1.5101,-1.5219,-1.5134,-1.4627,-1.4446,-1.4528,-1.4413,-1.4067,-1.3755,-1.391,-1.4052,-1.4109,-1.4424,-1.4802,-1.5211,-1.5821,-1.6302,-1.6651,-1.7223,-1.7519,-1.7501,-1.7629,-1.7595,-1.7346,-1.7547,-1.7612,-1.7346,-1.7586,-1.7453,-1.6957,-1.7496,-1.78,-1.7663,-1.7775,-1.804,-1.8408,-1.8434,-1.8562,-1.8828,-1.8939,-1.9007,-1.9059,-1.9059,-1.9059,-1.9016,-1.8922,-1.8922,-1.9196,-1.9418,-1.9573,-1.9546,-1.9546,-1.9493,-1.9205,-1.8961,-1.8792,-1.881,-1.8665,-1.8667,-1.8683,-1.8716,-1.8722,-1.8376,-1.7866,-1.726,-1.7033,-1.6455,-1.6013,-1.5725,-1.5033,-1.4888,-1.5178,-1.514,-1.4581,-1.4047,-1.3747,-1.3792,-1.3471,-1.3236,-1.3061,-1.3169,-1.3079,-1.3055,-1.3133,-1.3212,-1.3266,-1.3055,-1.2862,-1.2735,-1.2777,-1.2711,-1.2711,-1.9376,-1.9317,-1.9037,-1.8139,-1.6836,-1.6794,-1.6189,-1.5436,-1.5296,-1.5242,-1.5289,-1.5289,-1.5094,-1.4981,-1.6474,-1.636,-1.5107,-1.5541,-1.5288,-1.4411,-1.4178,-1.4005,-1.3942,-1.3636,-1.3551,-1.3721,-1.3417,-1.3326,-1.3636,-1.3823,-1.3943,-1.3959,-1.3959,-1.3989,-1.4043,-1.4343,-1.4751,-1.4996,-1.5472,-1.5789,-1.5851,-1.622,-1.6715,-1.7269,-1.712,-1.6966,-1.6915,-1.6932,-1.6932,-1.6906,-1.6957,-1.6923,-1.6935,-1.7261,-1.7603,-1.7877,-1.7672,-1.7672,-1.7957,-1.8002,-1.8027,-1.8079,-1.8319,-1.8572,-1.848,-1.8489,-1.8489,-1.8572,-1.8184,-1.826,-1.8803,-1.8956,-1.9015,-1.9015,-1.911,-1.8705,-1.7956,-1.7765,-1.7853,-1.7725,-1.7496,-1.7301,-1.7357,-1.7669,-1.7404,-1.6913,-1.6616,-1.6243,-1.5494,-1.5137,-1.4685,-1.4065,-1.3769,-1.3902,-1.4674,-1.4494,-1.3884,-1.3447,-1.3387,-1.3441,-1.3272,-1.3059,-1.2927,-1.2868,-1.2825,-1.2789,-1.2753,-1.2765,-1.2813,-1.2759,-1.2771,-1.2705,-1.2705,-1.2705,-1.2705,-1.865,-1.857,-1.7796,-1.7134,-1.6635,-1.5956,-1.5434,-1.5105,-1.5105,-1.5105,-1.5105,-1.5105,-1.471,-1.4046,-1.5113,-1.5292,-1.4705,-1.4643,-1.4231,-1.3642,-1.358,-1.3372,-1.2967,-1.3223,-1.3398,-1.3328,-1.2915,-1.2659,-1.2674,-1.3052,-1.338,-1.3609,-1.361,-1.3757,-1.3944,-1.3918,-1.3955,-1.4119,-1.4505,-1.4783,-1.5045,-1.5125,-1.5478,-1.6007,-1.6358,-1.6413,-1.6196,-1.6397,-1.6422,-1.6196,-1.6631,-1.6696,-1.6302,-1.6542,-1.6918,-1.7239,-1.7133,-1.7085,-1.7236,-1.7211,-1.7139,-1.7188,-1.7286,-1.7417,-1.7367,-1.7367,-1.7285,-1.7046,-1.6884,-1.6873,-1.6881,-1.7464,-1.7728,-1.72,-1.7106,-1.697,-1.645,-1.6168,-1.5954,-1.5797,-1.5644,-1.566,-1.5855,-1.5962,-1.5948,-1.5779,-1.5262,-1.4799,-1.4412,-1.3937,-1.3455,-1.3131,-1.3,-1.3082,-1.338,-1.3639,-1.3453,-1.3194,-1.3067,-1.3073,-1.297,-1.2904,-1.2789,-1.2789,-1.2711,-1.2705,-1.2723,-1.2717,-1.2705,-1.2705,-1.2705,-1.2705,-1.2705,-1.2705,-1.2705,-1.7485,-1.7316,-1.6626,-1.6102,-1.5699,-1.5038,-1.458,-1.4388,-1.434,-1.434,-1.4334,-1.4334,-1.3909,-1.3373,-1.3713,-1.3946,-1.3932,-1.367,-1.3244,-1.2738,-1.2742,-1.2503,-1.2198,-1.2497,-1.2717,-1.265,-1.2252,-1.197,-1.1992,-1.2227,-1.2582,-1.3094,-1.296,-1.2991,-1.317,-1.3035,-1.2966,-1.3229,-1.3477,-1.3821,-1.4207,-1.4369,-1.4563,-1.4864,-1.5325,-1.5527,-1.541,-1.563,-1.5654,-1.5512,-1.5897,-1.6003,-1.5677,-1.5691,-1.5975,-1.6442,-1.6371,-1.6405,-1.6561,-1.6485,-1.6492,-1.6657,-1.6586,-1.6514,-1.6404,-1.6345,-1.6139,-1.5801,-1.5711,-1.553,-1.5085,-1.5597,-1.6012,-1.5735,-1.5648,-1.5418,-1.5,-1.4665,-1.4421,-1.4349,-1.458,-1.4599,-1.4446,-1.4464,-1.4384,-1.4323,-1.371,-1.349,-1.3365,-1.3074,-1.2705,-1.2705,-1.2741,-1.2753,-1.2906,-1.3112,-1.3157,-1.294,-1.288,-1.2837,-1.2807,-1.2735,-1.2705,-1.2705,-1.2705,-1.2705,-1.2705,-1.2705,-1.2705,-1.2705,-1.2705,-1.2705,-1.2705,-1.2705,-1.2705,-1.5855,-1.5624,-1.5458,-1.4959,-1.4184,-1.3962,-1.3474,-1.305,-1.2953,-1.305,-1.3098,-1.2905,-1.2774,-1.2499,-1.2598,-1.2456,-1.2604,-1.2761,-1.2464,-1.1915,-1.1625,-1.1456,-1.1392,-1.1478,-1.1499,-1.1477,-1.118,-1.1312,-1.164,-1.1516,-1.1754,-1.2332,-1.2088,-1.1999,-1.1807,-1.1989,-1.2109,-1.2597,-1.2774,-1.2987,-1.3463,-1.3928,-1.4109,-1.4124,-1.4198,-1.4315,-1.4557,-1.4617,-1.4684,-1.4653,-1.4689,-1.4816,-1.5093,-1.4948,-1.4995,-1.5594,-1.5439,-1.5569,-1.6023,-1.5857,-1.5889,-1.6209,-1.6244,-1.5776,-1.5617,-1.5579,-1.533,-1.4873,-1.4782,-1.4525,-1.366,-1.3722,-1.4227,-1.5085,-1.4864,-1.4407,-1.3824,-1.3427,-1.3291,-1.3309,-1.3769,-1.4087,-1.3567,-1.3259,-1.3061,-1.2559,-1.2384,-1.2478,-1.2543,-1.2577,-1.2656,-1.2656,-1.262,-1.2602,-1.265,-1.2705,-1.2723,-1.2717,-1.2735,-1.2735,-1.2741,-1.2705,-1.2705,-1.2705,-1.2705,-1.2705,-1.2705,-1.2705,-1.2705,-1.2705,-1.2705,-1.2705,-1.2705,-1.2705,-1.2705,-1.5309,-1.5137,-1.4606,-1.422,-1.3859,-1.3383,-1.3001,-1.2813,-1.2807,-1.2807,-1.2716,-1.2419,-1.2293,-1.231,-1.2036,-1.2036,-1.2371,-1.2157,-1.2003,-1.1916,-1.1688,-1.1445,-1.1332,-1.1311,-1.1219,-1.1144,-1.116,-1.1191,-1.1208,-1.123,-1.1682,-1.22,-1.2002,-1.2098,-1.2382,-1.2202,-1.2296,-1.2774,-1.2695,-1.29,-1.3455,-1.3637,-1.3674,-1.3674,-1.3702,-1.3557,-1.3288,-1.3876,-1.4245,-1.4238,-1.4461,-1.466,-1.4716,-1.466,-1.4752,-1.4906,-1.4805,-1.4794,-1.4904,-1.4578,-1.4439,-1.4624,-1.434,-1.4173,-1.4295,-1.4349,-1.4168,-1.3837,-1.3844,-1.3523,-1.287,-1.2678,-1.2874,-1.2982,-1.2925,-1.279,-1.2386,-1.2016,-1.1809,-1.1822,-1.2037,-1.212,-1.2099,-1.2072,-1.2062,-1.1939,-1.194,-1.2,-1.2083,-1.227,-1.233,-1.2216,-1.2306,-1.2433,-1.2433,-1.2463,-1.2506,-1.2602,-1.2668,-1.2699,-1.2705,-1.2705,-1.2705,-1.2705,-1.2705,-1.2705,-1.2705,-1.2705,-1.2705,-1.2705,-1.2705,-1.2705,-1.2705,-1.2705,-1.2705,-1.3655,-1.3559,-1.313,-1.2888,-1.284,-1.2414,-1.2175,-1.2175,-1.2219,-1.2322,-1.237,-1.1932,-1.191,-1.2081,-1.1677,-1.1624,-1.1934,-1.1848,-1.1799,-1.1812,-1.1659,-1.145,-1.1321,-1.1311,-1.1182,-1.1047,-1.1139,-1.1133,-1.0993,-1.1047,-1.1334,-1.1736,-1.1591,-1.1571,-1.2027,-1.1994,-1.2118,-1.2343,-1.2634,-1.2901,-1.3141,-1.3382,-1.3492,-1.3492,-1.3492,-1.3309,-1.301,-1.3557,-1.3768,-1.3659,-1.3949,-1.4093,-1.3912,-1.384,-1.376,-1.3543,-1.3491,-1.347,-1.3554,-1.3157,-1.31,-1.3346,-1.3101,-1.2886,-1.3098,-1.3176,-1.3129,-1.2577,-1.2703,-1.2623,-1.2054,-1.1976,-1.1856,-1.1648,-1.176,-1.1642,-1.1375,-1.122,-1.1135,-1.1185,-1.121,-1.1208,-1.1279,-1.1339,-1.1431,-1.1555,-1.1676,-1.1736,-1.179,-1.1958,-1.1934,-1.1974,-1.2077,-1.2155,-1.2127,-1.2181,-1.2288,-1.2457,-1.2626,-1.2668,-1.2705,-1.2705,-1.2705,-1.2705,-1.2705,-1.2705,-1.2705,-1.2705,-1.2705,-1.2705,-1.2705,-1.2705,-1.2705,-1.2705,-1.2705,-1.1243,-1.1194,-1.1243,-1.134,-1.134,-1.1292,-1.134,-1.1243,-1.1214,-1.1546,-1.1745,-1.1308,-1.141,-1.1721,-1.1255,-1.1124,-1.1249,-1.1679,-1.1691,-1.1451,-1.1379,-1.1364,-1.1321,-1.1311,-1.1198,-1.1069,-1.1047,-1.1036,-1.1036,-1.0907,-1.0748,-1.1109,-1.0968,-1.0702,-1.1007,-1.1353,-1.1585,-1.1648,-1.2389,-1.2698,-1.2624,-1.3046,-1.3302,-1.3266,-1.3266,-1.32,-1.301,-1.3083,-1.3046,-1.2826,-1.3266,-1.3266,-1.2783,-1.2599,-1.2482,-1.204,-1.1787,-1.2034,-1.2087,-1.1979,-1.2069,-1.2734,-1.2463,-1.2333,-1.2194,-1.2428,-1.2296,-1.1508,-1.1805,-1.1851,-1.1473,-1.1483,-1.1423,-1.1226,-1.1339,-1.1333,-1.1172,-1.1117,-1.1117,-1.1117,-1.1117,-1.1123,-1.111,-1.1116,-1.1172,-1.1218,-1.1381,-1.1453,-1.1579,-1.1724,-1.1814,-1.182,-1.1817,-1.1844,-1.1862,-1.1868,-1.1958,-1.221,-1.2409,-1.2524,-1.2656,-1.2693,-1.2699,-1.2705,-1.2705,-1.2705,-1.2705,-1.2705,-1.2705,-1.2705,-1.2705,-1.2705,-1.2705,-1.2705,-1.2705,-1.1194,-1.1194,-1.1194,-1.1194,-1.1194,-1.1194,-1.1189,-1.1175,-1.1019,-1.101,-1.1025,-1.0518,-1.0575,-1.0984,-1.0523,-1.0484,-1.091,-1.1335,-1.1501,-1.138,-1.1529,-1.1466,-1.1337,-1.1311,-1.1278,-1.1203,-1.1187,-1.1214,-1.1209,-1.1123,-1.1128,-1.1203,-1.1128,-1.1102,-1.1186,-1.1175,-1.14,-1.163,-1.1633,-1.1947,-1.2182,-1.2206,-1.215,-1.2187,-1.2187,-1.2009,-1.1595,-1.1521,-1.215,-1.3163,-1.2936,-1.2783,-1.2562,-1.2519,-1.2224,-1.1706,-1.1639,-1.1695,-1.1671,-1.1315,-1.1336,-1.1754,-1.1514,-1.13,-1.1698,-1.1826,-1.1793,-1.163,-1.1831,-1.177,-1.1483,-1.1444,-1.1345,-1.1178,-1.1202,-1.1176,-1.1141,-1.1117,-1.1117,-1.1117,-1.1117,-1.1117,-1.1117,-1.1123,-1.1178,-1.1273,-1.1279,-1.1304,-1.1449,-1.1483,-1.1573,-1.1441,-1.1411,-1.1525,-1.1591,-1.1591,-1.1688,-1.1904,-1.2131,-1.2294,-1.2487,-1.2674,-1.2687,-1.2705,-1.2705,-1.2705,-1.2705,-1.2705,-1.2705,-1.2705,-1.2705,-1.2705,-1.2705,-1.2705,-1.2705,-1.056,-1.0556,-1.0556,-1.0507,-1.0498,-1.0467,-1.0431,-1.0395,-1.0226,-1.0279,-1.0298,-0.9848,-0.9884,-1.0306,-0.9795,-0.9802,-1.0265,-1.0622,-1.0811,-1.1028,-1.1337,-1.1434,-1.1332,-1.1311,-1.1311,-1.1311,-1.1311,-1.1305,-1.1305,-1.1311,-1.1311,-1.13,-1.1311,-1.1311,-1.1322,-1.1555,-1.1537,-1.1592,-1.1598,-1.1819,-1.1723,-1.1734,-1.1726,-1.1706,-1.1706,-1.1484,-1.1186,-1.0962,-1.1446,-1.2378,-1.2415,-1.2114,-1.1892,-1.1855,-1.1558,-1.1005,-1.0962,-1.0925,-1.0911,-1.068,-1.0733,-1.092,-1.0683,-1.0835,-1.1144,-1.1334,-1.1537,-1.1396,-1.1612,-1.1567,-1.1381,-1.1315,-1.1242,-1.1148,-1.1117,-1.1117,-1.1117,-1.1117,-1.1117,-1.1117,-1.1117,-1.1117,-1.1117,-1.1117,-1.119,-1.123,-1.1164,-1.1232,-1.1304,-1.1297,-1.1309,-1.1224,-1.1176,-1.1291,-1.1351,-1.1351,-1.1441,-1.1691,-1.188,-1.2071,-1.2312,-1.2566,-1.2632,-1.265,-1.2681,-1.2705,-1.2705,-1.2705,-1.2705,-1.2705,-1.2705,-1.2705,-1.2705,-1.2705,-1.2705,-0.9624,-0.9624,-0.9624,-0.9624,-0.9649,-0.9486,-0.9516,-0.9371,-0.9294,-0.9389,-0.9608,-0.9279,-0.9309,-0.9734,-0.9296,-0.9175,-0.9451,-0.9907,-1.0315,-1.0726,-1.1097,-1.1321,-1.1321,-1.1311,-1.1311,-1.1311,-1.1311,-1.1311,-1.1311,-1.1311,-1.1311,-1.1311,-1.1311,-1.1311,-1.1392,-1.1875,-1.1756,-1.1311,-1.1647,-1.1615,-1.1239,-1.1218,-1.1267,-1.126,-1.1298,-1.1335,-1.1186,-1.0962,-1.0962,-1.1484,-1.1558,-1.1372,-1.0925,-1.085,-1.055,-1.0186,-1.0073,-1.003,-0.9997,-1.0242,-1.0338,-1.0435,-1.0592,-1.0632,-1.0835,-1.1101,-1.1225,-1.1029,-1.1238,-1.1309,-1.122,-1.1135,-1.1135,-1.1117,-1.1117,-1.1117,-1.1117,-1.1117,-1.1117,-1.1117,-1.1117,-1.1117,-1.1117,-1.1117,-1.1135,-1.1291,-1.1206,-1.122,-1.1244,-1.1218,-1.12,-1.1166,-1.1135,-1.1129,-1.1148,-1.1148,-1.128,-1.1449,-1.1703,-1.1868,-1.2097,-1.2355,-1.2493,-1.2578,-1.2662,-1.2705,-1.2705,-1.2705,-1.2693,-1.2705,-1.2705,-1.2705,-1.2705,-1.2705,-1.2705,-0.9624,-0.9624,-0.9624,-0.9624,-0.96,-0.9437,-0.94,-0.9363,-0.9015,-0.8922,-0.8989,-0.8792,-0.8792,-0.8917,-0.8816,-0.889,-0.9269,-0.9749,-1.0297,-1.111,-1.1211,-1.1289,-1.1311,-1.1311,-1.1311,-1.1311,-1.1311,-1.1316,-1.1316,-1.1321,-1.1316,-1.1321,-1.1321,-1.1311,-1.1354,-1.1467,-1.1395,-1.1071,-1.1072,-1.0913,-1.0595,-1.0427,-1.0406,-1.0406,-1.0368,-1.0331,-1.0288,-1.0143,-1.018,-1.0368,-1.07,-1.0887,-1.0775,-1.0738,-1.0481,-1.0073,-0.9895,-0.9895,-0.9938,-1.018,-1.0379,-1.0536,-1.0721,-1.0893,-1.1084,-1.1128,-1.1171,-1.1077,-1.1134,-1.119,-1.1129,-1.1117,-1.1117,-1.1117,-1.1117,-1.1117,-1.1117,-1.1117,-1.1117,-1.1117,-1.1117,-1.1117,-1.1117,-1.1117,-1.1184,-1.1303,-1.1323,-1.125,-1.1214,-1.1158,-1.1122,-1.1117,-1.1117,-1.1117,-1.1117,-1.1117,-1.1178,-1.1268,-1.1473,-1.1769,-1.1964,-1.2157,-1.2355,-1.2524,-1.2687,-1.2693,-1.265,-1.2656,-1.2638,-1.2668,-1.2687,-1.2681,-1.2674,-1.2681,-1.2705,-0.9624,-0.9624,-0.9624,-0.9579,-0.9478,-0.9311,-0.9233,-0.9064,-0.8824,-0.8702,-0.8686,-0.8601,-0.8616,-0.8616,-0.8624,-0.8861,-0.9412,-1.0063,-1.0548,-1.0969,-1.113,-1.1278,-1.1311,-1.1311,-1.1311,-1.1311,-1.1311,-1.1354,-1.1423,-1.137,-1.137,-1.145,-1.137,-1.1316,-1.1311,-1.13,-1.1219,-1.0988,-1.0751,-1.0485,-1.0293,-1.0018,-0.9884,-0.9884,-0.9884,-0.9884,-0.9916,-0.9922,-0.9884,-0.9992,-1.0218,-1.0368,-1.0368,-1.0363,-1.0218,-1.0003,-1.0051,-1.0089,-1.0159,-1.0401,-1.0627,-1.0597,-1.0887,-1.1007,-1.109,-1.1132,-1.1183,-1.1121,-1.1117,-1.1117,-1.1117,-1.1117,-1.1117,-1.1117,-1.1117,-1.1117,-1.1117,-1.1117,-1.1117,-1.1117,-1.1117,-1.1117,-1.1117,-1.1117,-1.1129,-1.1238,-1.1238,-1.1172,-1.1166,-1.1148,-1.1141,-1.1117,-1.1117,-1.1117,-1.1117,-1.1117,-1.1117,-1.1172,-1.1244,-1.1582,-1.1896,-1.2036,-1.2205,-1.2463,-1.2699,-1.2578,-1.2542,-1.256,-1.2554,-1.2499,-1.2506,-1.2578,-1.265,-1.2687,-1.2705,-0.9559,-0.9587,-0.9583,-0.9494,-0.9388,-0.9177,-0.9031,-0.8869,-0.8649,-0.8633,-0.8616,-0.8616,-0.8616,-0.8616,-0.8616,-0.8928,-0.9503,-1.0267,-1.0622,-1.0627,-1.1104,-1.1273,-1.1311,-1.1311,-1.1311,-1.1311,-1.1311,-1.1413,-1.1466,-1.1429,-1.1386,-1.1569,-1.1413,-1.1316,-1.1311,-1.1246,-1.1102,-1.0896,-1.0678,-1.0479,-1.0342,-1.0137,-1.0045,-0.997,-1.0013,-0.9932,-0.99,-0.9884,-0.9884,-0.9884,-0.9884,-0.9906,-0.997,-0.9927,-0.9884,-0.9933,-1.0132,-1.0239,-1.0331,-1.0643,-1.0905,-1.0702,-1.1095,-1.1217,-1.1152,-1.1175,-1.1198,-1.1151,-1.1117,-1.1117,-1.1117,-1.1117,-1.1117,-1.1117,-1.1117,-1.1117,-1.1117,-1.1117,-1.1117,-1.1117,-1.1117,-1.1117,-1.1117,-1.1117,-1.1117,-1.1117,-1.1117,-1.1117,-1.1117,-1.1117,-1.1117,-1.1117,-1.1117,-1.1117,-1.1117,-1.1123,-1.1123,-1.1232,-1.1226,-1.1516,-1.182,-1.2071,-1.2288,-1.2536,-1.2668,-1.2554,-1.2493,-1.2518,-1.2475,-1.2355,-1.2421,-1.259,-1.2662,-1.2699,-1.2705,-0.9267,-0.9445,-0.9449,-0.9429,-0.9375,-0.9169,-0.906,-0.8999,-0.8735,-0.8616,-0.8616,-0.8616,-0.8616,-0.8616,-0.8616,-0.8755,-0.9172,-0.9952,-1.0394,-1.0445,-1.096,-1.1267,-1.1311,-1.1311,-1.1311,-1.1311,-1.1311,-1.1348,-1.1391,-1.1327,-1.1364,-1.1364,-1.1337,-1.1311,-1.1252,-1.1155,-1.0925,-1.0726,-1.0597,-1.0442,-1.0353,-1.039,-1.0335,-1.025,-1.0229,-1.0126,-0.997,-0.9895,-0.9884,-0.9884,-0.9884,-0.9986,-1.0105,-0.9981,-0.9927,-0.9991,-1.0196,-1.0342,-1.0433,-1.0781,-1.1053,-1.1189,-1.1441,-1.1546,-1.1508,-1.1459,-1.136,-1.117,-1.1117,-1.1117,-1.1117,-1.1117,-1.1117,-1.1117,-1.1117,-1.1117,-1.1117,-1.1117,-1.1135,-1.1172,-1.1148,-1.1117,-1.1117,-1.1117,-1.1117,-1.1117,-1.1117,-1.1117,-1.1117,-1.1117,-1.1117,-1.1117,-1.1117,-1.1117,-1.1117,-1.1129,-1.1166,-1.1333,-1.1423,-1.1603,-1.1898,-1.2143,-1.2367,-1.259,-1.2638,-1.2542,-1.2506,-1.2487,-1.2439,-1.2349,-1.2481,-1.2632,-1.2674,-1.2705,-1.2705,-0.9149,-0.9222,-0.9269,-0.9165,-0.9076,-0.8995,-0.8901,-0.8808,-0.8686,-0.8616,-0.8616,-0.8616,-0.8616,-0.8616,-0.8616,-0.8754,-0.9243,-0.9965,-1.0367,-1.0548,-1.1011,-1.1311,-1.1305,-1.1305,-1.1311,-1.1311,-1.1311,-1.1375,-1.1461,-1.1359,-1.137,-1.1445,-1.1386,-1.1311,-1.1257,-1.1117,-1.0869,-1.063,-1.0485,-1.0417,-1.0336,-1.053,-1.0512,-1.0463,-1.0455,-1.0302,-1.0164,-1.011,-1.0046,-0.9916,-0.9884,-0.9954,-1.0029,-1.0143,-1.0169,-1.0283,-1.0406,-1.0536,-1.07,-1.1066,-1.142,-1.1516,-1.1795,-1.1932,-1.1858,-1.1718,-1.1507,-1.1244,-1.1117,-1.1117,-1.1117,-1.1129,-1.1117,-1.1117,-1.1123,-1.1129,-1.1123,-1.1123,-1.1208,-1.128,-1.122,-1.1178,-1.1117,-1.1117,-1.1117,-1.1117,-1.1129,-1.1135,-1.1148,-1.1117,-1.1117,-1.1148,-1.1166,-1.1202,-1.1184,-1.116,-1.1196,-1.1363,-1.1543,-1.1718,-1.1856,-1.2006,-1.2337,-1.2626,-1.2602,-1.2439,-1.2433,-1.2349,-1.2367,-1.2361,-1.2439,-1.253,-1.2644,-1.2705,-1.2705,-0.9011,-0.9043,-0.9039,-0.8958,-0.8787,-0.8775,-0.8755,-0.8673,-0.8633,-0.8616,-0.8616,-0.8616,-0.8616,-0.8612,-0.8744,-0.8964,-0.9388,-1.0173,-1.0526,-1.0641,-1.1021,-1.1236,-1.1295,-1.1257,-1.1246,-1.1311,-1.1316,-1.1402,-1.1466,-1.1386,-1.1429,-1.145,-1.1364,-1.1311,-1.1262,-1.1036,-1.079,-1.0597,-1.0417,-1.032,-1.0466,-1.0608,-1.0672,-1.0603,-1.0592,-1.0453,-1.0196,-1.0153,-1.0073,-0.9965,-0.9895,-0.9938,-1.0034,-1.0213,-1.0444,-1.0743,-1.0729,-1.0821,-1.1086,-1.14,-1.1697,-1.1858,-1.218,-1.2216,-1.2082,-1.1842,-1.1655,-1.1347,-1.122,-1.1274,-1.1329,-1.1206,-1.122,-1.1214,-1.122,-1.1214,-1.1256,-1.1323,-1.1467,-1.1461,-1.1341,-1.1347,-1.1395,-1.1407,-1.1467,-1.1395,-1.1407,-1.1298,-1.1286,-1.1141,-1.1129,-1.1184,-1.1194,-1.1292,-1.1274,-1.1196,-1.125,-1.1333,-1.1483,-1.1633,-1.1742,-1.1844,-1.221,-1.2493,-1.2349,-1.2216,-1.2252,-1.2349,-1.2397,-1.2415,-1.2391,-1.2463,-1.2632,-1.2705,-1.2747,-0.8714,-0.8807,-0.8803,-0.8836,-0.8767,-0.8763,-0.8804,-0.8759,-0.8621,-0.8616,-0.8616,-0.8616,-0.8616,-0.8656,-0.9003,-0.9218,-0.9519,-1.0033,-1.0506,-1.0616,-1.0884,-1.1113,-1.1246,-1.1112,-1.1252,-1.1321,-1.1343,-1.1316,-1.1429,-1.1396,-1.1337,-1.138,-1.1391,-1.1321,-1.1316,-1.0955,-1.0635,-1.056,-1.0412,-1.0471,-1.0816,-1.1026,-1.0925,-1.0721,-1.0592,-1.0466,-1.0132,-1.0062,-0.9992,-0.9906,-0.9884,-1.0093,-1.0394,-1.0369,-1.0814,-1.1149,-1.1259,-1.1044,-1.1288,-1.1603,-1.1909,-1.2155,-1.2363,-1.2349,-1.217,-1.1852,-1.1657,-1.186,-1.1555,-1.1447,-1.154,-1.1501,-1.1459,-1.1387,-1.1359,-1.1351,-1.1387,-1.1291,-1.1498,-1.1727,-1.1636,-1.1757,-1.1848,-1.1842,-1.179,-1.1706,-1.1615,-1.1546,-1.1431,-1.1342,-1.1339,-1.1456,-1.1345,-1.1388,-1.1411,-1.1332,-1.1226,-1.1335,-1.1489,-1.1648,-1.1781,-1.1874,-1.1976,-1.2157,-1.2101,-1.218,-1.2343,-1.2445,-1.2481,-1.2499,-1.2547,-1.2614,-1.2674,-1.2747,-1.2881,-0.7365,-0.7503,-0.7905,-0.8038,-0.8127,-0.8496,-0.8678,-0.8662,-0.8601,-0.8616,-0.8616,-0.8616,-0.8616,-0.8656,-0.8828,-0.9047,-0.9305,-0.9733,-1.0207,-1.0549,-1.0754,-1.0973,-1.1219,-1.1225,-1.1278,-1.1478,-1.1564,-1.1666,-1.1655,-1.1563,-1.1504,-1.1504,-1.1548,-1.152,-1.1483,-1.0934,-1.0662,-1.0533,-1.0415,-1.0476,-1.0762,-1.0988,-1.1042,-1.0842,-1.081,-1.0541,-1.0234,-1.0132,-1.0046,-0.9938,-0.9884,-1.0034,-1.0408,-1.0601,-1.0958,-1.133,-1.1575,-1.1617,-1.1725,-1.1932,-1.218,-1.2326,-1.2473,-1.2499,-1.2265,-1.1964,-1.1663,-1.1639,-1.1411,-1.1363,-1.1473,-1.1359,-1.1285,-1.1273,-1.1425,-1.1413,-1.1381,-1.1345,-1.1437,-1.1657,-1.1962,-1.2124,-1.2237,-1.2158,-1.2063,-1.191,-1.1866,-1.1821,-1.1739,-1.1644,-1.171,-1.1813,-1.1689,-1.1558,-1.152,-1.1488,-1.1241,-1.1318,-1.1615,-1.1769,-1.1878,-1.1992,-1.206,-1.2181,-1.2294,-1.2391,-1.2499,-1.2554,-1.259,-1.2656,-1.2759,-1.2753,-1.2747,-1.3052,-1.3179,-0.5828,-0.5983,-0.6832,-0.7192,-0.7215,-0.7852,-0.8176,-0.8281,-0.8291,-0.8432,-0.8572,-0.8616,-0.8616,-0.8656,-0.8784,-0.9087,-0.9519,-0.948,-0.9907,-1.0371,-1.0595,-1.0758,-1.0988,-1.1139,-1.1386,-1.1704,-1.1666,-1.1785,-1.1964,-1.1946,-1.1871,-1.1795,-1.1785,-1.179,-1.1618,-1.1155,-1.0764,-1.0474,-1.0525,-1.0536,-1.0595,-1.0783,-1.0826,-1.0805,-1.0767,-1.0622,-1.0283,-1.0272,-1.0164,-0.9976,-1.0171,-1.0384,-1.0592,-1.0956,-1.1336,-1.1654,-1.1929,-1.2083,-1.2169,-1.2277,-1.2406,-1.2491,-1.2571,-1.2584,-1.2451,-1.2174,-1.194,-1.1796,-1.1525,-1.1413,-1.131,-1.1317,-1.1315,-1.1363,-1.1425,-1.1383,-1.1419,-1.1594,-1.1879,-1.2264,-1.2531,-1.258,-1.2593,-1.2476,-1.232,-1.2143,-1.2077,-1.2085,-1.2046,-1.1965,-1.2026,-1.2125,-1.1834,-1.1677,-1.1639,-1.1557,-1.1346,-1.1326,-1.1624,-1.1814,-1.1938,-1.2071,-1.2157,-1.2277,-1.2451,-1.2506,-1.256,-1.2632,-1.2699,-1.2723,-1.2753,-1.2772,-1.2875,-1.3179,-1.344,-0.4395,-0.4559,-0.5857,-0.6351,-0.6312,-0.6599,-0.705,-0.7497,-0.7622,-0.8005,-0.8416,-0.856,-0.85,-0.8688,-0.899,-0.9393,-0.9951,-0.9951,-1.0207,-1.0398,-1.0469,-1.0514,-1.0807,-1.108,-1.1295,-1.1671,-1.1758,-1.1881,-1.2116,-1.2301,-1.2183,-1.21,-1.2094,-1.2078,-1.1905,-1.1472,-1.0849,-1.0616,-1.0595,-1.0595,-1.0519,-1.0512,-1.0589,-1.0428,-1.0353,-1.0223,-0.9986,-1.0169,-1.0213,-0.9992,-1.0444,-1.0805,-1.0956,-1.1327,-1.1719,-1.2059,-1.2273,-1.2412,-1.2497,-1.2497,-1.2491,-1.2619,-1.2699,-1.2687,-1.2602,-1.2409,-1.2229,-1.2097,-1.1772,-1.1712,-1.1663,-1.1639,-1.1501,-1.1597,-1.1673,-1.1733,-1.1848,-1.2101,-1.2395,-1.2861,-1.3001,-1.2884,-1.3024,-1.29,-1.2785,-1.2652,-1.2601,-1.2609,-1.2418,-1.236,-1.2349,-1.2312,-1.1967,-1.1784,-1.1757,-1.1644,-1.1501,-1.1473,-1.1636,-1.179,-1.1916,-1.2067,-1.2319,-1.2439,-1.256,-1.259,-1.2614,-1.2668,-1.2705,-1.2705,-1.2747,-1.2833,-1.296,-1.3222,-1.344,-0.4167,-0.4143,-0.4775,-0.5218,-0.5616,-0.6231,-0.6577,-0.6708,-0.682,-0.7187,-0.7754,-0.7829,-0.8088,-0.8422,-0.8746,-0.9305,-0.9825,-0.9349,-0.9999,-1.0458,-1.0537,-1.0537,-1.0816,-1.1176,-1.1462,-1.1822,-1.1975,-1.2191,-1.2543,-1.2613,-1.2618,-1.2521,-1.2381,-1.2285,-1.2097,-1.1704,-1.1059,-1.0635,-1.0557,-1.0487,-1.0595,-1.0512,-1.0525,-1.032,-1.0471,-1.0277,-1.004,-1.018,-1.0191,-1.0339,-1.0772,-1.1046,-1.1273,-1.1651,-1.2032,-1.2364,-1.2485,-1.2619,-1.2662,-1.2619,-1.2619,-1.2662,-1.2705,-1.2705,-1.2687,-1.2469,-1.2343,-1.2145,-1.1922,-1.179,-1.1832,-1.1663,-1.1561,-1.1784,-1.1928,-1.2035,-1.2214,-1.2426,-1.2685,-1.2993,-1.301,-1.2948,-1.3138,-1.3324,-1.3233,-1.3129,-1.3119,-1.3057,-1.2909,-1.2726,-1.2674,-1.2538,-1.2226,-1.1934,-1.1891,-1.1802,-1.1695,-1.1676,-1.1691,-1.1936,-1.2142,-1.2379,-1.259,-1.2638,-1.2638,-1.265,-1.2668,-1.2687,-1.2705,-1.2705,-1.2833,-1.3009,-1.3137,-1.327,-1.344,-0.4073,-0.3993,-0.4103,-0.4386,-0.4869,-0.5509,-0.5848,-0.5961,-0.6054,-0.6399,-0.6919,-0.7045,-0.7431,-0.7924,-0.8186,-0.8825,-0.9323,-0.9174,-0.9742,-1.0125,-1.0381,-1.0512,-1.0994,-1.1438,-1.1693,-1.21,-1.2229,-1.2424,-1.2748,-1.2797,-1.2775,-1.2721,-1.2614,-1.2538,-1.2393,-1.1978,-1.1354,-1.0882,-1.0654,-1.0449,-1.0522,-1.0509,-1.0482,-1.0342,-1.0463,-1.0453,-1.0326,-1.0462,-1.0596,-1.0776,-1.1081,-1.1406,-1.1679,-1.1896,-1.2271,-1.2468,-1.2619,-1.2705,-1.2705,-1.2705,-1.2705,-1.2705,-1.2705,-1.2705,-1.265,-1.2524,-1.2457,-1.2288,-1.1986,-1.1778,-1.1968,-1.1742,-1.1772,-1.1994,-1.2095,-1.2168,-1.24,-1.2654,-1.2845,-1.3098,-1.3092,-1.3274,-1.3452,-1.3701,-1.3568,-1.3476,-1.3425,-1.3435,-1.3426,-1.3206,-1.2949,-1.2764,-1.2485,-1.2257,-1.2037,-1.2075,-1.21,-1.2041,-1.2062,-1.227,-1.2502,-1.2668,-1.2699,-1.2681,-1.2681,-1.2699,-1.2705,-1.2705,-1.2705,-1.2705,-1.2833,-1.2966,-1.3143,-1.3228,-1.3392,-0.4085,-0.414,-0.3981,-0.396,-0.4086,-0.4233,-0.4679,-0.5146,-0.5298,-0.572,-0.6236,-0.6257,-0.6676,-0.7243,-0.7421,-0.8092,-0.8808,-0.8763,-0.9187,-0.9901,-1.0285,-1.0534,-1.1047,-1.1534,-1.1908,-1.2291,-1.2388,-1.2479,-1.2807,-1.2807,-1.2807,-1.2807,-1.2764,-1.2737,-1.2764,-1.2506,-1.2016,-1.1364,-1.1095,-1.0735,-1.0552,-1.046,-1.0379,-1.0417,-1.0538,-1.0581,-1.0643,-1.0865,-1.0991,-1.1115,-1.1714,-1.2014,-1.2016,-1.2343,-1.2614,-1.265,-1.2662,-1.2705,-1.2705,-1.2705,-1.2705,-1.2705,-1.2705,-1.2705,-1.2705,-1.2656,-1.2584,-1.2415,-1.2199,-1.2085,-1.2006,-1.1904,-1.2042,-1.221,-1.2282,-1.2419,-1.2666,-1.2811,-1.3016,-1.3239,-1.3526,-1.3773,-1.3942,-1.4039,-1.387,-1.3779,-1.3737,-1.3736,-1.3765,-1.3586,-1.3227,-1.296,-1.2699,-1.2528,-1.2356,-1.2466,-1.2473,-1.2426,-1.2444,-1.2661,-1.2702,-1.2759,-1.2796,-1.2735,-1.2705,-1.2705,-1.2705,-1.2705,-1.2705,-1.2705,-1.2705,-1.279,-1.2966,-1.3185,-1.3349,-0.4036,-0.3946,-0.3965,-0.3991,-0.397,-0.4146,-0.435,-0.4473,-0.4552,-0.4827,-0.532,-0.5416,-0.5743,-0.6325,-0.6788,-0.7286,-0.7767,-0.8571,-0.9056,-0.9909,-1.0371,-1.1105,-1.1599,-1.1882,-1.2159,-1.2328,-1.2436,-1.2549,-1.2807,-1.2786,-1.2802,-1.2807,-1.2786,-1.2721,-1.2554,-1.2414,-1.2167,-1.1774,-1.1381,-1.0955,-1.0898,-1.0656,-1.0519,-1.053,-1.0756,-1.0892,-1.0933,-1.1277,-1.1402,-1.1481,-1.2149,-1.2329,-1.2301,-1.2607,-1.2693,-1.2705,-1.2705,-1.2705,-1.2705,-1.2705,-1.2705,-1.2711,-1.2705,-1.2705,-1.2705,-1.2705,-1.2638,-1.2554,-1.2373,-1.2361,-1.2415,-1.2258,-1.2324,-1.2499,-1.2614,-1.2711,-1.2899,-1.3002,-1.3148,-1.3432,-1.373,-1.387,-1.4046,-1.4088,-1.3997,-1.3955,-1.3913,-1.3781,-1.3766,-1.362,-1.3373,-1.3106,-1.2866,-1.2731,-1.2661,-1.2805,-1.2882,-1.2813,-1.2905,-1.3071,-1.3081,-1.2953,-1.2838,-1.2747,-1.2705,-1.2705,-1.2705,-1.2705,-1.2705,-1.2705,-1.2705,-1.2705,-1.2833,-1.3009,-1.3222,-0.3973,-0.3826,-0.3903,-0.3961,-0.396,-0.4085,-0.414,-0.4187,-0.4048,-0.4251,-0.458,-0.4637,-0.4954,-0.5522,-0.596,-0.6718,-0.7129,-0.8089,-0.9097,-1.0024,-1.0795,-1.1506,-1.1975,-1.2194,-1.2381,-1.2468,-1.2527,-1.2608,-1.2614,-1.2635,-1.263,-1.2641,-1.2775,-1.2743,-1.2571,-1.2463,-1.2344,-1.1957,-1.151,-1.1085,-1.1074,-1.0992,-1.0846,-1.1035,-1.1224,-1.1422,-1.1472,-1.1615,-1.1733,-1.1995,-1.2246,-1.2491,-1.2534,-1.2619,-1.2705,-1.2705,-1.2705,-1.2705,-1.2705,-1.2705,-1.2747,-1.283,-1.2771,-1.2705,-1.2705,-1.2705,-1.2705,-1.2632,-1.2518,-1.2554,-1.2608,-1.2463,-1.2572,-1.2741,-1.2894,-1.3028,-1.3259,-1.3357,-1.3466,-1.3721,-1.3828,-1.3962,-1.4046,-1.4088,-1.4088,-1.4088,-1.4082,-1.3935,-1.3808,-1.3687,-1.3553,-1.3367,-1.3166,-1.3074,-1.3094,-1.3192,-1.3267,-1.3223,-1.3287,-1.3343,-1.3179,-1.3027,-1.2869,-1.2747,-1.2705,-1.2705,-1.2705,-1.2705,-1.2705,-1.2705,-1.2705,-1.2705,-1.2705,-1.2833,-1.3052,-0.3897,-0.3881,-0.3801,-0.3861,-0.391,-0.4018,-0.4104,-0.4161,-0.3995,-0.3969,-0.4024,-0.3937,-0.4297,-0.4859,-0.5056,-0.579,-0.7009,-0.7896,-0.8999,-1.0106,-1.0909,-1.1708,-1.224,-1.2436,-1.2501,-1.2683,-1.271,-1.2506,-1.2431,-1.2474,-1.2468,-1.2527,-1.2743,-1.2759,-1.2657,-1.2571,-1.2468,-1.2199,-1.1804,-1.1484,-1.1467,-1.1337,-1.1391,-1.1625,-1.1796,-1.2042,-1.2161,-1.2267,-1.2308,-1.2419,-1.2565,-1.2662,-1.2705,-1.2705,-1.2705,-1.2705,-1.2705,-1.2705,-1.2705,-1.2705,-1.2789,-1.2848,-1.2807,-1.2741,-1.2735,-1.2747,-1.2705,-1.2705,-1.2638,-1.2662,-1.2668,-1.276,-1.2851,-1.3003,-1.3114,-1.3346,-1.3677,-1.3805,-1.3864,-1.3965,-1.4017,-1.4095,-1.4088,-1.4088,-1.4088,-1.4088,-1.4088,-1.4068,-1.3941,-1.3834,-1.3768,-1.3761,-1.356,-1.3432,-1.3477,-1.353,-1.3511,-1.3497,-1.3416,-1.3434,-1.3264,-1.3052,-1.2924,-1.279,-1.2705,-1.2705,-1.2705,-1.2705,-1.2705,-1.2705,-1.2705,-1.2705,-1.2705,-1.2705,-1.2881,-0.3861,-0.3841,-0.3812,-0.3855,-0.3916,-0.4065,-0.4181,-0.4238,-0.414,-0.4083,-0.3986,-0.3914,-0.4044,-0.4167,-0.4418,-0.4853,-0.5823,-0.7013,-0.8288,-0.948,-1.076,-1.1812,-1.2415,-1.2528,-1.2614,-1.2544,-1.2501,-1.2431,-1.2305,-1.2296,-1.2506,-1.2673,-1.2726,-1.2775,-1.2764,-1.2737,-1.2699,-1.2547,-1.21,-1.2001,-1.1997,-1.1964,-1.2086,-1.222,-1.229,-1.2468,-1.2616,-1.251,-1.2472,-1.2613,-1.2656,-1.2705,-1.2705,-1.2705,-1.2705,-1.2705,-1.2705,-1.2705,-1.2705,-1.2705,-1.2765,-1.285,-1.2759,-1.283,-1.2836,-1.2831,-1.2717,-1.2705,-1.2747,-1.2777,-1.285,-1.2954,-1.3145,-1.3355,-1.3492,-1.3745,-1.3974,-1.4045,-1.4104,-1.4123,-1.4175,-1.4095,-1.4088,-1.4088,-1.4088,-1.4088,-1.4088,-1.4088,-1.4062,-1.3955,-1.3895,-1.3895,-1.3895,-1.3718,-1.3698,-1.3738,-1.3732,-1.3711,-1.3597,-1.3434,-1.3222,-1.3052,-1.2924,-1.279,-1.2705,-1.2705,-1.2705,-1.2705,-1.2705,-1.2705,-1.2705,-1.2705,-1.2705,-1.2705,-1.2747,-0.3853,-0.3806,-0.3802,-0.3855,-0.3916,-0.4057,-0.4151,-0.4187,-0.422,-0.4136,-0.4079,-0.3955,-0.3869,-0.3878,-0.4087,-0.4504,-0.5194,-0.6604,-0.7889,-0.9039,-1.0204,-1.1157,-1.1826,-1.2126,-1.2146,-1.2205,-1.233,-1.2318,-1.2197,-1.2213,-1.235,-1.2472,-1.2597,-1.2667,-1.2683,-1.2721,-1.278,-1.2658,-1.2505,-1.2425,-1.2494,-1.2541,-1.2597,-1.2774,-1.2743,-1.2806,-1.2978,-1.2717,-1.2601,-1.2656,-1.2699,-1.2705,-1.2705,-1.2705,-1.2705,-1.2705,-1.2705,-1.2705,-1.2705,-1.2705,-1.2759,-1.2801,-1.2765,-1.2862,-1.2861,-1.2868,-1.2765,-1.2711,-1.2807,-1.2892,-1.3015,-1.3194,-1.3461,-1.3724,-1.3913,-1.4101,-1.4167,-1.4226,-1.4246,-1.4266,-1.4222,-1.4122,-1.4088,-1.4088,-1.4088,-1.4088,-1.4088,-1.4088,-1.4088,-1.4048,-1.3988,-1.3968,-1.4001,-1.3995,-1.3933,-1.3844,-1.3749,-1.3639,-1.3434,-1.3264,-1.3137,-1.2966,-1.2833,-1.2747,-1.2705,-1.2705,-1.2705,-1.2705,-1.2705,-1.2705,-1.2705,-1.2705,-1.2705,-1.2705,-1.279,-0.3804,-0.3802,-0.3802,-0.3855,-0.3906,-0.3952,-0.3992,-0.4002,-0.4122,-0.4153,-0.4102,-0.3971,-0.3889,-0.3894,-0.3949,-0.4488,-0.516,-0.627,-0.7282,-0.8497,-0.9302,-1.0206,-1.0706,-1.089,-1.1297,-1.192,-1.2183,-1.2005,-1.2108,-1.2143,-1.2164,-1.2105,-1.2316,-1.2404,-1.249,-1.2586,-1.2628,-1.2709,-1.2476,-1.2327,-1.2648,-1.2716,-1.2806,-1.3337,-1.3286,-1.3197,-1.3245,-1.3073,-1.2705,-1.2705,-1.2705,-1.2705,-1.2705,-1.2705,-1.2705,-1.2705,-1.2705,-1.2705,-1.2705,-1.2705,-1.2819,-1.2862,-1.2862,-1.2862,-1.2856,-1.2831,-1.2729,-1.2753,-1.285,-1.3063,-1.3212,-1.3554,-1.3887,-1.4174,-1.4384,-1.4569,-1.4652,-1.4542,-1.4292,-1.4262,-1.4168,-1.4088,-1.4088,-1.4088,-1.4088,-1.4088,-1.4088,-1.4088,-1.4088,-1.4088,-1.4068,-1.4028,-1.4048,-1.4019,-1.3922,-1.3811,-1.3656,-1.3519,-1.3307,-1.3137,-1.2966,-1.2833,-1.2705,-1.2705,-1.2705,-1.2705,-1.2705,-1.2705,-1.2705,-1.2705,-1.2705,-1.2705,-1.2705,-1.2705,-1.2747,-0.3802,-0.3802,-0.3802,-0.3816,-0.3897,-0.3922,-0.3932,-0.3992,-0.4014,-0.403,-0.3967,-0.3918,-0.3865,-0.3864,-0.3851,-0.4281,-0.4933,-0.5735,-0.6642,-0.7579,-0.8428,-0.9025,-0.9725,-0.9824,-1.0386,-1.091,-1.127,-1.1447,-1.1744,-1.1907,-1.2048,-1.2054,-1.2161,-1.2226,-1.2361,-1.2429,-1.2472,-1.2744,-1.2547,-1.2445,-1.2643,-1.3234,-1.3634,-1.3624,-1.3403,-1.3384,-1.335,-1.3031,-1.2789,-1.2705,-1.2705,-1.2705,-1.2705,-1.2705,-1.2705,-1.2705,-1.2705,-1.2705,-1.2705,-1.2705,-1.2771,-1.2777,-1.2753,-1.2765,-1.2753,-1.2723,-1.2741,-1.2801,-1.2947,-1.3168,-1.3453,-1.388,-1.4269,-1.4514,-1.4778,-1.496,-1.5077,-1.4696,-1.4302,-1.4195,-1.4108,-1.4088,-1.4088,-1.4088,-1.4088,-1.4088,-1.4088,-1.4088,-1.4088,-1.4088,-1.4088,-1.4062,-1.4068,-1.4033,-1.3864,-1.3695,-1.3525,-1.3349,-1.3179,-1.3009,-1.2833,-1.279,-1.2705,-1.2705,-1.2705,-1.2705,-1.2705,-1.2705,-1.2705,-1.2705,-1.2705,-1.2705,-1.2705,-1.2705,-1.2705,-0.3802,-0.3802,-0.3802,-0.3831,-0.388,-0.3881,-0.391,-0.392,-0.3957,-0.3924,-0.3857,-0.3873,-0.3867,-0.3849,-0.3903,-0.4154,-0.4656,-0.5227,-0.5929,-0.6691,-0.7302,-0.7927,-0.8383,-0.875,-0.9308,-0.9841,-1.0096,-1.0437,-1.1036,-1.1376,-1.1445,-1.1467,-1.1686,-1.2056,-1.219,-1.2216,-1.2321,-1.2731,-1.2574,-1.2605,-1.2701,-1.3191,-1.3679,-1.3562,-1.3597,-1.355,-1.3393,-1.3103,-1.2886,-1.2747,-1.2705,-1.2705,-1.2705,-1.2705,-1.2705,-1.2705,-1.2705,-1.2705,-1.2705,-1.2705,-1.2705,-1.2705,-1.2705,-1.2729,-1.2729,-1.2705,-1.2705,-1.2777,-1.297,-1.3203,-1.3603,-1.4014,-1.4359,-1.4637,-1.4771,-1.4917,-1.4716,-1.4376,-1.4182,-1.4135,-1.4088,-1.4088,-1.4088,-1.4088,-1.4088,-1.4088,-1.4088,-1.4088,-1.4088,-1.4088,-1.4088,-1.4039,-1.3997,-1.3913,-1.3779,-1.3568,-1.3313,-1.3137,-1.3003,-1.2875,-1.2747,-1.2747,-1.2705,-1.2705,-1.2705,-1.2705,-1.2705,-1.2705,-1.2705,-1.2705,-1.2705,-1.2705,-1.2705,-1.2705,-1.2705,-0.3802,-0.3802,-0.3802,-0.3812,-0.3828,-0.3848,-0.3848,-0.3847,-0.3852,-0.3842,-0.3824,-0.3846,-0.3877,-0.3932,-0.4055,-0.4342,-0.4642,-0.5017,-0.544,-0.5775,-0.6003,-0.6747,-0.7245,-0.7536,-0.8214,-0.8852,-0.932,-0.9493,-0.9782,-1.0239,-1.0547,-1.0552,-1.1053,-1.1742,-1.1935,-1.2059,-1.2117,-1.2558,-1.2626,-1.2665,-1.2828,-1.2994,-1.336,-1.3564,-1.3664,-1.3544,-1.3471,-1.3272,-1.3006,-1.2856,-1.2741,-1.2705,-1.2705,-1.2705,-1.2705,-1.2705,-1.2705,-1.2705,-1.2705,-1.2705,-1.2705,-1.2705,-1.2705,-1.2705,-1.2705,-1.2705,-1.2705,-1.2838,-1.3032,-1.3316,-1.3717,-1.4154,-1.4488,-1.4734,-1.4847,-1.478,-1.4459,-1.4142,-1.4115,-1.4088,-1.4088,-1.4088,-1.4088,-1.4088,-1.4088,-1.4088,-1.4088,-1.4088,-1.4088,-1.4088,-1.4046,-1.3913,-1.3779,-1.3695,-1.361,-1.344,-1.3143,-1.3009,-1.2875,-1.2747,-1.2705,-1.2705,-1.2705,-1.2705,-1.2705,-1.2705,-1.2705,-1.2705,-1.2705,-1.2705,-1.2705,-1.2705,-1.2705,-1.2705,-1.2705,-0.3802,-0.3802,-0.3802,-0.3843,-0.3857,-0.3857,-0.3857,-0.3859,-0.3847,-0.3814,-0.3812,-0.3812,-0.3828,-0.3831,-0.4014,-0.4291,-0.4569,-0.4831,-0.5062,-0.5322,-0.5673,-0.598,-0.6325,-0.678,-0.7234,-0.7914,-0.8676,-0.9248,-0.8898,-0.9192,-0.9432,-0.9313,-0.9275,-1.0026,-1.0968,-1.1131,-1.1394,-1.2082,-1.2547,-1.258,-1.2985,-1.3157,-1.3227,-1.3441,-1.355,-1.3652,-1.364,-1.335,-1.3163,-1.3,-1.2831,-1.2735,-1.2705,-1.2705,-1.2705,-1.2705,-1.2705,-1.2705,-1.2705,-1.2705,-1.2705,-1.2705,-1.2705,-1.2705,-1.2705,-1.2705,-1.2796,-1.2997,-1.3207,-1.343,-1.3831,-1.4443,-1.4852,-1.4929,-1.4997,-1.466,-1.4305,-1.4148,-1.4095,-1.4088,-1.4088,-1.4088,-1.4088,-1.4088,-1.4088,-1.4088,-1.4088,-1.4088,-1.4088,-1.4088,-1.4046,-1.3828,-1.3603,-1.3525,-1.344,-1.327,-1.3009,-1.2881,-1.2747,-1.2705,-1.2705,-1.2705,-1.2705,-1.2705,-1.2705,-1.2705,-1.2705,-1.2705,-1.2705,-1.2705,-1.2705,-1.2705,-1.2705,-1.2705,-1.2705]},{"header":{"parameterUnit":"m.s-1","parameterCategory":1,"la1":31.0,"la2":29.5877,"lo1":-88.7671,"lo2":-86.6584,"dy":0.0162,"dx":0.0185,"nx":115,"ny":88,"refTime":"2023-09-24T00:00:00:Z","depth":0,"parameterNumber":3,"parameterNumberName":"V-component_of_WINDS"},"data":[0.0,0.0,0.0,0.0,0.0,0.0,0.0,0.0,0.0,0.0,0.0,0.0,0.0,0.0,0.0,0.0,0.0,0.0,0.0,0.0,0.0,0.0,0.0,0.0,0.0,0.0,0.0,0.0,0.0,0.0,0.0,0.0,0.0,0.0,0.0,0.0,0.0,0.0,0.0,0.0,0.0,0.0,0.0,0.0,0.0,0.0,0.0,0.0,0.0,0.0,0.0,0.0,0.0,0.0,0.0,0.0,0.0,0.0,0.0,0.0,0.0,0.0,0.0,0.0,0.0,0.0,0.0,0.0,0.0,0.0,0.0,0.0,0.0,0.0,0.0,0.0,0.0,0.0,0.0,0.0,0.0,0.0,0.0,0.0,0.0,0.0,0.0,0.0,0.0,0.0,0.0,0.0,0.0,0.0,0.0,0.0,0.0,0.0,0.0,0.0,0.0,0.0,0.0,0.0,0.0,0.0,0.0,0.0,0.0,0.0,0.0,0.0,0.0,0.0,0.0,0.0,0.0,0.0,0.0,0.0,0.0,0.0,0.0,0.0,0.0,0.0,0.0,0.0,0.0,0.0,0.0,0.0,0.0,0.0,0.0,0.0,0.0,0.0,0.0,0.0,0.0,0.0,0.0,0.0,0.0,0.0,0.0,0.0,0.0,0.0,0.0,0.0,0.0,0.0,0.0,0.0,0.0,0.0,0.0,0.0,0.0,0.0,0.0,0.0,0.0,0.0,0.0,0.0,0.0,0.0,0.0,0.0,0.0,0.0,0.0,0.0,0.0,0.0,0.0,0.0,0.0,0.0,0.0,0.0,0.0,0.0,0.0,0.0,0.0,0.0,0.0,0.0,0.0,0.0,0.0,0.0,0.0,0.0,0.0,0.0,0.0,0.0,0.0,0.0,0.0,0.0,0.0,0.0,0.0,0.0,0.0,0.0,0.0,0.0,0.0,0.0,0.0,0.0,0.0,0.0,0.0,0.0,0.0,0.0,0.0,0.0,0.0,0.0,0.0,0.0,0.0,0.0,0.0,0.0,0.0,0.0,0.0,0.0,0.0,0.0,0.0,0.0,0.0,0.0,0.0,0.0,0.0,0.0,0.0,0.0,0.0,0.0,0.0,0.0,0.0,0.0,0.0,0.0,0.0,0.0,0.0,0.0,0.0,0.0,0.0,0.0,0.0,0.0,0.0,0.0,0.0,0.0,0.0,0.0,0.0,0.0,0.0,0.0,0.0,0.0,0.0,0.0,0.0,0.0,0.0,0.0,0.0,0.0,0.0,0.0,0.0,0.0,0.0,0.0,0.0,0.0,0.0,0.0,0.0,0.0,0.0,0.0,0.0,0.0,0.0,0.0,0.0,0.0,0.0,0.0,0.0,0.0,0.0,0.0,0.0,0.0,0.0,0.0,0.0,0.0,0.0,0.0,0.0,0.0,0.0,0.0,0.0,0.0,0.0,0.0,0.0,0.0,0.0,0.0,0.0,0.0,0.0,0.0,0.0,0.0,0.0,0.0,0.0,0.0,0.0,0.0,0.0,0.0,0.0,0.0,0.0,0.0,0.0,0.0,0.0,0.0,0.0,0.0,0.0,0.0,0.0,0.0,0.0,0.0,0.0,0.0,0.0,0.0,0.0,0.0,0.0,0.0,0.0,0.0,0.0,0.0,0.0,0.0,0.0,0.0,0.0,0.0,0.0,0.0,0.0,0.0,0.0,0.0,0.0,0.0,0.0,0.0,0.0,0.0,0.0,0.0,0.0,0.0,0.0,0.0,0.0,0.0,0.0,0.0,0.0,0.0,0.0,0.0,0.0,0.0,0.0,0.0,0.0,0.0,0.0,0.0,0.0,0.0,0.0,0.0,0.0,0.0,0.0,0.0,0.0,0.0,0.0,0.0,0.0,0.0,0.0,0.0,0.0,0.0,0.0,0.0,0.0,0.0,0.0,0.0,0.0,0.0,0.0,0.0,0.0,0.0,0.0,0.0,0.0,0.0,0.0,0.0,0.0,0.0,0.0,0.0,0.0,0.0,0.0,0.0,0.0,0.0,0.0,0.0,0.0,0.0,0.0,0.0,0.0,0.0,0.0,0.0,0.0,0.0,0.0,0.0,0.0,0.0,0.0,0.0,0.0,0.0,0.0,0.0,0.0,0.0,0.0,0.0,0.0,0.0,0.0,0.0,0.0,0.0,0.0,0.0,0.0,0.0,0.0,0.0,0.0,0.0,0.0,0.0,0.0,0.0,0.0,0.0,0.0,0.0,0.0,0.0,0.0,0.0,0.0,0.0,0.0,0.0,0.0,0.0,0.0,0.0,0.0,0.0,0.0,0.0,0.0,0.0,0.0,0.0,0.0,0.0,0.0,0.0,0.0,0.0,0.0,0.0,0.0,0.0,0.0,0.0,0.0,0.0,0.0,0.0,0.0,0.0,0.0,0.0,0.0,0.0,0.0,0.0,0.0,0.0,0.0,0.0,0.0,0.0,0.0,0.0,0.0,0.0,0.0,0.0,0.0,0.0,0.0,0.0,0.0,0.0,0.0,0.0,0.0,0.0,0.0,0.0,0.0,0.0,0.0,0.0,0.0,0.0,0.0,0.0,0.0,0.0,0.0,0.0,0.0,0.0,0.0,0.0,0.0,0.0,0.0,0.0,0.0,0.0,0.0,0.0,0.0,0.0,0.0,0.0,0.0,0.0,0.0,0.0,0.0,0.0,0.0,0.0,0.0,0.0,0.0,0.0,0.0,0.0,0.0,0.0,0.0,0.0,0.0,0.0,0.0,0.0,0.0,0.0,0.0,0.0,0.0,0.0,0.0,0.0,0.0,0.0,0.0,0.0,0.0,0.0,0.0,0.0,0.0,0.0,0.0,0.0,0.0,0.0,0.0,0.0,0.0,0.0,0.0,0.0,0.0,0.0,0.0,0.0,0.0,0.0,0.0,0.0,0.0,0.0,0.0,0.0,0.0,0.0,0.0,0.0,0.0,0.0,0.0,0.0,0.0,0.0,0.0,0.0,0.0,0.0,0.0,0.0,0.0,0.0,0.0,0.0,0.0,0.0,0.0,0.0,0.0,0.0,0.0,0.0,0.0,0.0,0.0,0.0,0.0,0.0,0.0,0.0,0.0,0.0,0.0,0.0,0.0,0.0,0.0,0.0,0.0,0.0,0.0,0.0,0.0,0.0,0.0,0.0,0.0,0.0,0.0,0.0,0.0,0.0,0.0,0.0,0.0,0.0,0.0,0.0,0.0,0.0,0.0,0.0,0.0,0.0,0.0,0.0,0.0,0.0,0.0,0.0,0.0,0.0,0.0,0.0,0.0,0.0,0.0,0.0,0.0,0.0,0.0,0.0,0.0,0.0,0.0,0.0,0.0,0.0,0.0,0.0,0.0,0.0,0.0,0.0,0.0,0.0,0.0,0.0,0.0,0.0,0.0,0.0,0.0,0.0,0.0,0.0,0.0,0.0,0.0,0.0,0.0,0.0,0.0,0.0,0.0,0.0,0.0,0.0,0.0,0.0,0.0,0.0,0.0,0.0,0.0,0.0,0.0,0.0,0.0,0.0,0.0,0.0,0.0,0.0,0.0,0.0,0.0,0.0,0.0,0.0,0.0,0.0,0.0,0.0,0.0,0.0,0.0,0.0,0.0,0.0,0.0,0.0,0.0,0.0,0.0,0.0,0.0,0.0,0.0,0.0,0.0,0.0,0.0,0.0,0.0,0.0,0.0,0.0,0.0,0.0,0.0,0.0,0.0,0.0,0.0,0.0,0.0,0.0,0.0,0.0,0.0,0.0,0.0,0.0,0.0,0.0,0.0,0.0,0.0,0.0,0.0,0.0,0.0,0.0,0.0,0.0,0.0,0.0,0.0,0.0,0.0,0.0,0.0,0.0,0.0,0.0,0.0,0.0,0.0,0.0,0.0,0.0,0.0,0.0,0.0,0.0,0.0,0.0,0.0,0.0,0.0,0.0,0.0,0.0,0.0,0.0,0.0,0.0,0.0,0.0,0.0,0.0,0.0,0.0,0.0,0.0,0.0,0.0,0.0,0.0,0.0,0.0,0.0,0.0,0.0,0.0,0.0,0.0,0.0,0.0,0.0,0.0,0.0,0.0,0.0,0.0,0.0,0.0,0.0,0.0,0.0,0.0,0.0,0.0,0.0,0.0,0.0,0.0,0.0,0.0,0.0,0.0,0.0,0.0,0.0,0.0,0.0,0.0,0.0,0.0,0.0,0.0,0.0,0.0,0.0,0.0,0.0,0.0,0.0,0.0,0.0,0.0,2.9496,0.0,0.0,0.0,0.0,0.0,0.0,0.0,0.0,0.0,0.0,0.0,0.0,0.0,0.0,0.0,0.0,0.0,0.0,0.0,0.0,0.0,0.0,0.0,0.0,0.0,0.0,0.0,0.0,0.0,0.0,0.0,0.0,0.0,0.0,0.0,0.0,0.0,0.0,0.0,0.0,0.0,0.0,0.0,0.0,0.0,0.0,0.0,0.0,0.0,0.0,0.0,0.0,0.0,0.0,0.0,0.0,0.0,0.0,0.0,0.0,0.0,0.0,0.0,0.0,0.0,0.0,0.0,0.0,0.0,0.0,0.0,0.0,0.0,0.0,0.0,0.0,0.0,0.0,0.0,0.0,0.0,0.0,0.0,0.0,0.0,0.0,0.0,0.0,0.0,0.0,0.0,0.0,0.0,0.0,0.0,0.0,0.0,0.0,0.0,0.0,0.0,0.0,0.0,0.0,0.0,0.0,0.0,0.0,0.0,0.0,3.214,3.0441,3.1775,3.1737,3.0075,0.0,0.0,0.0,0.0,0.0,0.0,0.0,0.0,0.0,0.0,0.0,0.0,0.0,0.0,0.0,0.0,0.0,0.0,0.0,0.0,0.0,0.0,0.0,0.0,0.0,0.0,0.0,0.0,0.0,0.0,0.0,0.0,0.0,0.0,0.0,0.0,0.0,0.0,0.0,0.0,0.0,0.0,0.0,0.0,0.0,0.0,0.0,0.0,0.0,0.0,0.0,0.0,0.0,0.0,0.0,0.0,0.0,0.0,0.0,0.0,0.0,0.0,0.0,0.0,0.0,0.0,0.0,0.0,0.0,0.0,0.0,0.0,0.0,0.0,0.0,0.0,0.0,0.0,0.0,0.0,0.0,0.0,0.0,0.0,0.0,0.0,0.0,0.0,0.0,0.0,0.0,0.0,0.0,0.0,0.0,0.0,0.0,0.0,0.0,0.0,0.0,0.0,0.0,0.0,0.0,0.0,0.0,0.0,0.0,0.0,0.0,0.0,3.2269,3.2432,3.1548,0.0,0.0,0.0,0.0,0.0,0.0,0.0,0.0,0.0,0.0,0.0,0.0,0.0,0.0,0.0,0.0,0.0,0.0,0.0,0.0,0.0,0.0,0.0,0.0,0.0,0.0,0.0,0.0,0.0,0.0,0.0,0.0,0.0,0.0,0.0,0.0,0.0,0.0,0.0,0.0,0.0,0.0,0.0,0.0,0.0,0.0,0.0,0.0,0.0,0.0,0.0,0.0,0.0,0.0,0.0,0.0,0.0,0.0,0.0,0.0,0.0,0.0,0.0,0.0,0.0,0.0,0.0,0.0,0.0,0.0,0.0,0.0,0.0,0.0,0.0,0.0,0.0,0.0,0.0,0.0,0.0,0.0,0.0,0.0,0.0,0.0,0.0,0.0,0.0,0.0,0.0,0.0,0.0,0.0,0.0,0.0,0.0,0.0,0.0,0.0,0.0,0.0,0.0,0.0,0.0,0.0,0.0,0.0,0.0,0.0,3.1307,3.3941,3.4178,0.0,3.4395,0.0,0.0,0.0,0.0,0.0,0.0,0.0,0.0,0.0,0.0,0.0,0.0,0.0,0.0,0.0,0.0,0.0,0.0,0.0,0.0,0.0,0.0,0.0,0.0,0.0,0.0,0.0,0.0,0.0,0.0,0.0,0.0,0.0,0.0,0.0,0.0,0.0,0.0,0.0,0.0,0.0,0.0,0.0,0.0,0.0,0.0,0.0,0.0,0.0,0.0,0.0,0.0,0.0,0.0,0.0,0.0,0.0,0.0,0.0,0.0,0.0,0.0,0.0,0.0,0.0,0.0,0.0,0.0,0.0,0.0,0.0,0.0,0.0,0.0,0.0,0.0,0.0,0.0,0.0,0.0,0.0,0.0,0.0,0.0,0.0,0.0,0.0,0.0,0.0,0.0,0.0,0.0,0.0,0.0,0.0,0.0,0.0,0.0,0.0,0.0,0.0,0.0,0.0,0.0,0.0,0.0,0.0,0.0,0.0,0.0,3.1847,3.3876,3.4093,3.3925,0.0,0.0,0.0,0.0,0.0,0.0,0.0,0.0,0.0,0.0,0.0,0.0,0.0,0.0,0.0,0.0,0.0,0.0,0.0,0.0,0.0,0.0,0.0,0.0,0.0,0.0,0.0,0.0,0.0,0.0,0.0,0.0,0.0,0.0,0.0,0.0,0.0,0.0,0.0,0.0,0.0,0.0,0.0,0.0,0.0,0.0,0.0,0.0,0.0,0.0,0.0,0.0,0.0,0.0,0.0,0.0,0.0,0.0,0.0,0.0,0.0,0.0,0.0,0.0,0.0,0.0,0.0,0.0,0.0,0.0,0.0,0.0,0.0,0.0,0.0,0.0,0.0,0.0,0.0,0.0,0.0,0.0,0.0,0.0,0.0,0.0,0.0,0.0,0.0,0.0,0.0,0.0,0.0,0.0,0.0,0.0,0.0,0.0,0.0,0.0,0.0,0.0,0.0,0.0,0.0,0.0,0.0,0.0,0.0,0.0,3.179,3.2639,3.4252,3.3889,3.3246,3.2422,0.0,0.0,0.0,0.0,0.0,0.0,0.0,0.0,0.0,0.0,0.0,0.0,0.0,0.0,0.0,0.0,0.0,0.0,0.0,0.0,0.0,0.0,0.0,0.0,0.0,0.0,0.0,0.0,0.0,0.0,0.0,0.0,0.0,0.0,0.0,0.0,0.0,0.0,0.0,0.0,0.0,0.0,0.0,0.0,0.0,0.0,0.0,0.0,0.0,0.0,0.0,0.0,0.0,0.0,0.0,0.0,0.0,0.0,0.0,0.0,0.0,0.0,0.0,0.0,0.0,0.0,0.0,0.0,0.0,0.0,0.0,0.0,0.0,0.0,0.0,0.0,0.0,0.0,0.0,0.0,0.0,0.0,0.0,0.0,0.0,0.0,0.0,0.0,0.0,0.0,0.0,0.0,0.0,0.0,0.0,0.0,0.0,0.0,0.0,0.0,0.0,0.0,0.0,0.0,0.0,0.0,0.0,0.0,3.6656,3.3964,3.3651,3.6136,3.4045,3.2704,0.0,0.0,0.0,0.0,0.0,0.0,0.0,0.0,0.0,0.0,0.0,0.0,0.0,0.0,0.0,0.0,0.0,0.0,0.0,0.0,0.0,0.0,0.0,0.0,0.0,0.0,0.0,0.0,0.0,0.0,0.0,0.0,0.0,0.0,0.0,0.0,0.0,0.0,0.0,0.0,0.0,0.0,0.0,0.0,0.0,0.0,0.0,0.0,0.0,0.0,0.0,0.0,0.0,0.0,0.0,0.0,0.0,0.0,0.0,0.0,0.0,0.0,0.0,0.0,0.0,0.0,0.0,0.0,0.0,0.0,0.0,0.0,0.0,0.0,0.0,0.0,0.0,0.0,0.0,0.0,0.0,0.0,0.0,0.0,0.0,0.0,0.0,0.0,0.0,0.0,0.0,0.0,0.0,0.0,0.0,0.0,0.0,0.0,0.0,0.0,0.0,0.0,0.0,0.0,0.0,0.0,0.0,0.0,0.0,3.2019,3.2413,3.3517,3.5355,3.3437,3.2338,0.0,0.0,0.0,0.0,0.0,0.0,0.0,0.0,0.0,0.0,0.0,0.0,0.0,0.0,0.0,0.0,0.0,0.0,0.0,0.0,0.0,0.0,0.0,0.0,0.0,0.0,0.0,0.0,0.0,0.0,0.0,0.0,0.0,0.0,0.0,0.0,0.0,0.0,0.0,0.0,0.0,0.0,0.0,0.0,0.0,0.0,0.0,0.0,0.0,0.0,0.0,0.0,0.0,0.0,0.0,0.0,0.0,0.0,0.0,0.0,0.0,0.0,0.0,0.0,0.0,0.0,0.0,0.0,0.0,0.0,0.0,0.0,0.0,0.0,0.0,0.0,0.0,0.0,0.0,0.0,0.0,0.0,0.0,0.0,0.0,0.0,0.0,0.0,0.0,0.0,0.0,0.0,0.0,0.0,0.0,0.0,0.0,0.0,0.0,0.0,0.0,0.0,0.0,0.0,0.0,0.0,0.0,0.0,0.0,3.0902,0.0,3.4273,3.4431,3.2826,3.1423,0.0,0.0,0.0,0.0,0.0,0.0,0.0,0.0,0.0,0.0,0.0,0.0,0.0,0.0,0.0,0.0,0.0,0.0,0.0,0.0,0.0,0.0,0.0,0.0,0.0,0.0,0.0,0.0,0.0,0.0,0.0,0.0,0.0,0.0,0.0,0.0,0.0,0.0,0.0,0.0,0.0,0.0,0.0,0.0,0.0,0.0,0.0,0.0,0.0,0.0,0.0,0.0,0.0,0.0,0.0,0.0,0.0,0.0,0.0,0.0,0.0,0.0,0.0,0.0,0.0,0.0,0.0,0.0,0.0,0.0,0.0,0.0,0.0,0.0,0.0,0.0,0.0,0.0,0.0,0.0,0.0,0.0,0.0,0.0,0.0,0.0,0.0,0.0,0.0,0.0,0.0,0.0,0.0,0.0,0.0,0.0,0.0,0.0,0.0,0.0,0.0,0.0,0.0,0.0,0.0,0.0,0.0,0.0,3.0851,3.4315,3.6055,3.5762,3.3609,3.2213,2.99,0.0,0.0,0.0,0.0,0.0,0.0,0.0,0.0,0.0,0.0,0.0,0.0,0.0,0.0,0.0,0.0,0.0,0.0,0.0,0.0,0.0,0.0,0.0,0.0,0.0,0.0,0.0,0.0,0.0,0.0,0.0,0.0,0.0,0.0,0.0,0.0,0.0,0.0,0.0,0.0,0.0,0.0,0.0,0.0,0.0,0.0,0.0,0.0,0.0,0.0,0.0,0.0,0.0,0.0,0.0,0.0,0.0,0.0,0.0,0.0,0.0,0.0,0.0,0.0,0.0,0.0,0.0,0.0,0.0,0.0,0.0,0.0,0.0,0.0,0.0,0.0,0.0,0.0,0.0,0.0,0.0,0.0,0.0,0.0,0.0,0.0,0.0,0.0,0.0,0.0,0.0,0.0,0.0,0.0,0.0,0.0,0.0,0.0,0.0,0.0,0.0,0.0,0.0,0.0,0.0,0.0,0.0,0.0,0.0,3.0962,3.2748,3.4047,3.467,3.1816,3.0307,0.0,0.0,0.0,0.0,0.0,0.0,0.0,0.0,0.0,0.0,0.0,0.0,0.0,0.0,0.0,0.0,0.0,0.0,0.0,0.0,0.0,0.0,0.0,0.0,0.0,0.0,0.0,0.0,0.0,0.0,0.0,0.0,0.0,0.0,0.0,0.0,0.0,0.0,0.0,0.0,0.0,0.0,0.0,0.0,0.0,0.0,0.0,0.0,0.0,0.0,0.0,0.0,0.0,0.0,0.0,0.0,0.0,0.0,0.0,0.0,0.0,0.0,0.0,0.0,0.0,0.0,0.0,0.0,0.0,0.0,0.0,0.0,0.0,0.0,0.0,0.0,0.0,0.0,0.0,0.0,0.0,0.0,0.0,0.0,0.0,0.0,0.0,0.0,0.0,0.0,0.0,0.0,0.0,0.0,0.0,0.0,0.0,0.0,0.0,0.0,0.0,0.0,0.0,0.0,0.0,0.0,0.0,0.0,0.0,3.0539,3.2811,3.4361,3.5029,3.2208,3.0784,3.1003,0.0,0.0,0.0,0.0,0.0,0.0,0.0,0.0,0.0,0.0,0.0,0.0,0.0,0.0,0.0,0.0,0.0,0.0,0.0,0.0,0.0,0.0,0.0,0.0,0.0,0.0,0.0,0.0,0.0,0.0,0.0,0.0,0.0,0.0,0.0,0.0,0.0,0.0,0.0,0.0,0.0,0.0,0.0,0.0,0.0,0.0,0.0,0.0,0.0,0.0,0.0,0.0,0.0,0.0,0.0,0.0,0.0,0.0,0.0,0.0,0.0,0.0,0.0,0.0,0.0,0.0,0.0,0.0,0.0,0.0,0.0,0.0,0.0,0.0,0.0,0.0,0.0,0.0,0.0,0.0,0.0,0.0,0.0,0.0,0.0,0.0,0.0,0.0,0.0,0.0,0.0,0.0,0.0,0.0,0.0,0.0,0.0,0.0,0.0,0.0,0.0,0.0,0.0,0.0,0.0,0.0,0.0,0.0,3.2392,3.5569,3.6345,3.4616,3.3187,3.1364,0.0,0.0,0.0,0.0,0.0,0.0,0.0,0.0,0.0,0.0,0.0,0.0,0.0,0.0,0.0,0.0,0.0,0.0,0.0,0.0,0.0,0.0,0.0,0.0,0.0,0.0,0.0,0.0,0.0,0.0,0.0,0.0,0.0,0.0,0.0,0.0,0.0,0.0,0.0,0.0,0.0,0.0,0.0,0.0,0.0,0.0,0.0,0.0,0.0,0.0,0.0,0.0,0.0,0.0,0.0,0.0,0.0,0.0,0.0,0.0,0.0,0.0,0.0,0.0,0.0,0.0,0.0,0.0,0.0,0.0,0.0,0.0,0.0,0.0,0.0,0.0,0.0,0.0,0.0,0.0,0.0,0.0,0.0,0.0,0.0,0.0,0.0,0.0,0.0,0.0,0.0,0.0,0.0,0.0,0.0,0.0,0.0,0.0,0.0,0.0,0.0,0.0,0.0,0.0,0.0,0.0,0.0,0.0,0.0,3.4001,3.556,3.633,3.6254,3.3542,3.1961,0.0,0.0,0.0,0.0,0.0,0.0,0.0,0.0,0.0,0.0,0.0,0.0,0.0,0.0,0.0,0.0,0.0,0.0,0.0,0.0,0.0,0.0,0.0,0.0,0.0,0.0,0.0,0.0,0.0,0.0,0.0,0.0,0.0,0.0,0.0,0.0,0.0,0.0,0.0,0.0,0.0,0.0,0.0,0.0,0.0,0.0,0.0,0.0,0.0,0.0,0.0,0.0,0.0,0.0,0.0,0.0,0.0,0.0,0.0,0.0,0.0,0.0,0.0,0.0,0.0,0.0,0.0,0.0,0.0,0.0,0.0,0.0,0.0,0.0,0.0,0.0,0.0,0.0,0.0,0.0,0.0,0.0,0.0,0.0,0.0,0.0,0.0,0.0,0.0,0.0,0.0,0.0,0.0,0.0,0.0,0.0,0.0,0.0,0.0,0.0,0.0,0.0,0.0,0.0,0.0,0.0,0.0,0.0,3.1363,3.396,3.4719,3.5446,3.6067,3.4143,3.2744,0.0,0.0,0.0,0.0,0.0,0.0,0.0,0.0,0.0,0.0,0.0,0.0,0.0,0.0,0.0,0.0,0.0,0.0,0.0,0.0,0.0,0.0,0.0,0.0,0.0,0.0,0.0,0.0,0.0,0.0,0.0,0.0,0.0,0.0,0.0,0.0,0.0,0.0,0.0,0.0,0.0,0.0,0.0,0.0,0.0,0.0,0.0,0.0,0.0,0.0,0.0,0.0,0.0,0.0,0.0,0.0,0.0,0.0,0.0,0.0,0.0,0.0,0.0,0.0,0.0,0.0,0.0,0.0,0.0,0.0,0.0,0.0,0.0,0.0,0.0,0.0,0.0,0.0,0.0,0.0,0.0,0.0,0.0,0.0,0.0,0.0,0.0,0.0,0.0,0.0,0.0,0.0,0.0,0.0,0.0,0.0,0.0,0.0,0.0,0.0,0.0,0.0,0.0,0.0,0.0,0.0,0.0,0.0,3.0507,3.3203,3.3729,3.4287,3.4855,3.4631,3.3425,0.0,0.0,0.0,0.0,0.0,0.0,0.0,0.0,0.0,0.0,0.0,0.0,0.0,0.0,0.0,0.0,0.0,0.0,0.0,0.0,0.0,0.0,0.0,0.0,0.0,0.0,0.0,0.0,0.0,0.0,0.0,0.0,0.0,0.0,0.0,0.0,0.0,0.0,0.0,0.0,0.0,0.0,0.0,0.0,0.0,0.0,0.0,0.0,0.0,0.0,0.0,0.0,0.0,0.0,0.0,0.0,0.0,0.0,0.0,0.0,0.0,0.0,0.0,0.0,0.0,0.0,0.0,0.0,0.0,0.0,0.0,0.0,0.0,0.0,0.0,0.0,0.0,0.0,0.0,0.0,0.0,0.0,0.0,0.0,0.0,0.0,0.0,0.0,0.0,0.0,0.0,0.0,0.0,0.0,0.0,0.0,0.0,0.0,0.0,0.0,0.0,0.0,0.0,0.0,0.0,0.0,0.0,0.0,3.166,3.4128,3.4494,3.4883,3.5466,3.3908,3.2702,0.0,0.0,0.0,0.0,0.0,0.0,0.0,0.0,0.0,0.0,0.0,0.0,0.0,0.0,0.0,0.0,0.0,0.0,0.0,0.0,0.0,0.0,0.0,0.0,0.0,0.0,0.0,0.0,0.0,0.0,0.0,0.0,0.0,0.0,0.0,0.0,0.0,0.0,0.0,0.0,0.0,0.0,0.0,0.0,0.0,0.0,0.0,0.0,3.8027,0.0,0.0,0.0,0.0,0.0,0.0,0.0,0.0,0.0,0.0,0.0,0.0,0.0,0.0,0.0,0.0,0.0,0.0,0.0,0.0,0.0,0.0,0.0,0.0,0.0,0.0,0.0,0.0,0.0,0.0,0.0,0.0,0.0,0.0,0.0,0.0,0.0,0.0,0.0,0.0,0.0,0.0,0.0,0.0,0.0,0.0,0.0,0.0,0.0,0.0,0.0,0.0,0.0,0.0,0.0,0.0,0.0,0.0,0.0,3.1519,3.3348,3.3816,3.4163,3.4407,3.3404,3.2429,0.0,0.0,0.0,0.0,0.0,0.0,0.0,0.0,0.0,0.0,0.0,0.0,0.0,0.0,0.0,0.0,0.0,0.0,0.0,0.0,0.0,0.0,0.0,0.0,0.0,0.0,0.0,0.0,0.0,0.0,0.0,0.0,0.0,0.0,0.0,0.0,0.0,0.0,0.0,0.0,0.0,0.0,0.0,0.0,0.0,0.0,0.0,0.0,0.0,0.0,0.0,0.0,0.0,0.0,0.0,0.0,0.0,0.0,0.0,0.0,0.0,0.0,0.0,0.0,0.0,0.0,0.0,0.0,0.0,0.0,0.0,0.0,0.0,0.0,0.0,0.0,0.0,0.0,0.0,0.0,0.0,0.0,0.0,0.0,0.0,0.0,0.0,0.0,0.0,0.0,0.0,0.0,0.0,0.0,0.0,0.0,0.0,0.0,0.0,0.0,0.0,0.0,0.0,0.0,0.0,0.0,0.0,3.0003,3.0975,3.2164,3.2789,3.3142,3.3224,3.3142,3.2355,3.0808,0.0,0.0,0.0,0.0,0.0,0.0,0.0,0.0,0.0,0.0,0.0,0.0,0.0,0.0,0.0,0.0,0.0,0.0,0.0,0.0,0.0,0.0,0.0,0.0,0.0,0.0,0.0,0.0,0.0,0.0,0.0,0.0,0.0,0.0,0.0,0.0,0.0,0.0,3.5489,3.8302,0.0,0.0,0.0,0.0,0.0,0.0,0.0,0.0,4.0245,0.0,0.0,0.0,0.0,0.0,0.0,0.0,0.0,0.0,0.0,0.0,0.0,0.0,0.0,0.0,0.0,0.0,0.0,0.0,0.0,0.0,0.0,0.0,0.0,0.0,0.0,0.0,0.0,0.0,0.0,0.0,0.0,0.0,0.0,0.0,0.0,0.0,0.0,0.0,0.0,0.0,0.0,0.0,0.0,0.0,0.0,0.0,0.0,0.0,0.0,0.0,0.0,0.0,0.0,0.0,0.0,3.0233,3.0342,3.0988,3.2191,3.2789,3.3332,3.3731,3.3359,3.2259,3.0555,0.0,0.0,0.0,0.0,0.0,0.0,0.0,0.0,0.0,0.0,0.0,0.0,0.0,0.0,0.0,0.0,0.0,0.0,0.0,0.0,0.0,0.0,0.0,0.0,0.0,0.0,0.0,0.0,0.0,0.0,0.0,0.0,0.0,0.0,0.0,0.0,0.0,0.0,0.0,4.2789,4.3706,0.0,0.0,0.0,0.0,0.0,0.0,0.0,0.0,4.0214,0.0,0.0,0.0,0.0,0.0,0.0,0.0,0.0,0.0,0.0,0.0,0.0,0.0,0.0,0.0,0.0,0.0,0.0,0.0,0.0,0.0,0.0,0.0,0.0,0.0,0.0,0.0,0.0,0.0,0.0,0.0,0.0,0.0,0.0,0.0,0.0,0.0,0.0,0.0,0.0,0.0,0.0,0.0,0.0,0.0,0.0,0.0,0.0,0.0,0.0,0.0,0.0,0.0,0.0,0.0,2.9067,3.0249,3.0988,3.1273,3.1829,3.2128,3.2078,3.1829,3.1124,0.0,0.0,0.0,0.0,0.0,0.0,0.0,0.0,0.0,0.0,0.0,0.0,0.0,0.0,0.0,0.0,0.0,0.0,0.0,0.0,0.0,0.0,0.0,0.0,0.0,0.0,0.0,0.0,0.0,0.0,0.0,0.0,0.0,0.0,0.0,0.0,0.0,0.0,0.0,0.0,4.4085,4.5001,4.5776,0.0,0.0,0.0,0.0,0.0,0.0,4.0751,4.0419,0.0,0.0,0.0,0.0,0.0,0.0,0.0,0.0,0.0,0.0,0.0,0.0,0.0,0.0,0.0,0.0,0.0,0.0,0.0,0.0,0.0,0.0,0.0,0.0,0.0,0.0,0.0,0.0,0.0,0.0,0.0,0.0,0.0,0.0,0.0,0.0,0.0,0.0,0.0,0.0,0.0,0.0,0.0,0.0,0.0,0.0,0.0,0.0,0.0,0.0,0.0,0.0,0.0,0.0,0.0,2.7783,2.9834,3.0703,3.0269,3.0798,3.0893,3.0398,3.0405,3.012,0.0,0.0,0.0,0.0,0.0,0.0,0.0,0.0,0.0,0.0,0.0,0.0,0.0,0.0,0.0,0.0,0.0,0.0,0.0,0.0,0.0,0.0,0.0,0.0,0.0,0.0,0.0,0.0,0.0,0.0,0.0,0.0,0.0,0.0,0.0,0.0,0.0,0.0,0.0,0.0,0.0,4.6345,4.7324,4.6866,0.0,0.0,0.0,0.0,4.1825,4.2078,0.0,0.0,0.0,0.0,0.0,0.0,0.0,0.0,0.0,0.0,0.0,0.0,0.0,0.0,0.0,0.0,0.0,0.0,0.0,0.0,0.0,0.0,0.0,0.0,0.0,0.0,0.0,0.0,0.0,0.0,0.0,0.0,0.0,0.0,0.0,0.0,0.0,0.0,0.0,0.0,0.0,0.0,0.0,0.0,0.0,0.0,0.0,0.0,0.0,0.0,0.0,0.0,0.0,0.0,0.0,0.0,2.7752,2.8995,2.9692,2.9618,3.0188,3.0486,3.0405,3.0405,3.012,0.0,0.0,0.0,0.0,0.0,0.0,0.0,0.0,0.0,0.0,0.0,0.0,0.0,0.0,0.0,0.0,0.0,0.0,0.0,0.0,0.0,0.0,0.0,0.0,0.0,0.0,0.0,0.0,0.0,0.0,0.0,0.0,0.0,0.0,0.0,0.0,0.0,0.0,0.0,0.0,0.0,4.922,4.6439,4.7466,4.7767,0.0,0.0,4.5396,4.5997,4.7119,0.0,0.0,0.0,0.0,0.0,0.0,0.0,0.0,0.0,0.0,0.0,0.0,0.0,0.0,0.0,0.0,0.0,0.0,0.0,0.0,0.0,0.0,0.0,0.0,0.0,0.0,0.0,0.0,0.0,0.0,0.0,0.0,0.0,0.0,0.0,0.0,0.0,0.0,0.0,0.0,0.0,0.0,0.0,0.0,0.0,0.0,0.0,0.0,0.0,0.0,0.0,0.0,0.0,0.0,0.0,2.7806,2.7494,2.8976,2.955,2.904,2.9564,2.9726,2.9387,2.9387,2.9252,0.0,0.0,0.0,0.0,0.0,0.0,0.0,0.0,0.0,0.0,0.0,0.0,0.0,0.0,0.0,0.0,0.0,0.0,0.0,0.0,0.0,0.0,0.0,0.0,0.0,0.0,0.0,0.0,0.0,0.0,0.0,0.0,0.0,0.0,0.0,0.0,0.0,0.0,0.0,0.0,0.0,0.0,4.8762,4.8841,0.0,0.0,0.0,4.5902,4.6187,0.0,0.0,0.0,0.0,0.0,0.0,0.0,0.0,0.0,0.0,0.0,0.0,0.0,0.0,0.0,0.0,0.0,0.0,0.0,0.0,0.0,0.0,0.0,0.0,0.0,0.0,0.0,0.0,0.0,0.0,0.0,0.0,0.0,0.0,0.0,0.0,0.0,0.0,0.0,0.0,0.0,0.0,0.0,0.0,0.0,0.0,0.0,0.0,0.0,0.0,0.0,0.0,0.0,0.0,0.0,0.0,0.0,2.7393,2.9202,2.966,2.866,2.9203,2.9298,2.8831,2.8668,0.0,0.0,0.0,0.0,0.0,0.0,0.0,0.0,0.0,0.0,0.0,0.0,0.0,0.0,0.0,0.0,0.0,0.0,0.0,0.0,0.0,0.0,0.0,0.0,0.0,0.0,0.0,2.9446,0.0,0.0,0.0,0.0,0.0,0.0,0.0,0.0,0.0,0.0,0.0,0.0,0.0,0.0,4.8699,5.0247,5.0153,5.0058,0.0,0.0,4.6787,4.6613,4.7182,4.6329,0.0,0.0,0.0,0.0,0.0,0.0,0.0,0.0,0.0,0.0,0.0,0.0,0.0,0.0,0.0,0.0,0.0,0.0,0.0,0.0,0.0,0.0,0.0,0.0,0.0,0.0,0.0,0.0,0.0,0.0,0.0,0.0,0.0,0.0,0.0,0.0,0.0,0.0,0.0,0.0,0.0,0.0,0.0,0.0,0.0,0.0,0.0,0.0,0.0,0.0,0.0,0.0,0.0,0.0,0.0,2.7788,2.9687,3.0069,2.8706,2.9203,2.9488,2.9448,2.8872,2.8587,0.0,0.0,0.0,0.0,0.0,0.0,0.0,0.0,0.0,0.0,0.0,0.0,0.0,0.0,0.0,0.0,0.0,0.0,0.0,0.0,0.0,0.0,0.0,0.0,0.0,0.0,0.0,0.0,0.0,0.0,0.0,0.0,0.0,0.0,0.0,0.0,0.0,0.0,0.0,0.0,0.0,4.8873,4.8999,5.1195,5.2586,0.0,0.0,4.9426,4.8778,5.0848,5.0358,4.3706,0.0,0.0,0.0,0.0,0.0,0.0,0.0,0.0,0.0,0.0,0.0,0.0,0.0,0.0,0.0,0.0,0.0,0.0,0.0,0.0,0.0,0.0,0.0,0.0,0.0,0.0,0.0,0.0,0.0,0.0,0.0,0.0,0.0,0.0,0.0,0.0,0.0,0.0,0.0,0.0,0.0,0.0,0.0,0.0,0.0,0.0,0.0,0.0,0.0,0.0,0.0,0.0,0.0,2.9525,2.8777,3.0338,3.0946,3.0534,3.0347,3.0592,3.1314,2.9889,2.931,0.0,0.0,0.0,0.0,0.0,0.0,0.0,0.0,0.0,0.0,0.0,0.0,0.0,0.0,0.0,0.0,0.0,0.0,0.0,0.0,0.0,0.0,0.0,0.0,0.0,0.0,0.0,0.0,3.1381,3.1002,3.0828,0.0,0.0,0.0,0.0,0.0,0.0,0.0,0.0,0.0,0.0,4.7925,4.8801,5.0184,0.0,0.0,5.0469,4.9668,5.0714,4.9562,4.7575,4.4484,4.2944,0.0,0.0,0.0,0.0,0.0,0.0,0.0,0.0,0.0,0.0,0.0,0.0,0.0,0.0,0.0,0.0,0.0,0.0,0.0,0.0,0.0,0.0,0.0,0.0,0.0,0.0,0.0,0.0,0.0,0.0,0.0,0.0,0.0,0.0,0.0,0.0,0.0,0.0,0.0,0.0,0.0,0.0,0.0,0.0,0.0,0.0,0.0,0.0,0.0,0.0,0.0,0.0,3.0205,2.9747,3.1187,3.1855,3.1731,3.1423,3.1645,3.2367,3.1085,3.038,0.0,0.0,0.0,0.0,0.0,0.0,0.0,0.0,0.0,0.0,0.0,0.0,0.0,0.0,0.0,0.0,0.0,0.0,0.0,0.0,0.0,0.0,0.0,0.0,0.0,0.0,0.0,0.0,3.2544,3.2102,3.1586,0.0,0.0,0.0,0.0,0.0,0.0,0.0,0.0,0.0,0.0,4.7561,4.8731,4.963,5.0382,5.0954,4.9627,4.8923,4.9969,4.8401,4.6373,4.4397,0.0,0.0,0.0,0.0,0.0,0.0,0.0,0.0,0.0,0.0,0.0,0.0,0.0,0.0,0.0,0.0,0.0,0.0,0.0,0.0,0.0,0.0,0.0,0.0,0.0,0.0,0.0,0.0,0.0,0.0,3.2244,0.0,0.0,0.0,0.0,0.0,0.0,0.0,0.0,0.0,0.0,0.0,0.0,0.0,0.0,0.0,0.0,0.0,0.0,0.0,0.0,0.0,0.0,3.1271,3.0531,3.2264,3.2731,3.1896,3.2284,3.2511,3.2474,3.2399,3.1803,3.0495,0.0,0.0,0.0,0.0,0.0,0.0,0.0,0.0,0.0,0.0,0.0,0.0,0.0,0.0,0.0,0.0,0.0,0.0,0.0,0.0,0.0,0.0,0.0,0.0,0.0,0.0,3.4067,3.3082,3.2307,0.0,0.0,0.0,0.0,0.0,0.0,0.0,0.0,0.0,0.0,4.5223,4.8098,4.8785,5.0007,5.0338,4.9151,4.8297,4.7325,4.6138,4.8068,4.8216,0.0,0.0,0.0,0.0,0.0,0.0,0.0,0.0,0.0,0.0,0.0,0.0,0.0,0.0,0.0,0.0,0.0,0.0,0.0,0.0,0.0,0.0,0.0,0.0,0.0,0.0,0.0,3.6587,3.5739,0.0,0.0,0.0,0.0,0.0,0.0,0.0,0.0,0.0,0.0,0.0,3.8379,3.9417,0.0,0.0,0.0,0.0,0.0,0.0,0.0,0.0,0.0,0.0,0.0,0.0,3.2201,3.24,3.3408,3.3923,3.3969,3.3258,3.3261,3.4043,3.2765,3.1243,2.9564,0.0,0.0,0.0,0.0,0.0,0.0,0.0,0.0,0.0,0.0,0.0,0.0,0.0,0.0,0.0,0.0,0.0,0.0,0.0,0.0,0.0,0.0,0.0,0.0,0.0,3.3799,0.0,0.0,0.0,0.0,0.0,0.0,0.0,0.0,0.0,0.0,0.0,3.9945,4.2047,4.4749,4.675,4.7417,4.8663,4.9734,0.0,0.0,0.0,0.0,0.0,0.0,0.0,0.0,0.0,0.0,0.0,0.0,0.0,0.0,5.3402,4.9205,4.8095,4.7518,4.6566,0.0,0.0,0.0,0.0,0.0,0.0,0.0,0.0,0.0,0.0,0.0,0.0,0.0,0.0,0.0,0.0,3.8062,0.0,0.0,0.0,0.0,0.0,0.0,0.0,0.0,3.9977,4.0807,4.0925,4.1947,4.1622,0.0,3.9743,3.7682,0.0,0.0,0.0,0.0,0.0,0.0,0.0,0.0,3.2623,3.3293,3.3735,3.4207,3.4698,3.3624,3.3509,3.4491,3.3026,3.1619,3.0385,3.0861,3.0685,0.0,0.0,0.0,0.0,0.0,0.0,0.0,0.0,0.0,0.0,0.0,0.0,0.0,0.0,0.0,0.0,0.0,0.0,0.0,0.0,0.0,0.0,0.0,3.4489,0.0,0.0,0.0,0.0,0.0,0.0,0.0,0.0,0.0,3.8848,4.0265,4.2011,4.3927,4.5484,4.6652,4.7119,0.0,0.0,0.0,0.0,0.0,0.0,0.0,4.8115,4.8604,4.7969,4.7877,4.92,5.251,5.4574,5.3286,0.0,0.0,5.1917,5.0743,5.0043,4.9135,4.8364,4.7828,4.7836,4.7625,4.7407,0.0,0.0,0.0,0.0,0.0,0.0,0.0,0.0,4.0815,4.096,0.0,4.0455,0.0,0.0,0.0,0.0,0.0,0.0,0.0,0.0,4.2007,4.3242,4.3284,4.3649,4.2892,4.1274,4.1483,4.015,3.7367,3.5305,0.0,0.0,0.0,0.0,0.0,0.0,3.2655,3.3351,3.3372,3.3587,3.4081,3.3457,3.3345,3.3848,3.324,3.2866,3.2819,3.2179,3.1524,3.0879,3.1446,0.0,0.0,0.0,0.0,0.0,0.0,0.0,0.0,0.0,0.0,0.0,0.0,0.0,0.0,0.0,0.0,0.0,0.0,0.0,0.0,3.513,0.0,0.0,0.0,0.0,0.0,0.0,0.0,0.0,0.0,0.0,3.992,4.2618,4.5277,4.6655,0.0,0.0,0.0,0.0,4.7838,4.8146,4.8591,4.9039,4.9208,5.0823,5.1127,4.8498,0.0,0.0,4.999,5.2573,5.4226,5.1998,5.3443,5.5409,5.6589,5.4991,5.3836,5.3644,5.2036,5.0978,5.0803,5.0013,4.9618,4.2908,0.0,0.0,0.0,0.0,4.162,4.2584,4.431,4.4589,4.4026,4.3005,4.2521,0.0,0.0,0.0,0.0,0.0,0.0,3.964,4.0951,4.2191,4.3076,4.3603,4.4221,4.396,4.2976,4.2516,4.1459,3.9851,3.8228,3.6191,3.3727,0.0,0.0,0.0,0.0,3.3613,3.4255,3.4111,3.4099,3.4218,3.3587,3.3324,3.3475,3.3271,3.2982,3.2494,3.273,3.2573,3.1895,3.2053,0.0,0.0,0.0,0.0,0.0,0.0,0.0,0.0,0.0,0.0,0.0,0.0,0.0,0.0,0.0,0.0,0.0,0.0,0.0,3.563,3.6039,3.6228,0.0,0.0,0.0,0.0,0.0,0.0,0.0,0.0,0.0,4.3962,4.4883,4.581,0.0,0.0,4.7864,4.7883,4.8253,4.8934,5.0043,0.0,0.0,0.0,5.0801,5.0806,5.0504,5.2283,5.3288,5.2123,5.3352,5.3923,5.2138,5.2855,5.3521,5.2838,5.3096,5.2886,5.2071,5.1706,5.1487,5.0996,5.068,5.0391,4.6676,4.5981,4.3959,4.3485,4.4085,4.3974,4.4728,4.6032,4.6442,4.6028,4.504,4.4746,4.3291,4.1018,3.969,0.0,0.0,0.0,4.03,4.1786,4.2224,4.2918,4.3768,4.4234,4.3984,4.3091,4.2671,4.1852,4.0696,3.9867,3.8184,3.5776,0.0,0.0,3.3534,3.374,3.4073,3.4448,3.4213,3.4054,3.408,3.3551,3.3166,3.2898,3.3166,3.3103,3.2734,3.3072,3.3119,3.2734,3.2703,3.2703,0.0,0.0,0.0,0.0,0.0,0.0,0.0,0.0,0.0,0.0,0.0,3.4101,3.4101,0.0,0.0,0.0,3.4985,3.5718,3.705,3.7496,0.0,0.0,0.0,0.0,0.0,0.0,0.0,4.1117,4.3172,4.4989,4.6175,4.6828,4.7556,4.8541,4.8528,4.8561,4.8858,0.0,4.9531,5.0778,5.1581,5.2056,5.1958,5.1587,5.1279,5.115,5.15,5.1707,5.1297,5.166,5.1558,5.0592,5.0575,5.0637,4.9679,4.9923,5.0649,5.1197,5.1698,5.1751,5.1031,5.0788,5.0399,4.936,4.9566,4.5897,4.4703,4.5267,4.5873,4.6347,4.6756,4.7116,4.721,4.7072,4.6781,4.5937,4.4597,4.2603,0.0,4.0497,4.0514,4.1068,4.2152,4.2152,4.2724,4.3693,4.3711,4.3179,4.2152,4.2152,4.1557,4.0483,4.038,3.9621,3.8167,3.6528,3.5218,3.4258,3.4201,3.4151,3.4142,3.3889,3.3736,3.3694,3.345,3.3035,3.2418,3.3029,3.3372,3.3372,3.3398,3.3424,3.3424,3.3424,3.3424,3.3424,0.0,0.0,0.0,0.0,0.0,0.0,0.0,0.0,0.0,0.0,0.0,0.0,0.0,0.0,0.0,3.6131,0.0,3.9023,3.9272,0.0,0.0,0.0,4.0096,4.0019,4.1043,4.2011,4.268,0.0,0.0,4.6821,0.0,4.9729,5.1076,5.0189,4.9632,5.0293,4.9813,4.9687,5.046,5.1056,5.1708,5.2188,5.2148,5.1597,5.0522,4.9258,4.8495,4.853,4.8442,4.8117,4.745,4.7274,4.7299,4.7202,4.684,4.7342,5.0761,5.1384,5.1224,5.0497,5.0042,4.9381,5.0121,4.9763,4.9747,4.9716,4.9657,4.9053,4.9358,5.0239,4.9231,4.8491,4.7899,4.669,4.5101,4.3288,4.2748,4.2073,4.13,4.13,4.1473,4.1733,4.1733,4.1866,4.2148,4.2148,4.1998,4.1773,4.1733,4.1429,4.0849,4.0296,3.9416,3.819,3.7176,3.6154,3.5118,3.4897,3.4675,3.4399,3.4151,3.3899,3.3694,3.3658,3.3423,3.3082,3.3614,3.3899,3.3899,3.4267,3.4448,3.4431,3.4448,3.4431,3.4431,3.3706,0.0,0.0,0.0,0.0,0.0,0.0,0.0,0.0,0.0,3.6451,3.5337,0.0,3.7015,0.0,3.7631,3.8809,4.0446,4.0625,0.0,0.0,4.2646,4.2701,4.2676,4.2421,4.2486,4.3232,4.4366,4.5396,4.6147,4.7674,4.8855,4.9258,4.9804,5.0206,5.038,5.0258,4.998,4.9784,5.0292,5.0697,5.0357,4.9887,4.9468,4.9056,4.7732,4.6951,4.7555,4.7126,4.6512,4.587,4.6133,4.6115,4.5366,4.5932,4.6723,4.7504,4.7624,4.7638,4.7736,4.7304,4.6811,4.99,5.0072,5.0961,5.1212,5.0925,5.0289,5.0142,5.0287,4.9671,4.8716,4.7485,4.6177,4.4587,4.281,4.2775,4.2337,4.1622,4.1604,4.1604,4.1604,4.1604,4.1604,4.1604,4.1604,4.1604,4.1587,4.1253,4.0985,4.0755,4.0018,3.9107,3.817,3.7698,3.696,3.5927,3.5571,3.5214,3.4913,3.4785,3.4585,3.4342,3.4284,3.4152,3.3892,3.4276,3.4268,3.3762,3.4484,3.4714,3.4339,3.4627,3.4793,3.4776,3.4388,3.4456,0.0,0.0,0.0,0.0,0.0,0.0,0.0,0.0,0.0,0.0,0.0,3.8374,3.8957,3.9439,4.0493,4.2434,4.2728,4.3032,4.3585,4.4023,4.3995,4.3313,4.3133,4.322,4.3622,4.413,4.4879,4.5957,4.6883,4.7758,4.8468,4.9117,4.9534,4.9561,4.9579,4.9422,4.9055,4.9397,4.9468,4.8671,4.7996,4.739,4.6993,4.5975,4.5343,4.5747,4.5484,4.4957,4.4308,4.4407,4.4495,4.3912,4.4223,4.4775,4.4979,4.4857,4.5156,4.6279,4.6428,4.6228,4.9276,5.012,5.0625,5.0642,5.0326,5.0217,4.967,4.8914,4.9127,4.82,4.6456,4.5401,4.415,4.2793,4.2775,4.2377,4.1622,4.1604,4.1604,4.1604,4.1604,4.1604,4.1604,4.1604,4.1569,4.1429,4.0818,4.045,4.0327,3.9533,3.8813,3.8111,3.8023,3.7475,3.652,3.6182,3.5842,3.5476,3.5537,3.5487,3.5304,3.5144,3.4975,3.4837,3.4915,3.4492,3.3564,3.4505,3.4716,3.4028,3.4622,3.5045,3.5028,3.5391,3.5689,0.0,3.6838,0.0,0.0,0.0,0.0,0.0,0.0,0.0,0.0,3.8448,3.9439,4.0976,4.1191,4.2152,4.4356,4.4771,4.4614,4.4001,4.4605,4.4536,4.3167,4.343,4.3763,4.3746,4.3763,4.4308,4.5477,4.5916,4.66,4.7495,4.7846,4.789,4.7933,4.8267,4.853,4.8275,4.8152,4.7766,4.6986,4.6344,4.5705,4.5045,4.422,4.3658,4.3834,4.3763,4.3469,4.2929,4.289,4.2904,4.2869,4.2653,4.2721,4.349,4.3422,4.3756,4.533,4.6037,4.6067,4.9222,4.838,4.9469,4.9532,4.8888,4.8876,4.912,4.9445,4.8295,4.6905,4.5345,4.4512,4.3641,4.281,4.2775,4.2354,4.1604,4.1604,4.1604,4.1604,4.1604,4.1604,4.1604,4.1604,4.1271,4.0731,4.0555,4.0186,3.9533,3.8708,3.8251,3.8093,3.7496,3.6968,3.6523,0.0,0.0,0.0,3.5803,3.6021,3.636,3.5757,3.5587,3.593,3.5188,0.0,3.4469,3.5063,3.5321,3.5197,3.5803,0.0,0.0,0.0,0.0,0.0,0.0,0.0,0.0,0.0,0.0,0.0,3.9579,3.9212,3.8708,3.9349,4.0445,4.1939,4.2119,4.2869,4.4645,4.4869,4.4889,4.4857,4.4968,4.4729,4.3816,4.3289,4.3009,4.3009,4.3009,4.3114,4.3512,4.4518,4.515,4.5027,4.5343,4.5449,4.4922,4.6923,4.7766,4.6221,4.587,4.5501,4.4676,4.4466,4.436,4.3992,4.2938,4.2394,4.2879,4.2762,4.2551,4.2359,4.2575,4.291,4.3213,4.3214,4.3267,4.3798,4.3822,4.3808,4.394,4.4033,4.4062,4.8625,0.0,4.8837,4.8661,0.0,4.7977,4.7959,4.7924,4.7151,4.5747,4.3957,4.3535,4.2938,4.2219,4.2219,4.2008,4.1604,4.1604,4.1648,4.174,4.174,4.174,4.1762,4.1481,4.1089,4.0634,3.9944,3.9401,3.8956,3.8135,3.7708,3.7688,3.7222,3.6911,3.6768,3.6911,3.6831,3.6433,3.6433,3.6582,3.6818,3.6392,3.6225,3.637,0.0,0.0,0.0,0.0,0.0,0.0,0.0,0.0,0.0,0.0,0.0,3.7714,3.8212,3.8627,3.8999,3.9682,4.01,4.0117,4.0488,4.0523,4.0023,4.0403,4.1139,4.2271,4.2439,4.3004,4.4152,4.4364,4.4272,4.4003,4.3974,4.3641,4.2886,4.2447,4.2236,4.2219,4.2201,4.2359,4.278,4.343,4.3957,4.3921,4.4237,4.422,4.3693,4.4992,4.5712,4.4694,4.4501,4.4237,4.3553,4.336,4.3184,4.2763,4.2295,4.2125,4.2426,4.2504,4.2519,4.2501,4.2676,4.2867,4.3069,4.3266,4.3474,4.366,4.3857,4.3939,4.3726,4.3712,4.3744,4.7884,4.8091,4.8091,4.7723,4.7187,4.7187,4.666,4.5793,0.0,0.0,0.0,4.2703,4.2263,4.167,4.1714,4.1736,4.1719,4.1736,4.1823,4.1977,4.1977,4.1977,4.1941,4.1368,4.0938,4.0577,3.9316,3.8628,3.8486,3.773,3.7353,3.7334,3.7041,3.6874,3.6853,3.6939,3.6989,3.6989,3.6989,3.7077,3.7183,3.6961,3.6821,3.6776,3.6661,3.6185,3.5356,3.615,3.6302,3.5612,3.6287,3.6774,3.6951,3.7471,3.7945,3.8258,3.9425,3.9913,3.9521,4.058,4.1016,4.0406,4.1036,4.1386,4.1255,4.1255,4.1609,4.241,4.2573,4.294,4.3652,4.3816,4.3605,4.2886,4.2775,4.2517,4.1762,4.1604,4.1639,4.1604,4.1639,4.185,4.2482,4.2723,4.2938,4.3377,4.357,4.343,4.2851,4.3167,4.3693,4.3711,4.3553,4.3237,4.278,4.2587,4.2346,4.1952,4.2058,4.2216,4.234,4.2638,4.2885,4.2885,4.2941,4.3032,4.3069,4.3336,4.3491,4.3508,4.3761,4.4005,4.4005,4.4005,4.3989,4.7119,4.6512,4.653,4.646,4.6354,4.6372,4.5547,4.4237,4.422,4.3693,4.2763,4.226,4.1976,4.1852,4.2082,4.2205,4.2205,4.2205,4.2225,0.0,4.2246,4.2246,4.2192,4.1446,4.0733,3.9998,3.9126,3.8361,3.7791,3.7612,3.7576,3.7469,3.6845,3.638,3.6285,3.6751,3.6989,3.6989,3.6989,3.7306,3.7918,3.7301,3.7264,3.7804,3.6613,3.5896,3.5733,3.5894,3.5896,3.5771,3.6429,3.7085,3.7752,3.7812,3.8436,3.9813,4.0145,4.0556,4.1174,4.1437,4.1507,4.142,4.149,4.1515,4.1403,4.1493,4.1853,4.2647,4.2717,4.3073,4.3758,4.3834,4.3518,4.2903,4.2758,4.2482,4.171,4.1604,4.1604,4.1604,4.1604,4.1622,4.185,4.2359,4.2535,4.2219,4.2605,4.2693,4.2078,4.185,4.2219,4.2675,4.2359,4.1938,4.193,4.178,4.1903,4.2107,4.2195,4.2382,4.2676,4.2978,4.3246,4.3319,4.3487,4.3689,4.3758,4.3876,4.3855,4.382,4.3862,4.3912,4.3856,4.3838,4.3912,4.653,4.6232,4.6214,4.6295,4.6405,4.61,4.5338,4.4258,4.3815,4.3125,4.2331,4.2179,4.2103,4.2124,4.2246,4.2308,4.2308,4.2308,4.2369,4.247,4.2452,4.247,4.2344,4.1312,4.0522,4.0015,3.8941,3.8258,3.7916,3.738,3.7112,3.7041,3.6184,3.5669,3.5508,3.6159,3.6471,3.6355,3.6796,3.7165,3.7479,3.7183,3.7165,3.7479,3.6777,3.6461,3.6443,3.6461,3.6443,3.6461,3.6738,3.7086,3.7436,3.7761,3.8303,3.9063,3.9518,3.9925,4.0323,4.0762,4.1165,4.1552,4.1604,4.1565,4.1515,4.156,4.1762,4.2113,4.2148,4.2289,4.2605,4.2658,4.2517,4.2201,4.2148,4.2008,4.1692,4.1604,4.1604,4.1604,4.1604,4.1604,4.1604,4.192,4.2061,4.1692,4.1973,4.199,4.1639,4.1604,4.1727,4.2043,4.1832,4.1732,4.1874,4.192,4.2092,4.2462,4.2715,4.2903,4.3087,4.3181,4.3252,4.3599,4.3558,4.3562,4.3856,4.4005,4.3838,4.341,4.3355,4.3225,4.2872,4.2686,4.2705,4.6385,4.6392,4.6368,4.6406,4.6406,4.5962,4.5249,4.43,4.3718,4.2959,4.2157,4.2269,4.2369,4.2369,4.2412,4.245,4.2432,4.2432,4.2512,4.265,4.2488,4.2398,4.2255,4.0944,4.0149,3.9896,3.8757,3.8209,3.8085,3.7244,3.6565,3.6242,3.5752,3.5365,3.5066,3.5739,3.6107,3.6186,3.671,3.6989,3.6989,3.6989,3.6989,3.6989,3.6989,3.6989,3.6989,3.6989,3.6989,3.6989,3.6989,3.7077,3.7271,3.7795,3.8181,3.8392,3.8954,3.9322,3.9357,3.9866,4.0463,4.1025,4.1253,4.1358,4.1341,4.1358,4.1429,4.1569,4.1639,4.1639,4.1674,4.1657,4.1604,4.1604,4.1604,4.1622,4.1604,4.1604,4.1604,4.1604,4.1481,4.1376,4.1534,4.1446,4.1411,4.1569,4.1604,4.1626,4.1697,4.1723,4.1744,4.1831,4.1788,4.1852,4.2154,4.23,4.2501,4.2867,4.3159,4.3243,4.3232,4.2976,4.2878,4.3246,4.2912,4.2779,4.3299,4.3392,4.3132,4.2649,4.2519,4.2333,4.1887,4.1516,4.1367,4.6911,4.6911,4.6911,4.6506,4.5922,4.5802,4.491,4.3664,4.3673,4.3306,4.2586,4.257,4.257,4.2609,4.2747,4.2843,4.2806,4.2825,4.2826,4.2755,4.2121,4.1776,4.1668,4.0238,3.9496,3.937,3.8572,3.8136,3.81,3.7341,3.6238,3.5103,3.5953,3.6087,3.5534,3.583,3.6411,3.7135,3.7052,3.6989,3.6989,3.6989,3.6989,3.6989,3.6989,3.6989,3.6954,3.6989,3.6989,3.6989,3.6989,3.7288,3.7865,3.8041,3.8409,3.9059,3.9217,3.9322,3.9305,3.9375,3.9463,3.9529,4.0217,4.0608,4.0608,4.0608,4.0906,4.1341,4.1552,4.1481,4.1587,4.1552,4.1516,4.1499,4.1534,4.1604,4.1534,4.1604,4.1604,4.1604,4.092,4.0836,4.1236,4.0937,4.0849,4.1288,4.135,4.148,4.176,4.1884,4.2007,4.2336,4.2346,4.2126,4.221,4.2521,4.2776,4.3193,4.3334,4.3192,4.2924,4.2681,4.2667,4.224,4.185,4.1813,4.1906,4.1813,4.1887,4.1776,4.1664,4.1609,4.1497,4.0992,4.0568,4.6998,4.6998,4.6998,4.6624,4.5928,4.5162,4.4433,4.382,4.3413,4.3075,4.2804,4.2786,4.2786,4.2786,4.2863,4.2919,4.2883,4.2429,4.2268,4.2341,4.1452,4.1089,4.1085,4.0,3.9387,3.9278,3.8118,3.7484,3.7357,3.6671,3.5494,3.4157,3.4963,3.5011,3.4215,3.4715,3.5151,3.535,3.5614,3.5981,3.6456,3.68,3.6779,3.6391,3.6761,3.6761,3.6408,3.6761,3.6777,3.6373,3.6724,3.6708,3.611,3.6935,3.7391,3.7303,3.769,3.8128,3.855,3.8585,3.8813,3.9269,3.9603,3.9796,3.9796,3.9779,3.9937,4.0182,4.0253,4.0231,4.0284,4.0656,4.0937,4.0976,4.0959,4.0959,4.0937,4.0533,4.0253,4.0217,3.9989,3.9866,4.013,3.9989,3.9919,4.0243,4.0408,4.0712,4.0804,4.0983,4.1174,4.136,4.1415,4.1724,4.2105,4.2778,4.2861,4.2578,4.2762,4.2841,4.2217,4.1609,4.1349,4.1512,4.1163,4.1126,4.1609,4.1534,4.1497,4.1107,4.0346,4.0123,4.0123,3.9863,3.9658,4.7183,4.7165,4.6968,4.6399,4.5585,4.4643,4.4123,4.3925,4.3378,4.3105,4.3124,4.3105,4.2996,4.2814,4.2867,4.2848,4.2705,4.2105,4.1812,4.1762,4.0843,4.0495,4.0571,3.9727,3.9263,3.9044,3.7858,3.7028,3.6765,3.6474,3.5372,3.4045,3.432,3.424,3.3646,3.4085,3.4349,3.4468,3.4816,3.5261,3.581,3.621,3.622,3.5881,3.6145,3.6075,3.5565,3.6076,3.611,3.5565,3.6057,3.5883,3.4864,3.5971,3.6496,3.6215,3.6443,3.6987,3.7742,3.7795,3.8058,3.8602,3.8831,3.8971,3.8968,3.8968,3.8968,3.8989,3.8796,3.8796,3.9357,3.9814,4.013,4.0186,4.0186,4.019,4.0264,3.9752,3.9509,3.9435,3.9353,3.9135,3.9171,3.935,3.9585,3.9747,3.9893,4.0053,4.0128,4.0474,4.0651,4.07,4.1024,4.1326,4.1844,4.2314,4.2345,4.2134,4.2151,4.2136,4.146,4.0736,4.0197,4.0531,4.0253,4.0178,4.042,4.0661,4.0828,4.0178,3.9584,3.9194,3.9324,3.912,3.912,4.7657,4.7512,4.6825,4.5754,4.4583,4.4474,4.4178,4.3743,4.3647,4.3646,4.3629,4.3629,4.3221,4.2599,4.2777,4.2758,4.2513,4.2127,4.1721,4.1267,4.0459,4.0105,4.0065,3.9324,3.894,3.888,3.789,3.6989,3.623,3.6848,3.6322,3.4658,3.4658,3.4624,3.4434,3.431,3.4647,3.5115,3.5058,3.5152,3.5188,3.5084,3.5241,3.5603,3.5198,3.4882,3.4776,3.4812,3.4812,3.4759,3.4864,3.4794,3.4723,3.539,3.6092,3.6654,3.6233,3.6233,3.6919,3.7115,3.7167,3.7273,3.7873,3.8184,3.8207,3.8224,3.8224,3.8184,3.7699,3.7857,3.8983,3.93,3.9423,3.9423,3.9399,3.9549,3.9745,3.9553,3.9749,3.9464,3.8839,3.8519,3.8644,3.9339,3.967,3.9967,4.0239,4.0328,4.0496,4.0756,4.0901,4.1139,4.13,4.14,4.1153,4.1652,4.1797,4.1386,4.12,4.1367,4.0847,4.0341,3.9932,3.9602,3.9472,3.9361,3.925,3.9287,3.9435,3.9268,3.9305,3.9101,3.9101,3.9101,3.9101,4.616,4.6108,4.5469,4.4929,4.4492,4.4138,4.3889,4.3714,4.3714,4.3714,4.3714,4.3714,4.3333,4.2752,4.2677,4.2592,4.2405,4.1351,4.104,4.1219,4.0004,3.9394,3.9467,3.9094,3.891,3.8707,3.7507,3.6376,3.5791,3.6859,3.6886,3.5802,3.5571,3.5263,3.4622,3.4021,3.39,3.4086,3.3966,3.4101,3.4499,3.3972,3.3964,3.4623,3.4783,3.4606,3.4147,3.457,3.4623,3.4147,3.448,3.4231,3.3424,3.3915,3.4688,3.5444,3.582,3.6124,3.6442,3.7014,3.7392,3.7391,3.7604,3.778,3.7781,3.7781,3.7819,3.7842,3.77,3.7898,3.8364,3.8768,3.9013,3.9205,3.9225,3.9029,3.8636,3.8204,3.7701,3.7216,3.6856,3.6892,3.7467,3.7718,3.8148,3.881,3.912,3.9319,3.9462,3.9632,3.9922,3.9968,4.0011,3.9964,3.9845,4.0911,4.1404,4.0606,4.0215,4.0234,3.9918,3.9714,3.9361,3.9361,3.912,3.9101,3.9157,3.9138,3.9101,3.9101,3.9101,3.9101,3.9101,3.9101,3.9101,4.5402,4.5111,4.4766,4.4542,4.4334,4.3985,4.3892,4.3955,4.3971,4.3971,4.3952,4.3952,4.3617,4.3069,4.2839,4.2764,4.2563,4.1004,4.061,4.118,3.9807,3.9207,3.9283,3.9188,3.9138,3.8934,3.7708,3.6567,3.584,3.6544,3.6671,3.6221,3.573,3.5095,3.4422,3.3846,3.3559,3.3477,3.3357,3.3575,3.388,3.3344,3.3196,3.3682,3.4119,3.407,3.3522,3.4001,3.4055,3.3647,3.3899,3.3741,3.3053,3.3176,3.3776,3.4765,3.5208,3.5687,3.6131,3.6595,3.7041,3.7523,3.7363,3.7309,3.7614,3.7703,3.7792,3.7913,3.7929,3.7962,3.7931,3.8124,3.8418,3.8701,3.8609,3.8281,3.7838,3.711,3.6492,3.608,3.586,3.6021,3.644,3.6601,3.6989,3.7557,3.8055,3.8361,3.8405,3.8793,3.9101,3.9101,3.9212,3.925,3.9282,4.0057,4.0494,3.9825,3.964,3.951,3.9417,3.9194,3.9101,3.9101,3.9101,3.9101,3.9101,3.9101,3.9101,3.9101,3.9101,3.9101,3.9101,3.9101,3.9101,4.5562,4.4898,4.4894,4.4547,4.4144,4.4113,4.4244,4.4411,4.444,4.4411,4.4397,4.4454,4.4004,4.3412,4.3221,4.3262,4.2893,4.1255,4.0611,4.0877,4.0046,3.9627,3.9564,3.954,3.9452,3.9377,3.867,3.7735,3.6776,3.6385,3.6309,3.6199,3.523,3.4724,3.417,3.421,3.396,3.3803,3.3716,3.3613,3.3426,3.3214,3.3137,3.3173,3.3247,3.3219,3.2985,3.3023,3.3078,3.3007,3.2991,3.3277,3.3602,3.3281,3.3581,3.4618,3.4474,3.4865,3.5989,3.572,3.6219,3.7166,3.6916,3.7055,3.782,3.7963,3.8064,3.8245,3.8259,3.8086,3.7658,3.7573,3.7677,3.7931,3.7493,3.7169,3.7098,3.6641,3.6149,3.5956,3.5636,3.5763,3.6047,3.6182,3.6379,3.6865,3.7418,3.7839,3.79,3.8423,3.8952,3.8952,3.8841,3.8785,3.8934,3.9101,3.9157,3.9138,3.9194,3.9194,3.9212,3.9101,3.9101,3.9101,3.9101,3.9101,3.9101,3.9101,3.9101,3.9101,3.9101,3.9101,3.9101,3.9101,3.9101,4.4304,4.4116,4.4294,4.4256,4.4124,4.4292,4.4426,4.4501,4.4482,4.4482,4.4528,4.4592,4.414,4.3466,4.3401,4.3401,4.3144,4.1539,4.1014,4.1385,4.076,4.0078,3.9683,3.9608,3.9289,3.8863,3.9082,3.8708,3.799,3.8065,3.8358,3.8114,3.7214,3.6689,3.6347,3.5438,3.4723,3.4509,3.3954,3.3605,3.3408,3.3334,3.3319,3.3319,3.3286,3.3345,3.3412,3.3193,3.3057,3.3039,3.2963,3.3025,3.315,3.3025,3.3134,3.3578,3.4049,3.4331,3.49,3.5523,3.6191,3.7126,3.7236,3.7656,3.8361,3.8507,3.8533,3.8673,3.8691,3.8453,3.7914,3.7752,3.7521,3.7173,3.6883,3.6496,3.6098,3.5399,3.4912,3.4825,3.471,3.495,3.5515,3.5689,3.5919,3.6474,3.6885,3.7071,3.7188,3.7764,3.7949,3.7596,3.7875,3.8265,3.8265,3.8358,3.8488,3.8785,3.899,3.9082,3.9101,3.9101,3.9101,3.9101,3.9101,3.9101,3.9101,3.9101,3.9101,3.9101,3.9101,3.9101,3.9101,3.9101,3.9101,4.4147,4.4177,4.4327,4.4398,4.4412,4.4573,4.4659,4.4659,4.4627,4.4619,4.4605,4.4725,4.4448,4.3936,4.3964,4.3958,4.3773,4.2723,4.219,4.1882,4.0829,4.0096,3.9646,3.9608,3.9157,3.8525,3.8845,3.8826,3.8338,3.8525,3.8727,3.8689,3.8059,3.7555,3.7432,3.6374,3.5571,3.51,3.4477,3.3939,3.3575,3.3437,3.3393,3.3393,3.3393,3.3466,3.3563,3.3345,3.3238,3.3283,3.3162,3.3101,3.3178,3.3208,3.322,3.3414,3.3814,3.4306,3.4629,3.5074,3.5991,3.7044,3.7256,3.7558,3.8311,3.8677,3.8816,3.828,3.8382,3.8141,3.7238,3.6996,3.6625,3.585,3.606,3.5832,3.5138,3.4531,3.4271,3.4296,3.4247,3.4494,3.4841,3.5027,3.5182,3.5696,3.6067,3.6253,3.642,3.6941,3.6866,3.6853,3.7169,3.7411,3.7461,3.7628,3.7819,3.8339,3.8859,3.899,3.9101,3.9101,3.9101,3.9101,3.9101,3.9101,3.9101,3.9101,3.9101,3.9101,3.9101,3.9101,3.9101,3.9101,3.9101,4.4883,4.4895,4.4883,4.4858,4.4858,4.487,4.4858,4.4883,4.4769,4.4644,4.4612,4.4524,4.4518,4.4518,4.4316,4.4409,4.47,4.4165,4.3253,4.2002,4.0685,3.9796,3.9646,3.9608,3.9214,3.8601,3.8525,3.8488,3.8488,3.8037,3.7636,3.8426,3.7938,3.7324,3.7459,3.6988,3.6466,3.585,3.5229,3.4536,3.3877,3.3549,3.3448,3.3462,3.3462,3.3509,3.3563,3.3534,3.3549,3.3633,3.3462,3.3462,3.3629,3.3698,3.3721,3.3881,3.3991,3.4339,3.4734,3.4544,3.5175,3.7114,3.698,3.6859,3.7952,3.8534,3.8412,3.7349,3.7584,3.7303,3.6112,3.5739,3.5287,3.455,3.5027,3.5008,3.4383,3.4216,3.4216,3.4216,3.4216,3.4234,3.4321,3.4339,3.4383,3.4655,3.5157,3.538,3.577,3.6216,3.6495,3.6513,3.637,3.6588,3.6643,3.6662,3.6941,3.7578,3.8191,3.8544,3.8952,3.9064,3.9082,3.9101,3.9101,3.9101,3.9101,3.9101,3.9101,3.9101,3.9101,3.9101,3.9101,3.9101,3.9101,4.4895,4.4895,4.4895,4.4895,4.4895,4.4895,4.4876,4.4819,4.4194,4.3954,4.381,4.3392,4.3217,4.3054,4.321,4.346,4.3758,4.3246,4.2737,4.2102,4.1048,4.0153,3.9702,3.9608,3.9495,3.9232,3.9176,3.927,3.9251,3.8951,3.8969,3.9232,3.8969,3.8876,3.8851,3.8183,3.7729,3.7168,3.5937,3.5195,3.4763,3.4113,3.3842,3.3829,3.3829,3.3913,3.4036,3.4061,3.3842,3.3524,3.3591,3.3629,3.3712,3.3707,3.3815,3.3998,3.4042,3.4085,3.4258,3.4315,3.5151,3.6719,3.6938,3.725,3.7965,3.8232,3.7833,3.7025,3.6961,3.6632,3.5739,3.5485,3.5045,3.4401,3.4476,3.4525,3.429,3.4216,3.4216,3.4216,3.4216,3.4216,3.4216,3.4234,3.4401,3.4822,3.4841,3.4791,3.5237,3.5473,3.5751,3.5343,3.525,3.5603,3.5807,3.5807,3.6105,3.6773,3.7336,3.7838,3.8432,3.9008,3.9045,3.9101,3.9101,3.9101,3.9101,3.9101,3.9101,3.9101,3.9101,3.9101,3.9101,3.9101,3.9101,4.5068,4.5049,4.5049,4.5061,4.5023,4.4669,4.4517,4.4365,4.3642,4.3228,4.3103,4.2868,4.2599,4.2519,4.2639,4.3099,4.3593,4.2803,4.2373,4.2075,4.0879,4.004,3.9683,3.9608,3.9608,3.9608,3.9608,3.9589,3.9589,3.9608,3.9608,3.957,3.9608,3.9608,3.9483,3.9008,3.8484,3.7916,3.6646,3.5712,3.5291,3.4443,3.4053,3.3998,3.3998,3.4074,3.4173,3.4245,3.4086,3.378,3.3766,3.3855,3.3934,3.3947,3.4049,3.4252,3.4245,3.4257,3.4344,3.4661,3.5381,3.6283,3.6801,3.7021,3.7174,3.7362,3.7156,3.587,3.6006,3.5733,3.5157,3.4952,3.4729,3.4309,3.4216,3.4216,3.4216,3.4216,3.4216,3.4216,3.4216,3.4216,3.4216,3.4216,3.4439,3.4692,3.4488,3.4569,3.4791,3.4897,3.4934,3.4674,3.4525,3.4878,3.5064,3.5064,3.5343,3.598,3.6699,3.7151,3.7894,3.8674,3.8878,3.8934,3.9027,3.9101,3.9101,3.9101,3.9101,3.9101,3.9101,3.9101,3.9101,3.9101,3.9101,4.5277,4.5277,4.5277,4.5277,4.5152,4.4388,4.4062,4.3854,4.3031,4.2571,4.2462,4.2515,4.2208,4.2373,4.2151,4.2937,4.3757,4.2914,4.2557,4.185,4.0702,3.9646,3.9646,3.9608,3.9608,3.9608,3.9608,3.9608,3.9608,3.9608,3.9608,3.9608,3.9608,3.9608,3.9564,3.93,3.8907,3.8184,3.7081,3.6149,3.551,3.4655,3.4167,3.4148,3.4136,3.4124,3.4173,3.4245,3.4245,3.4074,3.4049,3.4111,3.4257,3.4281,3.4374,3.4525,3.4558,3.455,3.4722,3.5282,3.5905,3.6242,3.6787,3.6775,3.6431,3.6595,3.6149,3.4716,3.4977,3.4934,3.4531,3.4271,3.4271,3.4216,3.4216,3.4216,3.4216,3.4216,3.4216,3.4216,3.4216,3.4216,3.4216,3.4216,3.4271,3.4878,3.4618,3.4531,3.4606,3.4655,3.4599,3.4364,3.4271,3.4253,3.4309,3.4309,3.4717,3.5237,3.6017,3.6662,3.7368,3.8024,3.8451,3.8711,3.8971,3.9101,3.9101,3.9101,3.9064,3.9101,3.9101,3.9101,3.9101,3.9101,3.9101,4.5277,4.5277,4.5277,4.5277,4.5163,4.4399,4.3987,4.3815,4.2412,4.1753,4.1618,4.1141,4.0922,4.0854,4.1036,4.16,4.2917,4.265,4.2481,4.2013,4.0427,3.9695,3.9608,3.9608,3.9608,3.9608,3.9608,3.9627,3.9627,3.9646,3.9627,3.9646,3.9646,3.9608,3.9596,3.9502,3.9096,3.8295,3.7379,3.655,3.5768,3.4922,3.4439,3.4439,3.445,3.4461,3.4454,3.4517,3.4506,3.445,3.4328,3.4269,3.4305,3.4316,3.4416,3.4558,3.465,3.465,3.48,3.5503,3.6197,3.6742,3.6932,3.6923,3.6682,3.6117,3.5429,3.4475,3.4395,3.4439,3.4253,3.4216,3.4216,3.4216,3.4216,3.4216,3.4216,3.4216,3.4216,3.4216,3.4216,3.4216,3.4216,3.4216,3.442,3.4915,3.4847,3.4624,3.4513,3.4469,3.4358,3.4216,3.4216,3.4216,3.4216,3.4216,3.4401,3.468,3.5312,3.6222,3.6959,3.7554,3.8024,3.8544,3.9045,3.9064,3.8934,3.8952,3.8897,3.899,3.9045,3.9027,3.9008,3.9027,3.9101,4.5277,4.5277,4.5277,4.5067,4.459,4.3806,4.3204,4.2641,4.1514,4.0941,4.0864,4.0463,4.032,4.032,4.0358,4.1027,4.1805,4.1914,4.1533,4.0939,3.9963,3.9658,3.9608,3.9608,3.9608,3.9608,3.9608,3.9758,4.0002,3.9815,3.9815,4.0096,3.9815,3.9627,3.9608,3.957,3.9126,3.8319,3.7493,3.6716,3.5897,3.5082,3.4612,3.4612,3.4612,3.4612,3.4583,3.4602,3.4612,3.4561,3.4495,3.445,3.445,3.4431,3.4495,3.4599,3.5052,3.5184,3.5428,3.6273,3.7061,3.711,3.7352,3.7011,3.6558,3.585,3.52,3.4481,3.4216,3.4216,3.4216,3.4216,3.4216,3.4216,3.4216,3.4216,3.4216,3.4216,3.4216,3.4216,3.4216,3.4216,3.4216,3.4216,3.4253,3.4587,3.4587,3.4383,3.4364,3.4309,3.429,3.4216,3.4216,3.4216,3.4216,3.4216,3.4216,3.4383,3.4606,3.5646,3.6612,3.7182,3.7703,3.8358,3.9082,3.8711,3.8599,3.8655,3.8637,3.8469,3.8488,3.8711,3.8934,3.9045,3.9101,4.4972,4.5105,4.5086,4.4666,4.393,4.3176,4.2488,4.1724,4.0692,4.0396,4.032,4.032,4.032,4.032,4.032,4.0692,4.1163,4.1181,4.0889,4.0363,3.9869,3.9639,3.9608,3.9608,3.9608,3.9608,3.9608,3.9965,4.0153,4.0021,3.9871,4.0347,3.9965,3.9627,3.9608,3.9383,3.8876,3.8,3.7392,3.6697,3.6066,3.5353,3.5176,3.4913,3.4921,3.4781,3.4669,3.4612,3.4612,3.4612,3.4612,3.4688,3.4771,3.462,3.4612,3.4639,3.5334,3.5709,3.6028,3.7117,3.7875,3.7324,3.7759,3.7417,3.6335,3.5714,3.5113,3.4574,3.4216,3.4216,3.4216,3.4216,3.4216,3.4216,3.4216,3.4216,3.4216,3.4216,3.4216,3.4216,3.4216,3.4216,3.4216,3.4216,3.4216,3.4216,3.4216,3.4216,3.4216,3.4216,3.4216,3.4216,3.4216,3.4216,3.4216,3.4234,3.4234,3.4569,3.455,3.5442,3.6513,3.7151,3.7819,3.8581,3.899,3.8637,3.8451,3.8525,3.8395,3.8024,3.8228,3.8748,3.8971,3.9082,3.9101,4.3596,4.4197,4.4216,4.4121,4.3873,4.3138,4.2622,4.2335,4.0874,4.032,4.032,4.032,4.032,4.032,4.032,4.075,4.1158,4.1057,4.0927,4.0571,4.003,3.962,3.9608,3.9608,3.9608,3.9608,3.9608,3.9739,3.989,3.9664,3.9796,3.9796,3.9702,3.9608,3.9401,3.8901,3.8256,3.7561,3.711,3.6566,3.6104,3.6235,3.619,3.5747,3.5672,3.5315,3.4771,3.465,3.4612,3.4612,3.4612,3.4969,3.524,3.495,3.4763,3.4988,3.5559,3.6066,3.6385,3.7444,3.8076,3.8078,3.8166,3.7766,3.6777,3.5932,3.5225,3.4506,3.4216,3.4216,3.4216,3.4216,3.4216,3.4216,3.4216,3.4216,3.4216,3.4216,3.4271,3.4383,3.4309,3.4216,3.4216,3.4216,3.4216,3.4216,3.4216,3.4216,3.4216,3.4216,3.4216,3.4216,3.4216,3.4216,3.4216,3.4253,3.4364,3.5008,3.5287,3.5844,3.6755,3.7373,3.8061,3.8748,3.8897,3.8599,3.8488,3.8432,3.8284,3.8005,3.8414,3.8878,3.9008,3.9101,3.9101,4.3042,4.3386,4.3376,4.3119,4.2698,4.2316,4.1877,4.1437,4.0645,4.032,4.032,4.032,4.032,4.032,4.032,4.053,4.0642,4.0531,4.045,4.0242,3.9875,3.9608,3.9589,3.9589,3.9608,3.9608,3.9608,3.9833,4.0134,3.9777,3.9815,4.0078,3.9871,3.9608,3.942,3.877,3.7906,3.7223,3.6716,3.6329,3.6047,3.6723,3.681,3.6641,3.646,3.6077,3.5446,3.5259,3.5033,3.4725,3.4612,3.4857,3.5119,3.5371,3.5465,3.5859,3.6291,3.6742,3.7162,3.8276,3.8865,3.8877,3.8732,3.8281,3.7465,3.6608,3.5547,3.4606,3.4216,3.4216,3.4216,3.4253,3.4216,3.4216,3.4234,3.4253,3.4234,3.4234,3.4494,3.4717,3.4531,3.4401,3.4216,3.4216,3.4216,3.4216,3.4253,3.4271,3.4309,3.4216,3.4216,3.4309,3.4364,3.4476,3.442,3.4346,3.4457,3.5101,3.5659,3.6197,3.6625,3.7089,3.7968,3.8859,3.8785,3.8284,3.8265,3.8149,3.8061,3.8042,3.8284,3.8562,3.8915,3.9101,3.9101,4.2393,4.2545,4.2526,4.2144,4.1562,4.1504,4.1189,4.0587,4.0396,4.032,4.032,4.032,4.032,4.0301,4.0273,4.0224,4.0067,3.9875,3.9804,3.9712,3.9406,3.9345,3.9552,3.942,3.9383,3.9608,3.9627,3.9927,4.0153,3.9871,4.0021,4.0096,3.9796,3.9608,3.9439,3.8488,3.7786,3.711,3.6329,3.5991,3.6498,3.7148,3.7373,3.7129,3.7091,3.6603,3.5559,3.5409,3.5127,3.4752,3.465,3.48,3.5138,3.5615,3.6423,3.7312,3.7418,3.7737,3.8189,3.8952,3.9332,3.9244,3.9227,3.8745,3.7886,3.6855,3.5869,3.4922,3.4531,3.4699,3.4866,3.4618,3.4531,3.4513,3.4531,3.4513,3.4643,3.4847,3.5293,3.5274,3.4903,3.4922,3.507,3.5107,3.5293,3.507,3.5107,3.4773,3.4736,3.429,3.4253,3.442,3.4581,3.4754,3.4699,3.4457,3.4624,3.5008,3.5473,3.5937,3.6272,3.6588,3.7578,3.8451,3.8005,3.7596,3.7708,3.8005,3.8154,3.8209,3.8135,3.8358,3.8878,3.9101,3.9087,4.0998,4.1657,4.1638,4.1571,4.1466,4.1447,4.1418,4.1208,4.0559,4.032,4.032,4.032,4.032,4.0291,4.0195,4.0127,4.0036,3.987,3.9728,3.9618,3.9079,3.9076,3.9383,3.8751,3.9239,3.9646,3.9721,3.9627,4.0021,3.9908,3.9702,3.9852,3.989,3.9646,3.9627,3.8206,3.7242,3.6979,3.631,3.6517,3.7718,3.8613,3.8256,3.7542,3.7091,3.6498,3.5334,3.509,3.4846,3.4688,3.4612,3.5345,3.6397,3.616,3.7251,3.8252,3.8627,3.8201,3.8415,3.9014,3.9412,3.9296,3.921,3.8723,3.7878,3.6749,3.6012,3.65,3.5696,3.5361,3.5516,3.5529,3.5398,3.5175,3.4959,3.5064,3.5175,3.4878,3.5386,3.6092,3.5813,3.6185,3.6463,3.6445,3.642,3.616,3.5882,3.5535,3.5182,3.4779,3.4513,3.4742,3.4532,3.4662,3.486,3.4618,3.455,3.4884,3.5491,3.585,3.6259,3.6681,3.6996,3.7554,3.7243,3.7485,3.7986,3.8302,3.8414,3.8469,3.8474,3.8679,3.9008,3.9087,3.9064,4.023,4.0979,4.0903,4.0877,4.086,4.0844,4.0826,4.075,4.0463,4.032,4.032,4.032,4.032,4.0291,4.0234,4.0186,4.0106,3.9965,3.9826,3.9717,3.9277,3.9236,3.9451,3.9308,3.9495,4.0027,4.0328,4.0685,4.0647,4.0491,4.0284,4.0284,4.0272,4.034,4.0046,3.8131,3.7336,3.6885,3.6472,3.6535,3.753,3.8319,3.8507,3.7812,3.7699,3.6761,3.5691,3.5334,3.5033,3.48,3.4612,3.5138,3.6149,3.652,3.7291,3.8403,3.8921,3.8908,3.8957,3.918,3.9227,3.9242,3.9114,3.8757,3.7888,3.6959,3.603,3.5956,3.525,3.5101,3.5312,3.4959,3.486,3.4822,3.5163,3.5126,3.5157,3.5045,3.52,3.6012,3.6816,3.7175,3.7384,3.7143,3.6989,3.6792,3.6519,3.6246,3.5862,3.5441,3.5254,3.5179,3.4808,3.442,3.468,3.4711,3.434,3.4705,3.5882,3.6222,3.6556,3.6909,3.7257,3.7628,3.7838,3.8135,3.8469,3.8637,3.8748,3.8809,3.8837,3.8962,3.9087,3.9007,3.8964,3.9889,4.0636,4.0284,4.0023,3.99,4.0396,4.0412,4.0031,4.0528,4.0539,4.0329,4.032,4.032,4.0291,4.0244,4.0157,4.0036,4.0065,3.9922,3.9743,3.9542,3.9458,3.9455,3.9494,3.9708,4.0816,4.0685,4.1098,4.1554,4.1661,4.1398,4.1135,4.1098,4.1116,4.0516,3.9063,3.7692,3.6678,3.6704,3.6742,3.6948,3.7606,3.7756,3.7681,3.7549,3.7042,3.5859,3.5822,3.5446,3.4789,3.518,3.5769,3.6339,3.6986,3.7667,3.8571,3.9018,3.9216,3.9189,3.9237,3.9197,3.917,3.9124,3.8873,3.8321,3.7466,3.6885,3.6439,3.5603,3.5126,3.481,3.4829,3.4952,3.5101,3.5163,3.5033,3.5144,3.5683,3.6289,3.719,3.7863,3.8011,3.8048,3.7696,3.7501,3.7373,3.7169,3.692,3.6398,3.589,3.5684,3.5465,3.4739,3.44,3.4784,3.4791,3.4408,3.46,3.5776,3.6495,3.6742,3.7151,3.7554,3.7926,3.8321,3.8488,3.8655,3.8878,3.9082,3.9013,3.8962,3.9017,3.9045,3.8964,3.8896,4.0131,4.0801,3.9786,3.8998,3.849,4.0798,4.0762,3.949,4.0877,4.0943,4.0243,4.0272,4.0205,4.0225,4.0138,4.0086,3.9911,3.9911,3.9826,3.9494,3.9071,3.9241,3.9303,3.9288,3.9389,4.0703,4.1004,4.1436,4.2079,4.29,4.2487,4.2023,4.2004,4.1948,4.1347,4.0009,3.7993,3.7024,3.6948,3.6948,3.6686,3.681,3.693,3.6366,3.6104,3.5653,3.4827,3.5465,3.5615,3.4846,3.5833,3.6623,3.6986,3.7486,3.8183,3.8835,3.9075,3.9215,3.9188,3.9188,3.917,3.9129,3.9082,3.9045,3.8785,3.8191,3.7777,3.7368,3.6365,3.6179,3.603,3.5956,3.5529,3.5826,3.5925,3.611,3.6463,3.7243,3.7867,3.8577,3.8715,3.8507,3.8645,3.8275,3.8211,3.809,3.7798,3.7549,3.6582,3.6024,3.5863,3.5504,3.4631,3.4467,3.5012,3.4927,3.4624,3.4921,3.5813,3.642,3.6811,3.7275,3.8056,3.8284,3.8655,3.8748,3.8822,3.899,3.9101,3.9101,3.9087,3.9059,3.9017,3.895,3.8896,3.9232,3.8606,3.9242,3.9303,3.9032,4.048,4.0386,3.9552,4.0484,4.05,3.9659,3.9585,3.9533,3.9623,4.0072,4.0106,3.9962,4.0096,3.9919,3.9721,3.9497,3.9497,3.9503,3.9626,3.9971,4.1229,4.1591,4.2342,4.3562,4.3806,4.3825,4.3487,4.2999,4.2844,4.2187,4.0816,3.8725,3.7242,3.6817,3.6573,3.6948,3.681,3.6704,3.5991,3.6517,3.5841,3.5015,3.5503,3.554,3.5762,3.6511,3.7142,3.7604,3.7959,3.8454,3.9066,3.9151,3.9129,3.9115,3.9129,3.9129,3.9115,3.9101,3.9101,3.9045,3.8377,3.7986,3.7517,3.6829,3.642,3.6551,3.603,3.5714,3.6402,3.6848,3.7039,3.7453,3.8103,3.8326,3.8553,3.8465,3.828,3.8566,3.8832,3.8843,3.8816,3.851,3.8057,3.7095,3.6187,3.604,3.5528,3.4644,3.4415,3.4905,3.4894,3.4827,3.541,3.598,3.6599,3.723,3.8098,3.8748,3.8897,3.8897,3.8934,3.899,3.9045,3.9101,3.9101,3.9059,3.9021,3.8979,3.8954,3.8896,3.8751,3.7994,3.863,3.8874,3.8955,4.0151,4.0024,3.9297,4.0211,4.0118,3.9238,3.8958,3.8906,3.9167,3.9572,4.0015,3.9982,4.0137,4.0003,3.9867,3.9781,3.9928,3.9981,4.0221,4.0778,4.2023,4.2474,4.3149,4.4275,4.4444,4.4369,4.4182,4.3989,4.3726,4.3219,4.1773,3.9758,3.8106,3.7155,3.6441,3.6847,3.6648,3.6554,3.6066,3.6641,3.6603,3.601,3.6336,3.6501,3.6672,3.7111,3.7748,3.8053,3.8313,3.8625,3.8951,3.9129,3.9101,3.9101,3.9101,3.9101,3.9101,3.9101,3.9101,3.8934,3.8544,3.8339,3.7819,3.6891,3.6383,3.6835,3.6272,3.6365,3.7052,3.7225,3.7448,3.7742,3.8234,3.8252,3.8311,3.8293,3.8416,3.8519,3.8825,3.8851,3.8862,3.8715,3.8339,3.7783,3.6908,3.6191,3.5551,3.4655,3.4613,3.471,3.4945,3.5267,3.5988,3.6578,3.7209,3.7914,3.8702,3.9082,3.9027,3.9027,3.9082,3.9101,3.9101,3.9101,3.9101,3.9059,3.9036,3.8997,3.8968,3.8892,3.8868,3.9392,3.7877,3.729,3.7689,3.9854,3.9902,3.8761,3.9904,4.0062,3.9096,3.842,3.8349,3.8842,3.9087,3.9552,3.9939,4.0148,4.0194,4.0084,4.0129,4.0367,4.0695,4.1067,4.1529,4.2862,4.32,4.352,4.4482,4.4482,4.4482,4.4482,4.4332,4.4238,4.4332,4.3613,4.1905,3.9796,3.8694,3.7437,3.6798,3.6479,3.6197,3.6329,3.6904,3.7054,3.6813,3.7277,3.7403,3.7224,3.8165,3.8542,3.8255,3.8704,3.8966,3.9078,3.9115,3.9101,3.9101,3.9101,3.9101,3.9101,3.9101,3.9101,3.9101,3.8952,3.8729,3.8209,3.7684,3.7331,3.7089,3.6773,3.7201,3.7578,3.7801,3.7941,3.8271,3.8428,3.8483,3.8449,3.8597,3.8758,3.8698,3.8704,3.8765,3.8777,3.8792,3.8523,3.8077,3.7456,3.6589,3.573,3.489,3.5014,3.5137,3.5326,3.5717,3.6476,3.7192,3.784,3.8238,3.8693,3.8948,3.905,3.9101,3.9101,3.9101,3.9101,3.9101,3.9101,3.9101,3.9073,3.9036,3.8983,3.8906,3.8402,3.7154,3.7722,3.7974,3.8173,3.9451,3.9723,3.9258,3.919,3.896,3.8462,3.764,3.7314,3.7795,3.8746,3.9311,3.9497,4.011,4.0224,4.0686,4.0651,4.1084,4.1475,4.1781,4.223,4.2994,4.3369,4.3764,4.4482,4.4407,4.4463,4.4482,4.4407,4.4182,4.3782,4.3294,4.2431,4.106,3.9527,3.8206,3.8162,3.7317,3.6686,3.6723,3.7512,3.7676,3.7359,3.8072,3.8035,3.7848,3.8827,3.8955,3.8718,3.9091,3.9064,3.9101,3.9101,3.9101,3.9101,3.9101,3.9101,3.912,3.9101,3.9101,3.9101,3.9101,3.8897,3.8637,3.8223,3.8042,3.8209,3.7726,3.7931,3.8469,3.8679,3.8688,3.8832,3.8859,3.8872,3.8733,3.8773,3.8765,3.8723,3.8707,3.8719,3.8735,3.875,3.8382,3.7951,3.7547,3.6868,3.6009,3.5349,3.5459,3.563,3.6035,3.6505,3.7211,3.7882,3.8506,3.8812,3.8855,3.8934,3.9087,3.9101,3.9101,3.9101,3.9101,3.9101,3.9101,3.9101,3.9101,3.9059,3.9021,3.895,3.78,3.6401,3.7139,3.7683,3.8076,3.8868,3.9392,3.9427,3.8518,3.8044,3.7987,3.7094,3.6698,3.7229,3.817,3.9095,3.9181,4.021,4.0615,4.116,4.1369,4.1845,4.2282,4.2524,4.2999,4.3482,4.3688,4.397,4.3989,4.4064,4.4045,4.4083,4.4369,4.4257,4.3839,4.3463,4.305,4.1698,4.014,3.8657,3.8619,3.8176,3.7364,3.7858,3.8352,3.8559,3.8421,3.844,3.8526,3.863,3.8838,3.917,3.9156,3.9129,3.9101,3.9101,3.9101,3.9101,3.9101,3.9101,3.9231,3.9635,3.9305,3.9101,3.9101,3.9101,3.9101,3.8878,3.8525,3.8637,3.8804,3.8358,3.8549,3.9069,3.9101,3.9077,3.9061,3.9069,3.8969,3.888,3.878,3.8753,3.8723,3.8707,3.8707,3.8707,3.8689,3.8285,3.7936,3.7606,3.7364,3.6725,3.6174,3.6291,3.6595,3.6996,3.7466,3.7999,3.8453,3.8888,3.8964,3.8933,3.9027,3.9087,3.9101,3.9101,3.9101,3.9101,3.9101,3.9101,3.9101,3.9101,3.9101,3.9059,3.9007,3.7081,3.6925,3.6168,3.6358,3.7197,3.8227,3.9043,3.9587,3.8013,3.7761,3.8285,3.6684,3.6309,3.6908,3.7768,3.8453,3.9004,4.0388,4.1016,4.1301,4.1621,4.2397,4.3039,4.3369,4.3595,4.405,4.4144,4.3613,4.3351,4.3501,4.3482,4.3688,4.4257,4.4313,4.4139,4.3839,4.3482,4.2543,4.0828,3.9884,3.999,3.8584,3.8609,3.9089,3.9507,3.9698,3.9621,3.9506,3.9187,3.909,3.9105,3.9115,3.9101,3.9101,3.9101,3.9101,3.9101,3.9101,3.9101,3.9101,3.9361,3.9691,3.9417,3.9212,3.9194,3.9231,3.9101,3.9101,3.8897,3.8971,3.899,3.898,3.8971,3.9147,3.9192,3.9176,3.9165,3.912,3.9016,3.8897,3.8775,3.8726,3.8707,3.8707,3.8707,3.8707,3.8707,3.8652,3.8303,3.801,3.7826,3.7808,3.7382,3.7283,3.7537,3.7684,3.8022,3.8379,3.8553,3.8877,3.8935,3.9007,3.905,3.9073,3.9101,3.9101,3.9101,3.9101,3.9101,3.9101,3.9101,3.9101,3.9101,3.9101,3.9064,3.6731,3.6164,3.5892,3.63,3.7256,3.8674,3.9781,4.0325,3.9392,3.8848,3.8328,3.7236,3.6554,3.6226,3.6983,3.7815,3.8389,3.9023,4.0508,4.1269,4.1983,4.2774,4.3477,4.4054,4.3989,4.3745,4.3595,4.3351,4.2736,4.2881,4.3613,4.4195,4.42,4.4369,4.4332,4.4238,4.4106,4.3398,4.1515,4.134,4.1158,4.0068,4.0317,4.0603,4.0357,4.0466,4.0318,3.9676,3.9258,3.911,3.9096,3.9101,3.9101,3.9101,3.9101,3.9101,3.9101,3.9101,3.9101,3.9101,3.9287,3.9547,3.9268,3.9635,3.9654,3.9491,3.9138,3.9101,3.9231,3.9324,3.9403,3.943,3.9573,3.9771,3.9745,3.9637,3.9599,3.9387,3.9283,3.9068,3.8946,3.8726,3.8707,3.8707,3.8707,3.8707,3.8707,3.8707,3.8634,3.834,3.8175,3.8175,3.8175,3.7948,3.7893,3.8003,3.8379,3.8718,3.88,3.8877,3.895,3.9007,3.905,3.9073,3.9101,3.9101,3.9101,3.9101,3.9101,3.9101,3.9101,3.9101,3.9101,3.9101,3.9087,3.628,3.5834,3.5795,3.63,3.7256,3.8596,3.9489,3.9839,3.9737,3.9353,3.881,3.7625,3.6809,3.6513,3.6943,3.7701,3.8794,3.9728,4.1065,4.2526,4.2503,4.3534,4.4328,4.4288,4.3796,4.3455,4.3176,4.2956,4.2361,4.2417,4.3069,4.3318,4.375,4.3994,4.405,4.4182,4.4205,4.3427,4.2556,4.2457,4.201,4.1343,4.1203,4.1782,4.1199,4.077,4.0696,3.9877,3.9217,3.9096,3.9082,3.9101,3.9101,3.9101,3.9101,3.9101,3.9101,3.9101,3.9101,3.9101,3.9268,3.9398,3.9287,3.9584,3.9728,3.9602,3.9287,3.912,3.9417,3.9677,3.976,3.9865,4.023,4.0574,4.0406,4.0237,4.0007,3.9758,3.9543,3.9328,3.9074,3.8799,3.8707,3.8707,3.8707,3.8707,3.8707,3.8707,3.8707,3.8597,3.8432,3.8377,3.8469,3.845,3.841,3.8297,3.8559,3.8785,3.8877,3.8935,3.8979,3.9036,3.9059,3.9087,3.9101,3.9101,3.9101,3.9101,3.9101,3.9101,3.9101,3.9101,3.9101,3.9101,3.9073,3.5814,3.5795,3.5795,3.63,3.7159,3.7998,3.8387,3.8484,3.9217,3.9509,3.9023,3.778,3.7003,3.6669,3.68,3.7565,3.8543,3.9585,4.0781,4.3713,4.3529,4.3988,4.417,4.4085,4.3881,4.3534,4.3198,4.2923,4.2224,4.2173,4.2248,4.2042,4.2774,4.3257,4.3557,4.3712,4.368,4.325,4.2117,4.1448,4.2025,4.1269,4.0463,4.2139,4.1663,4.0769,4.0917,4.0234,3.9101,3.9101,3.9101,3.9101,3.9101,3.9101,3.9101,3.9101,3.9101,3.9101,3.9101,3.9101,3.9454,3.9584,3.9584,3.9584,3.9565,3.9491,3.9175,3.925,3.9547,3.9908,4.0065,4.0507,4.091,4.1018,4.0904,4.0859,4.0809,4.0226,3.9402,3.9184,3.8927,3.8707,3.8707,3.8707,3.8707,3.8707,3.8707,3.8707,3.8707,3.8707,3.8652,3.8542,3.8597,3.8649,3.8643,3.86,3.8696,3.8848,3.8921,3.8979,3.9036,3.9059,3.9101,3.9101,3.9101,3.9101,3.9101,3.9101,3.9101,3.9101,3.9101,3.9101,3.9101,3.9101,3.9087,3.5795,3.5795,3.5795,3.6304,3.7081,3.7314,3.7804,3.8387,3.86,3.8343,3.7741,3.7275,3.677,3.6377,3.6261,3.6861,3.7785,3.8659,3.9425,4.1144,4.2373,4.3627,4.4096,4.4315,4.4106,4.3758,4.3384,4.3095,4.2529,4.222,4.2018,4.2036,4.2412,4.2637,4.3106,4.3168,4.279,4.2852,4.1688,4.1025,4.1516,4.2294,4.2434,4.256,4.1872,4.1345,4.1089,4.0104,3.9361,3.9101,3.9101,3.9101,3.9101,3.9101,3.9101,3.9101,3.9101,3.9101,3.9101,3.9101,3.9305,3.9324,3.925,3.9287,3.925,3.9157,3.9212,3.9398,3.97,4.008,4.05,4.1036,4.144,4.1417,4.1303,4.1383,4.1423,4.0377,3.9294,3.9001,3.8762,3.8707,3.8707,3.8707,3.8707,3.8707,3.8707,3.8707,3.8707,3.8707,3.8707,3.8634,3.8652,3.8686,3.8747,3.8807,3.8866,3.8906,3.8964,3.9021,3.9059,3.9073,3.9101,3.9101,3.9101,3.9101,3.9101,3.9101,3.9101,3.9101,3.9101,3.9101,3.9101,3.9101,3.9101,3.5795,3.5795,3.5795,3.6067,3.6533,3.6925,3.7197,3.7294,3.7644,3.7333,3.6692,3.6848,3.6789,3.6241,3.6,3.6463,3.7249,3.7489,3.938,4.0803,4.1412,4.2768,4.3636,4.4241,4.4027,4.3711,4.3732,4.3472,4.3061,4.2831,4.2712,4.2241,4.214,4.2218,4.2688,4.2254,4.2101,4.2469,4.1128,4.0751,4.0905,4.1365,4.2255,4.221,4.2158,4.1702,4.1219,4.0327,3.9658,3.9231,3.9101,3.9101,3.9101,3.9101,3.9101,3.9101,3.9101,3.9101,3.9101,3.9101,3.9101,3.9101,3.9101,3.9175,3.9175,3.9101,3.9101,3.9324,3.9918,4.0335,4.0656,4.1135,4.1409,4.1477,4.114,4.0983,4.0432,3.9496,3.8964,3.8836,3.8707,3.8707,3.8707,3.8707,3.8707,3.8707,3.8707,3.8707,3.8707,3.8707,3.8707,3.8704,3.8719,3.875,3.8777,3.8851,3.8939,3.8979,3.9003,3.9045,3.9087,3.9087,3.9101,3.9101,3.9101,3.9101,3.9101,3.9101,3.9101,3.9101,3.9101,3.9101,3.9101,3.9101,3.9101,3.5795,3.5795,3.5795,3.5892,3.6047,3.6615,3.6615,3.6222,3.6653,3.6556,3.6008,3.6595,3.6887,3.6645,3.6298,3.7031,3.7467,3.7478,3.9332,4.0449,4.1403,4.2297,4.3007,4.3572,4.3787,4.4001,4.4084,4.4187,4.4124,4.3699,4.3103,4.2519,4.2169,4.1983,4.1969,4.171,4.1571,4.1399,4.0663,4.0016,3.9923,3.9993,4.127,4.1902,4.2054,4.1683,4.146,4.0847,4.003,3.9565,3.9212,3.9101,3.9101,3.9101,3.9101,3.9101,3.9101,3.9101,3.9101,3.9101,3.9101,3.9101,3.9101,3.9101,3.9101,3.9101,3.9101,3.9366,3.996,4.0381,4.07,4.1253,4.1488,4.1464,4.1071,4.0471,3.9591,3.8854,3.8781,3.8707,3.8707,3.8707,3.8707,3.8707,3.8707,3.8707,3.8707,3.8707,3.8707,3.8707,3.8723,3.875,3.8777,3.8807,3.8837,3.8896,3.8997,3.9021,3.9045,3.9087,3.9101,3.9101,3.9101,3.9101,3.9101,3.9101,3.9101,3.9101,3.9101,3.9101,3.9101,3.9101,3.9101,3.9101,3.9101,3.5795,3.5795,3.5795,3.6183,3.6692,3.6319,3.6319,3.6712,3.6222,3.5911,3.5892,3.5892,3.6047,3.6067,3.5929,3.6251,3.6551,3.701,3.7196,3.787,4.0365,4.1564,4.2639,4.3735,4.4118,4.4318,4.4375,4.4219,4.4231,4.3951,4.3441,4.2667,4.1836,4.1762,4.203,4.1542,4.0741,4.0787,4.0565,3.99,4.0262,4.0494,4.0861,4.1367,4.1702,4.2017,4.198,4.1089,4.0513,4.0011,3.9491,3.9194,3.9101,3.9101,3.9101,3.9101,3.9101,3.9101,3.9101,3.9101,3.9101,3.9101,3.9101,3.9101,3.9101,3.9101,3.9092,3.9128,3.9614,3.9993,4.0455,4.1504,4.194,4.1581,4.1203,4.0141,3.9169,3.8872,3.8726,3.8707,3.8707,3.8707,3.8707,3.8707,3.8707,3.8707,3.8707,3.8707,3.8707,3.8707,3.8723,3.878,3.8818,3.8866,3.8896,3.8954,3.9021,3.9064,3.9087,3.9101,3.9101,3.9101,3.9101,3.9101,3.9101,3.9101,3.9101,3.9101,3.9101,3.9101,3.9101,3.9101,3.9101,3.9101,3.9101]}]]